GEFSSGP_500_meanwind_000.txt.gz
Wind_Speed
3 4 2 1 2 4 9 8 7 7 10 8 7 8 8 7 6 5 5 4 6 7 7 6 5 6 6 7 8 9 10 11 11 12 12 12 11 11 12 14 14 14 15 16 16 15 14 13 13
4 5 1 2 1 3 6 6 7 7 9 10 9 8 8 8 7 6 5 4 3 4 5 5 5 6 5 6 7 7 8 9 10 10 10 9 9 9 10 11 11 12 12 13 13 13 13 12 11
7 8 6 3 2 2 1 3 4 5 7 10 12 12 10 9 8 7 5 5 4 4 4 3 3 3 4 4 5 6 6 6 6 6 6 6 6 6 7 8 8 9 10 11 12 11 10 10 10
10 12 12 9 5 6 4 1 4 3 4 5 7 10 11 10 8 6 7 6 5 4 4 4 5 5 5 6 6 6 6 5 5 4 4 4 4 4 5 6 6 7 8 9 11 11 10 8 7
11 10 10 8 7 9 9 4 1 1 2 7 8 8 10 10 10 10 9 9 8 7 6 7 7 7 6 6 5 5 5 4 4 4 4 5 5 6 6 6 7 9 10 10 11 11 10 8 6
14 14 10 12 13 10 7 5 3 2 1 8 9 8 9 9 9 9 9 9 9 9 9 8 8 9 8 7 7 6 6 4 4 4 3 5 6 7 8 9 11 14 16 16 15 13 12 11 9
15 18 18 17 15 15 13 8 3 4 2 6 7 6 5 6 6 6 6 6 7 8 8 9 9 9 9 9 9 9 8 6 5 5 6 8 11 12 14 15 16 18 19 18 16 15 12 11 9
21 21 23 22 19 20 17 11 6 7 3 5 9 6 2 4 6 6 7 7 7 8 9 9 9 9 10 11 11 11 12 10 10 12 13 14 16 18 19 19 19 19 20 20 19 18 14 13 11
28 25 25 23 19 19 14 12 10 9 8 6 4 4 4 8 10 11 12 12 12 12 12 12 13 13 14 15 16 17 17 17 18 18 19 19 19 20 21 22 23 23 23 23 23 22 20 17 16
30 30 27 24 20 18 14 16 13 9 8 6 5 6 8 11 16 17 17 18 20 20 19 19 18 18 18 19 20 22 22 22 23 24 25 25 25 24 24 26 28 29 28 27 26 26 24 22 20
29 31 30 26 20 18 20 20 15 10 11 11 10 12 15 17 19 22 23 24 25 25 25 25 25 24 25 26 27 28 28 29 29 29 29 30 30 29 30 31 32 33 32 32 31 31 30 28 27
25 32 30 26 22 20 21 21 19 16 14 15 15 18 22 24 26 27 27 28 28 28 28 28 28 29 31 32 33 33 33 34 34 35 34 34 35 35 35 35 36 35 36 37 37 35 35 33 32
24 30 30 27 25 23 24 26 25 22 19 19 21 24 27 31 33 32 30 29 29 30 31 31 33 33 34 35 36 38 38 38 38 38 38 39 39 39 39 39 38 37 40 41 41 40 39 37 37
28 27 26 25 26 26 27 29 28 26 27 28 29 31 34 36 36 35 30 28 28 28 30 31 34 36 38 38 39 42 44 44 43 42 43 42 42 42 43 40 37 37 41 45 42 40 40 37 41
32 30 28 27 29 30 31 32 31 31 32 35 36 37 38 39 36 34 30 29 26 25 26 27 30 33 35 38 39 39 41 43 42 42 42 40 39 41 43 34 33 34 40 40 36 37 39 36 41
35 34 33 34 35 34 35 33 34 36 37 39 39 40 39 39 34 34 33 32 30 28 26 26 28 31 33 36 37 38 39 38 37 38 36 35 35 35 33 29 33 38 44 42 39 38 40 39 43
38 37 37 37 39 38 37 35 35 36 38 39 39 38 37 31 31 34 37 38 33 28 25 25 27 27 29 29 32 35 37 38 39 38 36 36 36 36 36 35 34 37 41 43 45 44 43 42 39
34 37 38 38 39 38 36 34 32 33 34 34 35 34 26 30 34 38 41 37 31 26 22 22 24 25 27 27 26 28 32 35 38 39 38 38 38 37 37 38 38 40 41 41 42 43 41 38 34
29 32 32 33 35 34 31 30 30 28 29 29 30 31 32 35 36 40 37 32 28 24 23 24 27 28 28 28 27 28 30 31 34 36 36 37 37 36 36 36 36 37 36 35 35 36 37 36 36
29 30 30 30 31 29 28 30 32 29 28 27 29 33 35 37 39 37 29 24 23 23 24 25 24 23 24 25 28 30 30 32 33 35 37 37 36 36 35 35 34 33 33 32 33 33 33 34 34
26 30 31 30 29 29 27 29 30 32 32 32 34 35 35 36 37 32 22 22 26 26 26 25 22 22 24 24 26 28 29 30 31 32 34 37 38 39 38 39 38 37 36 34 33 33 33 32 32
20 24 27 28 29 31 29 32 32 34 36 37 37 36 34 34 31 23 20 26 29 26 20 21 23 26 26 25 24 24 25 27 29 31 32 34 36 39 41 41 41 40 39 37 35 34 34 33 31
18 19 22 22 25 28 32 37 37 37 39 39 38 35 30 27 23 23 24 27 27 21 19 21 22 22 21 21 20 20 22 23 25 29 33 35 36 37 38 41 43 42 40 38 36 36 35 33 31
12 14 16 16 18 20 23 28 31 32 33 33 31 25 22 22 22 26 27 25 24 22 23 23 21 21 20 20 19 21 22 24 26 28 30 34 37 37 38 39 41 42 41 40 38 37 35 34 34
10 12 14 15 16 17 20 21 20 21 22 23 22 21 23 25 27 27 23 22 24 25 24 23 23 24 23 24 25 25 25 26 27 28 29 33 35 37 38 37 38 40 41 40 40 39 38 36 36
11 12 14 16 16 16 19 18 16 17 18 18 20 23 25 26 24 21 22 24 26 25 25 24 25 25 24 25 26 27 28 28 29 30 31 33 34 36 35 35 35 37 39 39 39 39 40 39 39
10 11 14 15 16 17 16 17 17 17 17 18 23 24 24 20 18 19 22 26 26 27 28 28 27 28 28 27 28 30 29 29 30 31 33 32 33 37 35 33 33 34 36 38 39 39 39 40 40
9 11 13 17 19 18 16 17 18 19 18 21 24 23 21 21 24 27 28 28 29 31 33 34 33 32 31 32 32 32 34 32 31 32 34 34 33 35 36 34 34 34 33 35 37 37 38 38 39
12 13 15 17 20 22 21 18 17 20 25 27 28 29 32 32 33 35 37 37 38 39 40 42 42 38 33 30 32 35 39 40 37 35 35 34 33 34 36 35 34 33 34 33 33 33 34 35 36
16 19 21 23 24 25 28 28 24 25 27 29 32 35 37 38 39 42 44 44 45 46 47 47 48 47 44 40 38 39 41 43 44 39 37 35 35 34 34 33 32 31 30 29 28 29 30 31 32

GEFSSGP_500_meanwind_006.txt.gz
Wind_Speed
5 6 6 8 8 9 8 7 6 8 10 9 9 9 9 7 6 4 3 2 1 2 2 2 3 1 1 2 3 3 5 6 7 6 5 4 5 6 6 5 4 4 5 5 6 7 6 6 6
5 6 6 7 9 7 6 6 5 4 4 5 5 6 6 6 6 5 4 3 2 1 1 1 1 1 2 3 4 6 6 7 7 7 6 6 5 5 6 5 4 3 4 5 7 6 5 4 3
4 4 5 5 5 3 4 5 6 6 5 4 3 3 3 4 4 4 4 3 3 3 3 2 1 3 4 6 6 7 8 6 6 6 7 7 7 6 6 7 6 5 5 6 8 9 8 5 3
5 4 4 3 2 3 4 5 6 5 5 4 3 2 0 1 1 2 1 1 2 3 3 3 3 4 5 6 7 8 8 7 6 6 7 8 8 8 8 8 8 7 7 8 10 12 12 9 7
8 7 6 7 8 6 5 5 5 4 4 4 4 4 1 0 1 1 2 2 2 3 3 3 3 4 5 6 7 8 8 8 8 8 8 8 8 9 9 10 11 12 12 13 13 13 12 12 10
12 10 7 7 8 6 4 4 6 7 7 6 4 4 2 1 1 1 2 2 3 3 3 3 4 5 6 7 7 8 9 10 10 9 8 8 10 12 13 14 15 16 17 16 15 13 13 12 11
16 14 11 10 9 8 7 6 9 10 11 9 6 4 2 1 1 1 2 3 4 5 6 7 7 8 10 10 11 11 11 11 11 11 11 12 14 16 17 17 17 18 19 19 18 17 16 14 13
20 18 15 14 14 14 10 8 8 9 10 9 7 5 5 5 5 5 6 7 8 10 11 12 13 14 16 16 17 16 16 16 16 16 16 17 18 19 20 21 21 22 22 23 22 21 20 18 17
23 21 19 20 18 17 12 8 6 7 9 9 9 8 8 9 9 11 12 13 14 16 17 19 21 23 24 24 24 23 22 23 23 22 22 22 23 23 23 24 25 26 26 26 26 26 24 23 23
25 24 25 25 22 19 15 10 10 8 9 10 11 11 12 14 15 17 18 19 20 21 23 24 26 27 28 30 30 31 30 29 29 29 29 28 28 28 28 28 29 30 31 31 31 31 30 28 28
27 30 31 28 26 24 21 15 13 12 12 14 15 16 16 19 21 23 24 24 25 26 27 29 31 32 32 32 33 34 35 35 35 34 34 34 34 34 33 33 33 34 35 36 36 35 35 34 33
26 29 32 32 30 28 26 21 16 16 17 17 19 19 19 22 25 28 30 30 30 32 33 34 35 36 36 36 37 37 38 39 39 39 38 39 39 39 38 38 37 38 39 40 41 42 41 40 39
26 26 28 30 31 30 28 25 20 19 21 20 21 21 23 26 29 32 34 35 36 37 38 38 36 36 37 37 37 38 38 39 41 42 41 41 41 42 42 42 41 42 43 44 44 46 47 45 42
30 27 25 26 28 29 28 26 24 24 24 24 24 25 28 30 33 35 37 38 39 41 40 38 36 35 36 36 37 37 37 37 37 38 38 40 40 40 39 37 37 38 40 41 40 41 42 40 35
33 30 27 27 27 28 28 28 28 28 28 29 29 29 32 34 36 37 38 40 40 39 38 37 36 36 35 34 35 37 38 38 38 38 38 39 40 38 36 34 35 36 36 36 36 34 32 31 30
35 33 30 33 31 31 30 28 33 30 31 32 32 33 35 37 37 37 38 38 37 37 38 39 40 37 34 32 33 35 35 36 37 36 36 37 37 35 32 31 32 33 34 36 36 36 36 35 34
34 33 33 36 36 35 34 34 38 35 36 36 37 37 38 37 36 35 35 34 36 39 40 41 39 35 33 32 32 33 33 34 34 32 30 31 31 30 30 29 30 31 34 35 36 36 37 37 36
27 30 33 35 40 38 39 40 40 40 40 41 40 38 36 34 32 31 32 34 37 38 38 36 33 32 31 31 30 29 29 28 28 29 29 29 27 25 26 27 28 30 33 35 37 38 38 37 35
25 27 28 35 40 40 42 43 43 43 41 38 35 32 30 30 29 31 34 36 36 36 34 30 28 29 28 27 27 25 24 24 22 22 21 19 18 19 20 22 24 27 31 33 36 39 39 38 35
16 19 21 28 36 38 39 39 39 36 32 31 30 30 30 31 32 35 36 36 36 35 30 27 28 29 27 26 25 23 21 19 19 18 16 14 13 14 15 17 21 24 28 31 35 38 40 40 38
8 12 17 21 25 26 29 28 30 30 29 30 30 31 32 34 36 37 37 37 36 32 30 29 29 28 25 24 24 21 18 16 16 17 16 15 14 15 16 17 20 24 27 31 34 37 38 39 39
8 13 14 16 17 17 21 21 21 27 27 29 31 32 34 37 38 38 37 35 33 30 30 31 30 28 26 25 23 21 20 19 20 21 21 20 19 18 18 19 21 24 27 31 34 36 38 39 39
11 13 13 14 15 15 17 18 16 24 26 28 32 34 36 38 38 35 32 31 30 31 33 33 30 28 26 26 26 26 25 26 26 27 28 27 25 22 20 21 23 25 29 32 32 33 35 37 37
11 11 11 12 12 11 14 13 12 19 22 22 24 25 27 30 31 30 29 28 29 32 33 31 29 28 26 27 28 29 29 30 31 32 33 32 29 24 21 22 24 26 29 32 33 32 32 33 34
13 12 10 9 9 11 16 13 16 19 18 20 21 23 25 26 27 28 26 27 30 32 31 30 30 30 30 30 31 31 32 32 31 31 31 30 28 25 22 23 25 27 29 32 34 34 32 31 31
10 10 9 9 10 11 14 13 19 18 18 18 19 21 23 25 26 28 30 30 30 31 31 32 32 33 34 34 34 34 34 33 31 30 29 29 28 27 24 24 25 26 28 31 34 35 33 31 30
8 9 10 11 12 12 11 13 21 19 21 21 22 22 25 27 29 31 33 34 33 33 34 35 36 37 38 38 38 37 36 34 33 32 30 29 28 26 24 24 25 25 27 30 33 34 32 30 30
10 11 12 12 13 13 14 17 20 19 22 25 28 29 29 32 34 36 37 39 41 42 43 43 43 44 45 45 44 42 41 38 36 36 35 33 29 27 25 24 24 25 27 29 31 34 33 30 28
14 15 15 17 18 19 19 22 23 25 26 28 29 32 35 37 40 42 44 44 45 47 49 49 49 49 50 51 50 49 48 46 42 40 38 35 31 29 29 28 27 27 28 30 30 33 33 31 29
18 19 20 21 23 25 27 31 29 30 32 33 34 35 37 40 42 44 47 48 50 51 53 55 56 56 56 56 56 56 55 53 49 46 44 40 36 34 35 35 33 31 31 31 30 31 33 32 29

GEFSSGP_500_meanwind_012.txt.gz
Wind_Speed
9 9 10 10 9 11 10 5 5 4 3 1 0 1 1 1 2 1 2 2 1 2 2 3 4 4 4 4 6 8 10 12 13 13 13 13 13 11 10 10 9 8 8 9 10 11 12 12 11
8 8 8 6 4 11 8 5 4 5 4 4 3 3 2 2 2 3 3 3 3 2 2 3 4 4 5 6 8 10 11 12 13 12 12 13 14 13 11 10 10 9 9 9 11 12 13 13 13
8 7 6 2 6 2 6 4 7 7 6 7 6 5 4 4 4 5 5 4 4 4 4 4 5 6 6 7 9 10 12 13 13 13 12 12 13 14 13 12 11 10 10 10 12 14 15 14 13
6 6 4 6 11 11 5 8 10 8 7 8 9 6 6 7 6 6 6 5 5 4 5 5 7 8 8 8 9 10 12 13 14 14 13 14 14 14 14 13 12 12 12 12 13 15 15 15 13
5 5 3 9 12 10 10 13 11 10 10 11 11 9 9 8 8 8 8 7 6 5 5 6 7 8 9 10 11 12 13 14 15 15 15 16 16 16 16 16 16 16 16 15 15 15 15 15 14
6 7 4 6 16 11 8 13 11 8 9 10 12 10 10 8 9 8 6 6 6 5 6 6 8 9 11 13 14 16 17 18 18 19 19 19 18 18 19 20 20 19 19 18 18 18 17 16 16
11 9 6 1 17 13 6 13 13 8 10 9 10 10 10 10 9 7 6 6 6 6 8 9 10 12 13 15 17 19 20 21 21 22 22 22 21 21 22 22 23 23 23 22 21 21 21 21 20
15 13 7 1 13 18 17 12 10 15 17 13 12 15 11 10 10 9 7 7 9 10 12 13 15 16 17 19 21 22 23 24 25 26 26 26 25 25 25 26 27 27 27 27 26 25 25 25 25
17 16 7 4 15 18 20 12 9 14 15 18 16 17 14 12 12 11 11 12 14 15 16 18 19 21 22 23 25 26 27 27 28 29 30 31 31 30 31 31 32 31 31 31 31 30 29 29 29
18 17 9 11 17 14 13 12 14 14 11 19 19 17 14 15 15 16 17 17 18 20 21 23 24 26 27 27 28 29 29 29 30 31 32 34 34 34 34 35 36 36 36 35 35 34 33 33 32
21 20 17 17 20 22 22 17 15 11 13 23 23 24 18 18 20 21 21 22 22 24 26 28 30 31 33 32 31 31 31 31 31 32 33 34 34 35 36 37 37 38 38 37 36 35 35 35 35
24 24 26 27 26 26 27 23 17 12 17 28 27 25 18 21 25 26 25 26 26 28 30 31 34 35 37 37 36 35 34 34 34 34 34 33 33 34 35 36 38 39 39 38 38 37 37 37 36
26 26 27 30 31 30 29 26 23 18 21 28 27 28 26 28 29 30 30 30 30 31 33 35 36 37 38 38 37 37 36 37 37 38 37 35 35 34 34 35 36 36 35 34 34 34 33 32 30
26 27 29 30 29 28 26 25 24 21 20 30 30 30 32 32 32 33 33 32 33 35 37 38 38 38 38 38 38 38 38 38 38 38 37 36 36 34 33 32 31 30 29 29 28 27 26 26 25
26 27 28 28 26 22 21 24 24 20 19 30 32 31 32 33 33 35 35 36 36 38 40 40 39 38 37 38 39 40 39 37 36 36 35 34 33 32 30 29 27 26 25 24 23 23 23 23 24
22 23 24 23 22 19 23 26 21 16 21 30 33 34 36 34 36 38 40 42 42 42 43 37 38 36 36 38 41 41 38 36 34 33 32 30 29 28 28 27 26 24 23 22 22 22 22 23 24
12 17 16 14 15 20 25 24 19 20 25 28 32 35 38 38 40 42 44 46 45 43 38 35 37 36 37 39 40 39 35 31 30 29 28 27 26 26 26 26 25 23 22 21 21 21 21 22 23
9 9 12 11 14 24 23 19 18 26 31 32 35 39 42 43 44 47 50 50 46 41 38 36 36 37 38 39 40 37 32 29 28 27 26 26 25 24 24 23 21 20 20 19 18 18 18 20 22
13 12 10 11 18 24 23 20 22 30 33 34 38 42 44 45 46 50 52 47 41 37 35 36 38 38 39 40 39 35 31 29 28 27 26 26 25 24 22 20 18 17 16 16 16 16 17 19 21
3 6 10 15 19 21 25 26 24 27 32 34 35 37 40 43 46 46 42 35 32 32 35 38 39 40 41 40 38 35 33 31 28 27 26 25 24 22 20 19 17 16 17 17 17 17 18 20 22
6 9 13 15 18 20 20 19 17 20 27 29 29 32 34 37 39 38 29 20 23 29 33 37 40 41 41 39 37 35 34 33 30 27 24 23 22 22 21 20 20 20 20 19 19 19 19 20 23
9 13 16 18 19 19 17 16 15 20 25 27 30 32 29 34 40 41 35 30 30 31 35 37 39 39 38 36 35 34 32 30 29 26 24 22 21 22 22 23 23 24 23 22 21 20 19 20 22
11 13 13 13 12 11 13 13 17 22 26 27 28 32 36 40 41 41 39 37 36 38 39 35 33 32 31 31 31 29 27 26 26 26 25 23 22 23 24 25 27 28 27 26 24 22 22 21 23
10 9 7 11 17 21 21 16 17 20 25 28 31 34 36 38 38 39 38 38 39 38 36 32 31 31 30 30 29 28 26 25 25 27 27 26 26 25 25 27 29 30 30 28 26 25 24 24 24
8 8 8 14 22 25 17 9 17 20 22 25 28 30 33 34 35 35 36 36 37 38 37 36 34 34 34 34 33 32 30 29 28 29 30 30 31 30 29 29 30 31 31 30 29 28 27 26 26
9 7 9 15 16 18 22 20 23 24 26 25 26 30 34 36 38 39 40 40 41 40 40 40 40 40 40 40 40 40 39 37 36 34 33 33 34 35 35 34 34 34 34 33 31 30 29 28 28
11 10 11 15 14 14 18 30 31 28 28 25 27 34 38 40 42 44 45 45 46 47 46 46 46 46 47 47 47 47 47 47 46 45 43 41 39 38 38 37 37 37 36 36 34 32 31 29 29
15 15 15 16 17 18 17 30 34 35 33 35 37 39 41 44 46 47 49 50 50 51 52 52 53 53 54 55 55 55 55 55 55 54 53 51 48 45 43 40 39 39 39 38 36 34 32 30 30
14 17 19 20 20 21 21 30 34 36 37 40 41 43 46 48 49 51 52 53 54 55 56 57 57 58 60 61 62 62 62 62 62 61 60 59 57 54 51 48 45 43 41 40 38 35 32 30 30
11 19 23 24 24 24 25 32 33 37 39 42 45 48 51 52 53 54 56 57 57 58 59 60 61 62 63 64 65 66 67 66 66 66 66 65 63 60 57 54 53 50 46 43 41 39 35 32 30

GEFSSGP_500_meanwind_018.txt.gz
Wind_Speed
8 8 8 9 7 5 4 3 5 3 4 6 8 9 7 5 3 5 4 5 6 6 5 5 6 6 6 5 5 5 6 7 8 8 9 8 9 9 9 9 9 9 10 10 12 13 14 15 13
7 7 7 6 5 6 4 1 1 1 0 2 5 7 6 5 5 5 4 5 7 7 7 7 7 7 7 7 7 7 7 7 7 7 8 8 8 9 9 10 9 10 11 11 11 11 12 13 13
8 7 5 2 3 4 3 4 5 5 1 1 4 5 4 4 5 5 5 7 7 8 8 9 9 9 9 9 8 8 8 8 8 9 9 9 9 9 9 10 10 10 11 11 10 11 11 11 12
8 8 6 5 7 6 6 8 9 7 4 4 5 4 4 4 6 6 6 8 8 9 9 10 11 10 10 10 9 9 9 10 11 11 12 11 11 11 11 11 12 12 12 12 11 11 11 11 11
10 10 7 8 14 13 11 14 16 12 7 4 6 5 4 4 6 6 7 8 8 9 10 11 12 11 11 11 10 11 11 12 13 15 15 15 15 14 13 13 14 14 15 14 13 12 12 12 12
12 11 8 8 12 14 13 17 20 18 10 5 4 5 4 3 6 8 7 7 8 9 10 11 11 11 11 12 13 14 14 15 16 17 18 18 18 18 17 16 16 17 17 17 17 16 16 16 16
15 12 8 5 9 10 14 18 22 22 16 12 8 6 6 6 7 9 9 9 10 11 11 12 12 12 13 14 15 16 17 18 19 20 20 21 21 21 20 20 20 20 20 21 21 20 20 21 21
17 15 12 8 11 9 12 17 21 20 19 15 13 11 10 9 8 9 11 13 13 14 15 16 17 17 17 18 18 19 20 21 21 22 22 22 23 23 23 23 23 24 24 24 24 24 24 25 25
18 16 15 13 14 13 10 14 18 19 18 16 15 15 16 15 13 11 13 17 18 19 21 22 23 23 23 22 21 21 22 22 23 23 23 23 24 23 24 24 25 26 26 26 27 27 27 28 28
20 17 17 20 20 17 12 13 17 19 19 17 17 17 20 19 18 17 16 19 22 23 25 27 28 28 27 26 24 23 23 24 24 24 24 24 25 25 25 25 25 26 27 27 27 27 28 29 28
20 18 21 26 25 22 19 18 19 22 23 22 21 22 23 23 21 21 21 21 25 29 30 31 31 30 29 27 26 25 25 25 24 24 24 25 26 26 26 26 26 26 26 25 25 25 26 26 26
20 18 22 29 31 29 27 25 23 26 27 27 27 27 27 26 25 26 28 28 30 33 35 36 35 33 31 29 28 27 26 26 25 24 25 26 26 26 26 26 24 23 23 23 23 23 22 21 22
21 20 22 25 30 33 32 31 30 29 30 32 33 33 33 32 32 33 34 36 36 36 38 38 36 34 33 31 29 28 27 25 25 25 24 25 25 26 25 24 23 23 21 20 20 20 20 19 18
22 22 20 20 23 29 34 34 33 31 32 32 33 33 33 34 35 37 38 40 41 40 40 38 38 37 36 33 30 29 27 26 25 25 24 24 24 24 24 23 22 21 19 19 20 20 19 19 18
21 21 19 19 20 20 26 29 28 25 27 28 29 30 32 35 38 40 42 43 44 45 42 39 38 38 37 36 33 29 26 25 24 24 23 22 22 22 22 21 20 20 19 20 20 20 19 19 18
20 18 15 14 16 15 21 20 16 20 22 25 28 30 33 37 39 41 43 44 47 46 47 44 39 36 36 34 31 27 26 25 24 23 22 21 21 21 20 19 18 18 19 19 20 20 20 19 18
17 14 12 11 12 12 13 11 12 18 22 25 29 33 36 39 41 42 44 46 49 50 53 49 41 38 36 34 30 27 25 21 22 23 22 21 21 21 19 18 18 18 18 18 18 19 19 18 17
13 11 9 8 9 10 12 14 18 21 24 27 30 34 38 41 44 47 48 50 52 54 52 50 44 33 28 26 24 21 19 19 21 23 22 22 21 21 20 19 18 17 16 16 16 17 17 17 16
10 12 12 11 10 12 14 18 22 26 29 32 34 36 39 42 45 47 48 50 51 51 47 44 39 30 23 18 18 19 20 19 21 23 23 22 22 21 21 20 19 17 16 16 16 16 17 17 16
10 14 17 18 18 17 19 23 27 30 33 35 37 40 42 42 42 43 45 45 44 45 42 36 32 27 23 19 20 21 21 20 21 22 22 22 21 21 21 21 19 18 18 17 17 17 17 17 17
11 14 17 21 22 24 25 27 30 33 36 38 39 39 38 37 37 39 40 39 40 39 37 35 33 29 26 24 22 21 21 20 19 20 20 20 19 19 19 20 19 19 19 19 18 19 19 19 19
10 13 16 18 22 24 26 29 31 32 35 37 37 37 36 35 35 36 37 37 37 37 36 34 33 30 29 27 24 24 21 19 18 18 18 19 19 19 20 20 20 20 20 20 20 21 21 21 21
8 10 12 13 14 16 19 23 25 27 31 32 34 34 34 32 33 35 36 37 38 39 38 36 35 33 32 30 29 27 25 24 23 22 21 21 21 21 21 22 22 22 21 21 22 23 23 23 23
10 11 10 9 9 11 14 18 21 22 25 25 26 29 29 29 32 35 37 39 42 42 42 41 40 38 36 35 34 33 32 31 30 29 27 27 26 25 25 24 24 24 24 24 24 24 25 25 26
9 10 8 7 10 13 16 19 22 22 22 23 22 23 25 29 33 36 39 42 44 45 46 46 45 44 43 42 41 39 38 38 38 37 36 35 34 32 30 29 28 28 28 28 27 27 27 27 28
10 12 13 12 14 17 19 21 23 24 27 27 29 31 32 35 38 41 44 46 47 47 48 48 48 48 47 47 46 45 45 44 44 44 44 44 43 41 39 36 34 33 33 33 32 31 30 30 30
14 16 18 17 18 20 22 22 24 26 29 31 34 36 39 42 45 48 50 53 53 53 53 52 51 50 50 50 51 51 51 51 50 50 49 49 49 49 48 46 43 41 40 39 38 36 35 34 33
18 19 18 18 20 22 24 26 28 30 32 35 38 40 43 46 49 52 55 57 58 59 60 60 59 57 56 55 55 55 56 56 56 55 55 54 54 54 55 55 53 51 49 46 44 42 41 38 36
17 17 16 18 21 24 26 28 31 34 36 39 42 44 46 48 50 53 56 58 61 64 66 67 68 67 66 65 63 62 61 61 61 61 60 59 59 58 59 59 59 58 57 54 51 48 47 44 42
17 17 18 20 22 24 28 33 37 40 42 44 46 48 50 53 55 57 59 61 64 67 70 72 73 74 73 71 69 67 66 65 65 65 65 65 64 63 63 63 63 63 62 60 58 54 52 50 47

GEFSSGP_500_meanwind_024.txt.gz
Wind_Speed
7 6 5 4 4 4 4 6 7 8 8 8 7 5 3 3 4 6 7 9 10 11 13 14 15 14 13 12 11 10 9 7 5 4 3 2 2 3 3 4 5 5 6 8 8 8 9 9 9
9 8 8 7 6 6 6 6 7 7 9 9 9 8 7 6 6 7 8 9 10 12 13 15 15 14 14 13 12 11 10 9 7 6 5 5 5 5 5 6 6 6 7 7 7 7 7 7 7
11 11 10 9 8 8 7 8 8 8 9 9 9 9 9 9 8 8 9 10 11 13 14 15 15 15 14 14 13 12 11 10 9 9 8 8 8 8 8 8 8 8 8 8 8 7 6 5 5
12 12 12 11 11 10 10 10 10 10 9 9 8 8 9 9 9 9 10 12 12 13 15 16 15 15 14 13 13 13 13 12 12 12 12 12 12 12 12 12 11 11 11 11 11 10 9 8 7
14 14 14 14 15 14 14 14 13 12 10 7 6 7 8 8 8 8 10 11 12 13 14 15 14 14 13 13 13 14 14 15 15 16 16 16 16 16 16 15 15 15 14 14 14 14 13 12 11
16 16 16 17 18 18 18 17 16 14 12 7 4 4 6 6 6 6 8 9 11 12 14 14 14 14 14 14 15 15 16 17 18 18 19 19 20 20 19 19 18 18 18 18 18 18 17 16 16
18 17 18 19 21 22 22 21 20 17 13 8 5 3 5 5 5 7 8 10 11 13 15 16 17 18 18 18 18 19 19 20 21 21 21 21 22 22 22 21 21 21 21 21 21 21 21 21 20
19 19 20 22 24 24 24 23 22 20 15 10 7 6 6 7 7 9 10 12 14 16 17 19 20 22 23 24 24 24 25 25 24 24 24 23 23 22 23 22 22 23 23 23 24 25 25 24 24
19 20 21 24 25 25 25 26 25 23 20 16 11 9 8 9 10 11 13 15 18 20 21 23 25 26 28 29 30 30 30 30 30 28 27 25 24 23 23 23 23 23 24 24 25 26 27 27 26
20 19 21 25 27 27 27 27 27 26 25 20 15 13 11 12 13 15 17 20 22 24 25 27 29 31 34 35 36 37 37 36 35 33 31 28 26 24 23 23 23 24 24 25 26 27 27 27 26
19 18 19 24 28 28 28 29 29 29 27 22 19 18 17 17 18 20 22 24 26 27 29 30 32 35 37 38 40 40 41 41 40 37 34 31 28 25 24 23 24 25 25 26 26 25 26 27 26
18 17 19 21 26 28 30 31 32 32 29 27 25 24 22 22 23 24 25 26 29 31 32 34 36 37 38 38 39 40 39 40 41 41 37 33 30 27 25 24 25 25 25 25 25 24 25 25 24
19 18 19 20 24 27 30 33 34 33 32 31 29 27 27 28 29 28 27 27 29 31 33 35 36 36 37 38 38 39 42 41 41 41 37 35 32 28 26 24 25 25 25 24 24 23 22 22 23
20 19 20 22 24 28 31 32 34 35 34 33 32 31 31 32 31 29 29 29 30 32 34 35 36 38 38 38 37 38 39 39 41 39 36 36 34 30 26 24 24 24 24 24 24 24 23 23 23
20 20 22 24 25 27 28 30 32 33 34 35 34 34 34 33 31 30 31 31 33 34 35 38 39 40 40 40 41 40 39 40 38 38 37 38 35 30 24 23 23 23 23 24 24 24 24 24 24
19 20 22 23 24 25 25 26 26 29 30 31 32 32 31 30 31 31 32 34 36 37 40 42 43 42 41 40 42 41 40 38 33 34 35 35 32 26 22 20 21 21 21 22 23 24 25 25 25
19 19 20 21 22 22 21 20 20 22 23 24 25 27 28 29 31 32 34 36 39 41 43 44 44 43 40 40 41 40 38 31 26 29 30 31 29 24 21 20 21 20 21 21 22 23 24 25 25
17 18 19 20 20 20 18 17 16 16 19 21 23 26 28 30 33 34 37 40 42 43 45 44 43 40 38 38 39 35 32 24 18 22 22 25 23 22 22 22 22 21 21 21 22 22 23 24 24
16 16 18 18 18 18 17 16 15 16 19 23 26 28 31 33 35 38 41 43 44 45 44 43 41 39 37 37 36 33 28 24 18 16 17 20 21 22 22 22 23 23 23 22 22 22 23 23 23
13 15 16 17 18 18 17 17 17 19 22 25 28 30 33 36 38 41 43 45 45 45 44 42 40 38 37 36 35 33 29 26 22 19 18 19 20 20 21 22 24 25 25 24 24 23 23 23 24
12 14 15 17 18 18 19 19 20 22 25 28 31 33 35 37 39 41 40 40 41 40 41 40 40 39 39 37 35 33 30 27 24 22 21 21 21 21 22 24 25 26 26 26 26 26 25 25 25
10 11 12 13 14 16 17 19 20 22 25 28 29 31 31 32 33 34 34 34 33 35 37 39 40 40 40 39 37 35 33 30 28 27 26 25 25 25 25 25 26 27 28 28 28 28 28 28 28
6 7 7 9 11 12 13 15 17 20 22 25 26 27 28 28 29 30 31 32 33 35 38 39 40 41 42 41 40 39 37 35 34 32 31 31 30 30 30 29 29 29 29 30 31 31 31 31 31
6 6 6 7 8 9 11 14 16 18 21 22 24 27 29 31 32 33 34 35 36 38 40 41 43 44 44 44 43 42 41 40 39 38 37 37 37 36 36 35 34 33 32 32 33 33 33 33 33
8 8 8 8 9 10 12 15 16 19 21 23 26 29 31 32 34 35 36 37 38 39 41 42 43 44 45 46 46 46 45 45 44 43 43 43 43 43 43 42 40 39 38 37 37 36 36 37 36
10 11 11 12 12 13 15 17 19 22 24 27 29 31 33 34 36 36 37 37 38 39 41 42 43 44 45 47 48 49 49 49 48 48 48 48 49 49 49 49 48 47 45 43 42 41 41 41 40
11 12 13 15 15 17 18 21 23 25 28 31 33 34 35 37 37 38 39 40 41 42 43 43 43 43 44 44 45 47 48 48 49 49 50 51 52 53 54 55 55 54 53 51 49 47 46 45 45
13 14 16 17 19 20 21 22 24 27 30 33 35 36 37 39 41 42 44 46 47 48 47 46 44 43 43 42 41 41 42 44 45 47 48 50 53 55 57 59 60 60 60 58 57 55 53 51 49
14 15 16 18 19 21 23 25 27 30 32 34 36 38 40 42 44 47 49 51 51 51 51 49 48 47 46 45 44 44 44 46 47 48 48 50 52 54 57 60 62 64 65 65 64 63 61 58 56
13 15 16 17 19 22 25 27 29 31 33 35 37 40 43 46 48 50 52 52 52 52 51 51 50 50 50 50 50 51 51 52 52 51 51 51 53 55 57 60 64 66 68 69 69 69 68 65 63

GEFSSGP_500_meanwind_030.txt.gz
Wind_Speed
3 3 3 3 4 6 6 6 7 6 7 6 5 5 4 3 4 4 5 5 6 5 5 5 4 5 6 7 8 9 10 9 9 9 8 8 7 6 6 5 5 4 4 4 4 5 5 3 3
6 6 5 5 4 6 7 7 8 8 9 9 8 8 7 6 5 5 5 6 6 6 6 5 5 5 6 7 8 10 10 10 10 10 10 10 9 9 8 8 8 7 7 6 5 5 5 4 2
9 8 8 7 6 8 9 9 10 11 11 11 11 10 9 8 6 6 6 7 7 6 6 6 6 6 7 7 8 9 10 11 11 12 12 12 12 11 11 11 11 11 10 9 8 8 7 6 5
11 10 10 9 10 12 12 12 12 12 13 13 13 12 11 9 8 7 7 7 7 7 7 6 6 7 7 8 9 10 11 12 13 14 14 15 15 14 14 14 14 14 14 13 12 11 11 10 9
12 12 11 11 15 15 15 14 14 13 13 13 12 12 10 9 8 8 8 8 8 8 9 8 9 9 10 11 12 13 14 15 15 16 17 17 18 18 18 18 17 17 17 17 16 16 15 14 13
14 13 12 13 18 17 18 16 15 14 13 12 11 11 10 10 10 10 10 10 10 11 11 11 12 13 14 15 16 17 18 19 20 20 21 21 22 22 22 22 21 21 20 20 20 19 19 18 17
16 15 17 18 20 21 20 18 17 15 13 12 12 12 12 12 12 12 12 12 13 14 15 16 17 18 18 19 20 21 22 23 24 25 25 25 26 27 27 26 25 25 24 23 22 22 22 22 21
17 17 18 21 21 23 22 21 19 17 15 14 13 14 14 14 14 14 14 15 16 17 19 20 21 22 23 24 25 26 27 27 27 28 28 28 29 30 30 30 29 28 27 26 25 25 25 25 25
18 18 19 22 23 24 25 24 22 20 18 17 15 15 16 16 16 16 17 18 19 20 22 23 25 26 27 28 28 29 30 31 31 31 31 32 32 32 32 32 32 31 30 28 27 27 26 26 27
20 19 21 22 23 25 27 26 25 24 23 21 19 18 17 17 18 19 20 21 22 24 25 26 28 29 30 31 32 32 33 33 34 34 34 35 34 34 34 34 34 33 31 31 30 29 28 27 28
22 22 22 22 24 24 27 28 27 27 26 25 23 22 21 21 21 22 23 24 25 27 28 29 29 30 31 32 34 34 32 32 31 31 32 33 34 35 36 36 36 35 33 33 32 31 29 28 28
22 23 23 23 24 24 25 27 28 29 28 28 28 27 26 24 24 25 25 26 27 29 29 30 32 31 32 33 33 31 29 30 30 30 32 33 34 35 37 38 38 37 35 34 33 32 30 29 28
21 22 23 23 23 23 24 25 27 28 29 30 30 30 29 28 27 27 28 28 30 31 31 32 33 34 34 33 31 31 29 29 31 30 32 34 35 36 38 39 39 38 37 36 34 32 31 30 29
20 20 20 21 21 22 22 23 24 26 27 28 30 30 30 29 29 29 30 31 32 33 33 34 35 35 35 35 34 31 31 31 30 30 32 33 35 37 39 41 41 40 39 38 36 34 32 30 29
17 18 19 20 20 21 21 21 22 22 23 25 26 27 28 29 29 30 31 32 32 33 34 35 36 38 37 37 36 33 31 31 30 31 31 33 35 37 38 39 40 40 39 37 36 35 34 32 30
15 14 16 18 18 19 19 20 20 20 21 22 23 25 26 28 28 29 30 31 32 34 35 37 38 40 40 39 37 34 32 31 31 30 30 32 33 34 35 36 38 40 39 37 36 35 34 33 32
9 8 13 16 17 18 18 19 20 19 19 19 20 21 22 23 25 26 28 30 32 34 36 38 39 40 39 38 36 34 32 32 31 31 31 31 31 30 31 34 37 39 39 38 37 35 34 33 33
8 8 12 15 16 17 18 19 20 19 19 19 19 19 20 21 23 26 28 31 34 36 37 38 38 37 37 35 34 32 32 32 32 32 31 30 29 27 27 30 35 37 38 38 37 36 35 34 34
9 8 10 13 14 15 17 18 18 18 17 17 18 19 21 23 25 28 30 33 34 36 36 36 36 35 34 33 33 33 33 33 33 33 31 30 27 25 23 26 31 35 38 38 37 36 35 35 34
7 7 10 12 13 14 15 16 16 16 17 17 19 20 22 25 27 29 31 32 34 34 34 35 35 35 35 34 34 35 35 35 35 34 33 31 28 26 23 23 26 32 36 36 36 36 36 35 35
7 6 10 11 11 11 12 13 13 15 16 17 19 20 22 24 26 28 30 32 33 33 34 35 36 37 37 37 37 37 37 37 37 37 35 34 32 29 27 25 26 28 33 35 35 35 35 35 35
7 8 9 10 10 10 9 13 13 15 16 18 20 22 23 25 27 29 32 34 35 36 36 37 38 39 39 40 40 41 41 41 40 39 39 37 36 34 32 29 29 29 31 33 33 33 35 35 35
8 7 8 9 9 10 10 12 16 16 19 20 22 24 26 28 30 32 34 35 36 37 38 39 39 41 42 42 43 44 44 44 43 42 41 40 39 38 37 36 34 34 34 35 34 34 36 37 37
6 7 8 10 11 12 14 14 19 18 20 23 24 26 28 30 32 34 34 35 36 37 39 40 41 42 44 45 46 46 46 46 46 45 45 44 43 42 42 42 41 40 40 39 39 38 38 38 38
7 8 9 11 11 14 19 18 19 20 22 24 26 28 29 31 32 33 34 35 37 38 40 41 42 43 44 45 45 45 45 45 45 45 45 45 46 46 47 47 47 47 47 46 44 43 42 41 41
8 8 9 10 12 16 20 19 19 21 22 24 25 28 29 31 33 34 35 37 38 39 40 41 42 42 42 42 42 42 42 42 42 43 44 44 45 47 49 50 51 52 52 52 51 50 48 46 45
9 9 10 11 13 13 17 18 18 21 23 24 26 28 29 31 33 35 37 38 40 40 41 41 41 40 40 40 40 39 40 40 40 41 42 44 46 47 49 51 54 55 56 56 56 55 54 52 50
8 9 9 8 10 11 16 19 20 21 23 25 27 28 30 32 35 37 38 40 41 41 41 40 40 40 39 39 39 39 40 41 42 44 45 46 48 49 49 50 52 55 58 60 61 61 60 59 56
6 7 7 8 10 12 13 19 20 22 24 26 28 30 32 34 36 37 39 40 41 41 41 40 40 40 39 39 39 40 42 44 45 47 48 49 51 52 53 54 54 55 57 60 62 64 65 64 63
7 7 8 10 12 13 15 19 20 22 24 27 29 31 33 35 37 39 40 41 42 41 41 41 41 40 39 40 41 42 44 46 48 50 51 53 54 55 57 59 60 60 60 62 63 65 67 67 68

GEFSSGP_500_meanwind_036.txt.gz
Wind_Speed
6 7 7 7 8 8 9 6 7 5 7 8 7 7 8 8 9 10 10 10 10 10 9 9 8 7 7 7 7 7 8 9 10 11 12 12 13 14 15 14 14 13 12 11 10 9 8 8 7
5 5 5 6 9 13 10 8 10 10 11 10 10 10 10 10 10 10 9 9 9 9 9 8 7 7 7 7 7 8 9 10 10 11 12 12 13 14 15 16 16 15 14 13 12 11 10 9 8
5 4 5 5 10 8 9 14 12 11 13 12 12 12 11 11 11 10 10 9 9 9 8 7 7 7 7 8 8 9 10 10 11 12 13 13 14 15 16 17 17 17 17 16 15 14 13 11 10
5 3 4 6 7 8 12 14 12 10 11 12 12 14 12 12 12 11 11 10 10 9 8 8 7 8 9 10 11 12 13 13 14 14 15 16 16 17 17 18 19 19 19 18 17 16 16 15 14
7 2 2 9 6 9 14 16 12 9 12 12 15 15 13 13 12 13 13 12 12 11 10 10 10 11 12 13 14 15 17 18 18 19 19 19 20 21 21 21 21 21 21 21 20 19 19 18 18
9 5 1 3 7 10 12 13 9 11 11 11 14 17 14 13 13 14 14 14 13 13 14 14 14 14 15 16 18 19 20 21 22 23 23 24 24 24 25 24 24 24 23 23 22 22 21 21 21
12 10 5 6 7 14 17 14 11 12 14 12 14 18 16 12 13 15 15 16 16 15 16 17 17 18 18 20 21 22 22 24 25 26 27 27 27 27 28 28 27 27 26 25 25 24 24 24 24
14 12 7 4 7 14 17 16 16 16 17 18 20 21 17 14 15 16 16 17 19 19 19 20 20 21 21 22 22 23 24 25 26 27 28 29 29 29 30 30 30 30 29 28 27 26 26 26 26
15 12 6 2 11 17 20 21 19 18 19 21 20 20 19 17 17 18 18 19 21 22 22 23 23 23 23 24 24 25 25 26 27 28 29 29 30 30 31 31 31 31 31 31 30 29 28 28 27
15 13 7 8 20 26 26 26 23 20 23 24 22 20 21 21 20 21 21 22 23 25 25 25 26 26 26 26 26 27 27 28 29 29 30 29 30 30 31 31 31 32 33 32 32 32 31 30 29
17 16 14 17 23 27 27 23 23 23 26 27 26 25 25 24 24 24 25 25 25 26 27 27 28 28 29 29 29 29 30 30 30 31 31 30 31 31 32 32 31 31 33 33 33 34 33 32 32
19 18 19 22 23 25 23 21 23 24 26 27 27 27 27 27 27 27 27 28 28 28 29 30 29 30 31 32 32 32 32 34 34 34 33 33 32 32 32 32 31 31 33 35 34 34 34 34 33
19 19 20 22 23 23 22 22 23 24 24 24 25 27 28 29 30 30 31 31 31 31 31 32 32 32 33 34 35 34 35 36 37 37 36 35 33 32 33 33 34 33 34 35 35 36 35 34 34
18 18 19 21 20 21 20 21 22 21 22 23 25 27 28 29 30 31 32 32 33 32 33 34 34 34 35 36 36 36 37 38 39 39 38 37 34 33 33 33 34 33 34 35 34 35 36 36 34
15 15 16 17 19 19 19 20 20 20 21 22 23 25 26 27 28 30 31 32 33 33 34 34 34 35 36 37 37 38 39 39 39 39 38 37 36 34 34 34 34 34 35 36 36 35 36 37 36
7 8 12 19 17 14 15 19 20 20 20 21 21 23 24 25 26 27 29 30 31 32 32 34 35 36 37 38 39 40 39 39 38 37 36 36 36 35 34 33 33 34 35 35 35 35 35 36 37
5 12 22 27 16 10 13 20 21 21 21 20 20 20 21 21 22 23 25 26 27 29 31 33 35 37 38 39 40 39 39 39 38 37 36 35 35 35 34 34 34 34 34 33 32 33 34 34 35
18 22 24 20 8 9 16 22 22 22 21 20 19 18 18 18 19 21 23 24 26 28 31 33 35 36 38 38 38 38 38 38 38 36 35 35 36 36 35 35 34 34 33 31 31 33 33 33 34
10 11 12 7 10 14 20 23 22 21 20 18 17 17 17 18 20 22 23 25 27 29 31 32 34 36 37 37 37 37 37 37 38 36 36 36 36 37 37 36 36 35 33 32 31 31 32 33 33
10 11 14 18 20 20 19 19 18 16 15 15 16 16 17 18 20 22 23 25 27 29 31 32 34 35 36 36 36 36 37 37 38 38 37 37 37 38 38 38 37 36 35 34 32 31 31 31 33
11 15 18 19 18 15 13 15 13 11 11 12 14 15 17 19 20 22 24 26 29 30 32 33 34 35 36 37 37 37 38 38 39 39 39 38 39 40 41 40 40 39 37 36 34 32 32 32 32
13 15 15 13 15 12 15 19 13 8 8 12 15 18 20 21 22 24 26 28 30 31 33 33 34 35 37 38 39 39 40 40 40 41 41 41 41 41 41 42 42 42 40 38 37 35 35 34 33
10 11 12 14 16 19 24 22 12 10 11 15 17 20 21 22 24 25 27 28 30 32 33 35 35 36 37 39 40 41 41 41 42 42 42 41 41 42 42 42 42 43 43 41 40 39 38 37 36
8 10 14 18 21 23 21 16 10 11 17 20 20 21 22 23 24 26 27 29 30 32 34 35 37 37 39 40 41 42 41 41 41 41 41 41 41 42 42 41 41 41 42 42 42 41 40 40 39
6 8 15 21 24 22 17 14 11 15 21 23 24 24 24 25 26 27 28 30 32 34 35 36 37 38 40 40 41 41 41 40 40 40 41 41 41 41 42 41 40 40 40 41 42 43 43 43 42
7 8 13 17 21 25 19 17 18 19 20 21 23 24 25 26 27 29 30 32 33 34 36 37 38 39 40 40 40 40 40 40 40 40 41 41 41 41 41 42 42 41 41 42 42 43 44 44 44
8 8 10 10 12 16 20 21 20 20 20 21 23 24 25 27 28 30 31 33 34 36 37 38 39 39 40 40 39 40 40 40 40 40 41 41 41 41 42 43 44 44 45 45 45 45 45 46 47
9 8 7 4 8 8 13 20 21 22 22 23 24 25 27 28 30 31 32 34 36 37 38 39 40 40 40 40 40 40 40 40 40 40 41 41 42 42 43 45 46 48 49 49 49 50 49 49 50
9 9 8 6 7 6 9 22 22 22 23 24 26 27 29 30 31 32 34 35 37 38 40 41 41 41 41 40 40 40 40 40 40 41 42 42 43 44 46 47 49 50 52 53 54 55 55 54 54
10 10 10 10 10 9 9 22 23 23 24 26 27 28 29 31 32 34 35 37 38 40 41 42 42 42 42 42 42 41 41 40 40 41 42 43 44 46 48 50 52 53 55 57 59 60 60 60 59

GEFSSGP_500_meanwind_042.txt.gz
Wind_Speed
4 5 6 6 6 5 6 10 12 12 10 7 6 7 7 6 6 6 7 6 6 5 5 5 5 5 5 5 5 5 6 6 7 7 7 8 8 9 9 9 10 10 11 12 12 13 13 13 12
2 2 4 5 4 4 6 10 13 14 12 9 7 7 7 7 6 6 6 7 6 5 5 5 5 6 6 6 6 6 7 8 8 8 9 9 9 10 10 10 10 11 11 12 12 13 13 13 12
3 2 2 2 1 4 7 10 13 14 14 12 11 10 9 8 7 7 7 7 6 6 6 6 6 6 7 7 7 8 9 10 10 10 11 11 12 12 12 12 12 12 12 13 13 13 13 13 13
5 3 1 2 1 3 6 9 13 15 16 16 15 12 10 9 8 8 8 8 6 6 7 7 7 8 8 9 9 10 11 12 12 12 13 13 14 15 16 16 16 15 15 14 14 14 14 14 14
7 5 4 5 3 3 5 8 14 18 20 19 17 14 12 9 8 8 9 8 7 8 8 9 9 9 10 11 12 13 13 14 14 14 15 16 16 17 18 18 18 18 18 18 17 16 16 16 16
9 7 6 6 5 3 4 10 16 21 23 22 19 18 16 11 8 8 9 9 9 9 10 11 11 12 13 14 15 15 16 16 17 17 17 18 18 19 19 20 20 20 20 20 20 19 19 19 18
11 8 7 7 6 5 7 13 19 23 25 25 24 23 17 14 11 9 10 11 11 11 11 12 14 14 15 16 17 17 18 18 19 19 19 20 20 20 21 21 21 21 21 21 21 22 22 21 21
12 9 11 13 10 7 9 16 22 25 28 27 27 24 21 19 15 12 11 12 12 12 13 14 15 16 17 17 18 19 19 20 20 21 21 21 21 22 22 22 22 22 22 22 22 23 24 24 23
14 12 16 18 15 13 14 18 24 27 29 29 29 28 25 21 19 16 14 14 15 15 16 16 17 18 19 20 20 20 21 21 22 22 23 24 24 24 25 25 24 23 23 24 24 24 25 25 25
16 16 21 22 21 18 18 21 26 29 31 32 32 31 27 25 24 21 19 17 17 17 18 19 20 21 21 22 23 23 24 24 24 25 25 26 27 27 27 27 26 26 26 25 25 25 26 25 26
18 19 25 26 24 21 21 24 28 32 34 35 34 31 28 27 26 23 23 22 20 20 21 22 23 24 24 25 25 26 27 27 27 28 28 29 30 30 29 29 30 29 29 28 28 26 25 26 26
20 23 27 28 26 24 25 26 29 32 34 35 34 32 29 28 27 25 26 24 22 22 23 24 25 26 27 27 27 28 29 30 30 30 30 31 31 31 31 32 31 30 30 30 31 30 28 27 28
23 25 29 29 28 26 26 27 29 31 31 32 32 31 29 27 26 27 27 27 26 26 27 28 28 29 29 28 29 29 30 31 32 32 32 32 32 33 33 33 33 33 32 32 31 30 30 28 28
23 25 28 29 28 27 26 26 27 27 26 27 27 28 27 26 25 26 27 27 28 29 29 29 30 30 30 30 31 32 33 33 34 34 34 34 34 34 34 33 33 33 33 33 31 31 30 29 28
22 23 24 27 27 26 25 25 24 24 23 24 24 24 25 25 25 25 26 26 27 28 28 28 29 29 30 30 32 33 34 35 36 36 36 36 36 35 34 33 33 34 34 34 33 32 31 30 30
20 21 22 23 24 24 23 21 21 22 22 22 22 23 23 23 23 24 24 24 25 25 25 26 27 28 29 31 32 34 35 36 36 37 38 38 37 36 35 35 34 34 34 33 33 33 33 32 30
17 17 18 19 21 21 21 21 20 21 21 20 20 20 20 21 21 21 22 22 23 24 25 26 27 29 31 33 34 35 36 37 38 38 38 37 37 37 36 36 35 34 34 34 33 33 32 31 31
10 10 11 16 18 21 20 21 21 20 20 18 16 15 17 18 18 19 20 21 23 24 26 28 29 31 33 34 35 36 37 38 39 38 38 37 37 37 37 36 35 35 34 34 33 33 33 32 31
8 8 9 12 15 17 19 20 20 20 20 18 13 12 14 15 16 18 19 21 23 24 26 28 30 32 33 35 35 36 37 38 38 38 37 37 36 37 37 37 37 36 35 35 34 34 33 33 32
6 7 7 10 12 13 14 16 17 15 12 11 9 8 9 12 15 17 18 20 22 24 26 28 30 31 33 34 35 35 36 36 37 37 37 37 37 36 36 36 36 36 36 36 35 35 35 34 33
6 8 9 12 13 14 16 16 17 12 9 7 5 5 8 11 13 16 17 19 20 22 24 26 28 30 31 33 34 34 35 35 36 36 36 36 36 35 35 35 35 36 36 36 36 35 35 34 33
9 10 11 12 14 15 16 16 15 9 5 2 2 3 6 9 12 14 16 17 19 21 22 24 26 28 30 31 32 33 34 35 36 36 36 36 36 35 35 34 34 34 34 34 34 35 35 34 34
8 8 9 11 12 14 15 15 13 7 6 4 3 4 6 8 11 14 16 18 20 21 23 24 26 27 29 30 32 33 34 34 35 35 35 35 35 35 34 33 32 32 32 33 33 33 34 34 34
8 8 9 9 10 11 12 12 14 9 8 7 7 8 9 11 13 15 17 19 21 23 24 26 27 29 30 32 33 34 34 35 35 35 35 35 36 36 36 34 33 32 32 33 33 32 32 33 34
8 8 8 7 7 8 9 10 13 11 9 8 9 10 12 14 16 18 20 22 24 26 28 29 31 32 33 34 35 36 36 36 36 36 37 37 37 38 38 37 36 35 34 33 33 33 33 33 33
5 8 8 7 7 8 8 10 12 12 11 11 12 14 17 19 20 22 24 26 28 30 31 33 34 35 36 37 37 37 38 38 38 38 38 39 39 39 40 40 40 39 37 36 35 34 34 34 34
5 6 6 6 7 8 7 9 11 12 13 14 17 19 21 22 24 25 28 30 31 33 35 36 37 37 37 38 38 38 38 38 39 39 39 39 40 40 41 41 41 41 40 39 39 38 37 36 36
7 7 6 5 7 8 10 11 14 14 15 17 19 21 23 24 26 28 31 33 34 36 37 38 38 39 39 38 38 38 39 39 39 40 40 40 41 41 41 41 41 42 42 41 41 41 41 40 39
7 7 7 7 9 12 15 16 16 16 17 19 21 23 25 27 29 30 33 35 36 37 38 38 39 39 39 39 39 40 40 40 40 41 41 41 41 41 41 41 42 42 42 43 43 43 44 44 43
9 9 8 9 12 15 17 17 17 18 20 21 23 24 26 27 29 32 34 36 36 37 38 39 39 39 39 39 40 41 41 42 42 42 42 42 41 41 41 41 41 41 42 43 44 45 46 47 47

GEFSSGP_500_meanwind_048.txt.gz
Wind_Speed
4 2 2 2 0 0 1 3 5 7 8 9 10 10 11 11 11 9 8 7 7 7 7 6 6 5 6 6 6 6 6 6 6 6 6 5 6 6 6 7 7 8 8 8 8 7 7 7 7
6 5 5 5 4 4 2 2 4 6 7 8 10 12 12 12 12 11 9 8 7 7 6 5 5 5 5 6 6 6 6 7 7 8 7 7 8 8 8 8 9 10 10 10 11 10 9 7 7
9 8 8 8 9 8 7 5 3 4 5 8 10 12 13 14 13 11 10 8 7 6 6 5 5 5 5 6 6 7 8 8 9 9 9 9 10 10 10 11 12 12 12 12 13 13 12 10 9
10 10 11 11 12 11 9 8 6 4 5 8 10 12 14 15 15 12 10 8 7 7 6 6 7 7 7 7 8 9 10 10 10 10 11 11 12 13 13 13 14 14 14 14 14 15 15 14 12
12 13 13 15 15 13 11 10 8 6 6 7 9 12 15 15 15 14 12 9 9 9 9 8 8 8 8 9 10 11 11 11 12 12 13 14 14 14 14 15 15 15 15 16 16 17 17 17 15
14 15 16 17 17 15 14 12 11 8 7 8 10 13 15 16 16 14 13 11 11 11 11 11 10 10 10 11 12 13 13 13 13 14 14 14 14 15 15 15 16 16 17 17 18 19 19 19 19
16 17 18 20 20 18 16 14 13 10 9 11 12 14 16 18 16 15 14 13 13 13 13 12 12 12 13 13 14 14 14 15 15 15 15 15 15 16 16 17 17 18 18 18 19 20 21 21 21
18 18 21 23 23 22 19 17 16 13 11 12 14 16 18 19 18 17 16 15 15 16 16 15 15 15 15 16 16 16 16 17 17 17 17 17 17 18 18 19 19 20 20 20 21 22 22 23 23
20 20 23 26 26 24 22 20 19 17 14 13 16 19 20 20 19 19 18 17 18 19 19 18 18 18 19 19 18 19 19 20 19 19 19 20 20 21 21 22 22 22 22 22 23 24 24 24 25
22 21 25 29 29 27 24 23 22 19 17 17 19 22 22 21 21 20 20 20 21 21 21 21 21 20 21 21 22 22 23 22 22 21 21 22 22 23 24 24 25 24 24 24 24 24 25 25 26
24 24 29 32 32 30 27 26 25 24 22 22 22 23 23 23 23 22 21 20 21 21 22 22 23 23 24 24 25 25 25 25 24 24 23 24 25 25 26 26 27 27 26 26 26 27 26 27 27
27 27 31 34 34 32 30 29 28 27 26 26 26 25 25 25 24 23 22 20 20 20 22 23 24 24 24 26 26 27 27 26 26 25 25 26 27 27 27 27 28 28 28 28 28 28 28 28 27
27 27 30 34 35 34 32 31 31 29 29 29 28 27 27 26 25 22 21 20 19 20 21 22 23 24 25 26 26 27 27 27 26 26 27 28 29 29 29 29 29 29 30 30 30 29 29 28 28
25 26 29 32 34 34 34 32 32 31 31 31 29 29 28 27 25 23 21 19 19 19 20 21 22 23 24 25 25 25 26 27 28 28 29 30 30 31 31 31 31 31 31 31 30 30 29 29 29
22 23 26 29 31 33 33 32 32 31 31 31 30 30 29 27 24 23 21 18 18 18 19 20 21 22 23 24 25 26 27 27 28 29 30 31 31 32 32 32 32 32 32 31 31 31 30 30 30
18 19 22 24 28 30 31 30 30 30 31 31 30 30 28 26 24 22 20 18 18 18 19 20 22 23 24 25 26 27 28 29 30 30 31 31 32 32 33 33 32 32 32 32 32 31 31 30 30
14 16 18 20 22 25 27 28 28 29 30 30 29 28 27 26 23 21 19 17 17 18 19 20 22 23 24 25 26 27 28 29 30 31 31 32 33 33 33 33 33 33 33 33 32 32 31 31 30
12 14 15 16 18 20 22 24 26 27 27 27 27 26 25 23 21 19 17 17 17 18 19 20 22 23 25 26 27 28 29 30 30 31 32 33 33 33 33 33 33 33 33 33 33 33 33 32 31
8 10 11 12 14 16 17 18 20 22 23 23 24 24 22 20 18 16 15 16 17 18 20 21 23 24 25 27 28 29 30 31 31 32 32 32 33 33 33 33 33 34 34 34 34 33 33 32 32
5 6 7 7 9 11 12 14 16 17 18 19 18 16 16 15 14 13 14 16 17 19 20 22 23 25 26 28 29 30 31 32 33 33 33 33 32 32 32 33 33 33 34 34 34 34 33 33 33
3 2 3 3 4 5 6 8 10 11 12 12 11 10 10 9 9 11 13 15 17 19 20 22 23 25 27 29 30 31 32 33 33 34 34 33 32 32 32 32 32 32 32 33 33 34 34 35 34
2 2 1 1 2 3 4 4 4 4 3 4 4 4 5 6 8 11 13 15 17 18 20 22 24 26 27 29 30 31 31 32 33 33 33 33 32 31 31 31 31 31 31 32 32 33 33 34 35
3 3 2 2 2 2 3 4 4 2 0 1 2 3 4 6 8 10 13 15 17 19 21 22 24 25 27 28 28 29 30 30 31 31 31 31 31 31 30 30 31 31 31 32 32 33 33 33 34
4 3 3 2 2 1 3 4 5 4 2 1 2 3 5 7 9 11 14 16 17 19 20 21 23 24 25 26 27 28 28 28 29 29 30 30 31 31 31 31 31 32 32 33 33 34 34 34 34
4 4 3 3 1 1 1 3 4 4 3 3 4 5 7 9 10 12 14 15 16 18 19 21 22 24 25 26 27 27 27 28 29 29 30 30 31 32 33 33 33 34 34 35 35 35 36 36 36
5 5 5 4 3 2 1 2 3 4 5 6 6 7 8 9 11 12 13 15 16 18 20 21 23 25 26 27 27 27 28 29 29 30 30 31 32 33 34 35 36 37 37 37 37 37 37 38 38
5 5 5 5 4 2 1 2 4 6 7 7 8 8 9 10 11 12 14 15 17 19 21 23 24 26 27 28 28 28 29 29 30 31 31 32 34 35 36 37 37 38 38 38 38 38 38 39 39
5 6 6 5 5 4 2 3 5 7 8 8 9 10 11 11 12 13 14 16 19 21 23 25 26 27 29 29 30 30 30 31 32 33 34 35 37 38 38 39 39 39 38 38 38 38 38 38 39
7 8 8 7 6 6 4 5 6 7 8 10 11 11 12 12 13 14 16 19 21 24 26 27 28 29 30 31 31 32 33 34 35 36 37 38 39 40 40 39 39 39 38 38 37 37 37 37 37
8 9 9 8 8 7 7 7 7 8 10 11 12 13 13 14 15 17 19 22 24 26 27 29 30 31 32 33 33 34 35 36 37 38 39 41 41 41 41 40 39 39 38 37 36 36 36 36 37

GEFSSGP_500_meanwind_054.txt.gz
Wind_Speed
7 5 4 2 2 2 3 2 2 1 1 2 2 4 5 5 5 5 4 4 4 4 4 3 2 2 2 3 3 3 3 2 2 2 2 2 2 2 1 2 2 3 3 4 4 4 3 3 2
9 8 7 6 4 4 6 5 4 2 1 1 1 2 3 4 5 5 4 4 5 4 4 3 3 3 4 4 4 4 4 4 4 4 4 4 4 4 4 4 4 5 5 6 6 6 6 5 4
11 10 10 10 8 8 9 7 6 4 3 2 1 1 2 3 4 5 4 4 4 5 5 5 5 6 6 6 7 7 7 7 7 7 6 6 6 6 6 6 7 7 7 7 8 8 8 7 7
13 14 13 13 13 12 11 9 8 8 5 4 3 2 2 3 4 4 4 5 5 5 6 7 8 9 9 9 9 9 10 9 9 9 9 9 9 9 8 8 8 8 8 8 9 9 10 10 9
16 16 16 16 17 16 14 12 11 10 9 7 6 5 4 3 4 5 6 6 6 7 9 10 11 11 11 11 11 11 12 11 11 11 11 11 11 10 10 9 9 9 9 9 10 10 11 11 12
18 18 18 18 21 19 17 15 14 13 12 10 8 7 6 5 5 6 7 8 9 10 11 13 13 14 14 14 13 13 14 13 13 13 13 13 12 12 12 11 10 10 10 11 11 12 12 11 12
20 21 22 23 24 23 20 17 16 15 14 12 10 9 8 7 7 9 10 11 11 13 14 15 15 16 16 16 16 16 16 16 16 16 15 15 15 14 14 13 12 12 12 12 13 13 13 13 13
22 23 24 26 27 27 23 20 18 17 17 16 13 11 10 9 10 11 13 13 14 15 16 17 18 19 19 19 19 19 19 20 19 19 19 18 17 17 16 15 14 14 14 14 14 15 15 15 15
25 24 25 27 29 29 25 23 21 20 20 19 17 15 13 12 13 14 15 15 16 17 18 19 20 21 21 22 21 21 21 22 22 22 22 22 20 19 18 18 17 16 16 16 16 17 17 17 17
26 26 28 30 30 29 27 24 23 22 22 21 20 17 15 16 16 17 18 18 18 19 20 21 22 22 22 23 23 23 23 23 24 24 24 23 22 21 20 19 19 19 19 19 19 19 20 19 19
25 27 29 30 30 29 27 25 23 22 23 22 21 19 19 19 20 20 19 20 20 21 21 21 22 22 22 23 23 24 24 23 24 24 23 22 21 20 20 19 20 20 20 21 20 21 21 21 21
21 24 27 28 29 27 26 25 24 24 24 23 23 22 21 22 22 21 21 22 22 21 21 22 21 22 22 22 22 22 22 22 22 20 20 20 20 20 21 22 21 22 22 22 22 23 23 23 23
14 18 22 24 25 25 24 23 23 24 24 24 24 23 23 23 23 23 23 23 22 22 21 20 20 21 20 20 20 20 20 20 20 21 21 22 22 22 23 23 23 23 24 24 24 25 25 25 25
9 11 15 18 19 21 21 22 22 22 22 23 23 23 23 24 23 23 23 22 21 21 20 18 18 18 18 18 18 18 19 20 21 21 21 22 22 22 23 23 24 24 25 25 26 26 26 26 26
7 7 9 11 13 16 18 19 20 21 20 21 22 23 23 24 23 22 22 21 20 19 18 17 16 17 17 17 18 18 19 19 19 20 20 21 21 22 24 24 24 24 25 26 26 27 27 27 27
7 5 6 7 9 11 14 17 19 20 21 22 23 24 25 24 23 22 21 19 18 16 15 14 15 15 15 16 17 17 17 18 19 20 20 21 22 23 23 24 24 24 25 25 26 27 27 27 27
9 5 5 7 7 9 12 15 17 19 21 21 23 24 25 24 22 20 19 17 14 13 12 12 12 13 14 15 16 17 17 18 20 20 21 22 22 23 24 24 24 24 25 25 25 26 26 27 27
6 6 7 7 6 9 11 14 16 17 19 21 22 23 23 22 19 17 16 13 11 10 10 10 11 13 14 15 16 17 18 19 20 21 21 22 22 23 24 24 24 25 25 25 25 26 26 27 27
7 6 7 7 6 8 11 13 14 16 18 19 19 20 19 17 16 14 12 11 9 9 9 10 11 12 14 15 17 18 19 20 21 21 22 22 23 23 23 24 24 24 25 25 25 25 26 26 26
7 7 8 7 6 8 10 13 14 15 16 16 16 16 15 14 13 10 9 7 7 8 9 10 12 13 15 17 19 20 21 22 22 22 22 23 23 23 23 23 23 24 24 24 25 25 25 25 26
7 6 7 7 7 8 10 11 11 12 11 11 11 11 10 8 8 7 6 5 7 8 10 12 13 15 17 19 20 21 22 23 23 23 22 22 23 23 23 23 23 23 24 24 24 25 25 26 26
6 7 6 7 8 8 9 9 8 8 7 6 5 5 4 3 4 4 4 5 7 9 11 13 15 17 18 19 21 21 22 22 22 22 22 22 22 22 22 22 22 23 23 24 24 25 26 26 27
7 7 7 6 6 7 8 8 8 6 6 5 4 3 4 4 3 3 5 7 9 11 13 15 17 18 18 19 20 20 20 21 21 21 21 21 20 20 20 21 21 22 23 24 25 26 27 27 28
7 7 6 6 6 7 7 6 7 7 6 6 5 5 4 4 5 5 7 9 10 12 14 15 17 18 19 19 19 20 20 20 21 21 21 21 21 20 20 21 21 22 23 24 26 27 28 29 30
6 5 6 7 7 8 7 6 6 6 6 6 7 7 6 6 7 8 9 11 11 13 14 16 17 18 19 19 19 20 20 20 20 21 21 22 22 22 22 23 23 24 25 26 27 28 30 31 32
5 3 2 2 5 7 7 7 7 6 6 7 7 8 8 8 10 11 12 12 13 14 15 17 17 18 18 19 19 20 21 21 21 22 22 23 23 24 25 26 26 27 27 28 29 30 31 32 34
5 4 4 4 5 6 8 9 9 8 8 8 8 8 9 10 11 12 13 13 14 15 16 17 17 18 19 20 20 21 21 22 23 23 24 24 25 26 26 28 29 30 31 31 32 32 33 34 34
6 5 5 4 3 5 9 10 11 10 9 9 9 9 10 11 12 13 13 14 15 15 16 17 18 19 20 21 22 22 23 24 25 25 26 27 27 28 29 30 31 33 33 34 34 34 34 34 35
8 7 6 6 6 3 6 10 11 11 10 10 10 10 11 12 13 14 15 15 15 16 17 18 19 20 21 22 23 24 25 25 26 27 28 29 30 31 31 33 34 35 36 36 36 36 35 35 36
10 10 9 7 9 9 7 11 13 11 10 10 11 11 12 13 14 14 15 15 16 17 18 19 20 21 22 24 25 26 27 28 29 29 30 31 32 33 35 36 37 38 38 38 38 38 37 37 37

GEFSSGP_500_meanwind_060.txt.gz
Wind_Speed
7 7 5 4 6 6 2 2 2 7 8 7 7 9 7 7 6 5 4 4 3 3 2 2 2 3 3 4 4 5 5 6 7 7 7 7 8 7 7 7 7 7 7 7 7 6 6 5 5
7 7 7 6 8 11 8 2 4 8 9 9 9 8 7 6 6 5 4 3 3 3 3 3 3 4 4 5 6 7 7 8 8 8 9 9 9 9 9 9 10 10 9 9 8 8 7 6 6
9 9 9 8 9 13 12 7 9 11 11 11 10 9 8 7 6 5 4 4 3 3 4 4 5 5 6 7 8 9 9 9 10 10 10 11 11 11 11 11 11 11 11 10 10 9 9 8 7
13 12 11 10 8 13 12 13 14 13 13 13 13 11 9 8 7 6 5 5 5 5 5 6 6 7 8 9 10 11 12 12 11 11 11 11 11 11 11 12 12 12 11 11 11 10 10 9 9
15 14 13 12 12 18 15 15 16 16 15 14 15 12 10 8 7 6 5 6 5 6 6 7 8 10 11 12 12 13 13 13 12 12 12 12 12 13 13 14 13 13 13 12 12 12 11 10 10
18 17 15 12 14 21 20 15 17 20 19 17 16 14 10 8 7 6 6 6 6 7 8 9 11 12 13 14 14 14 14 14 14 14 14 14 15 15 15 16 16 15 15 14 13 13 13 12 11
20 20 17 14 16 22 21 18 21 21 21 20 17 14 11 8 6 6 7 8 9 10 11 12 13 14 15 16 16 16 16 16 16 16 16 16 17 18 17 18 18 18 17 16 15 15 14 14 13
21 21 19 15 16 22 24 23 23 23 23 20 18 16 13 10 7 7 8 9 10 12 13 14 15 16 17 18 18 18 19 18 19 19 19 19 20 19 19 20 20 20 19 18 17 17 16 16 15
20 21 18 13 16 22 25 25 22 24 24 25 21 16 14 11 9 10 11 12 13 14 15 16 17 18 18 19 20 20 20 21 21 22 21 21 21 20 20 20 20 20 19 19 18 18 18 18 17
17 19 16 14 19 23 26 26 24 20 23 26 22 16 13 12 12 12 13 14 15 16 16 17 18 18 19 19 21 21 22 22 21 21 20 20 18 19 18 18 18 18 19 19 19 20 20 19 19
13 15 18 21 24 26 27 25 24 22 27 28 22 15 12 13 13 14 15 15 15 16 17 18 19 20 19 19 19 21 20 20 19 19 18 18 18 18 17 17 16 17 18 18 19 21 21 21 20
11 12 18 21 26 29 29 27 26 25 28 24 18 12 11 12 15 16 17 16 16 17 17 18 19 19 18 18 18 18 18 18 17 17 17 18 17 17 17 18 18 18 18 19 19 20 21 21 21
9 11 13 16 20 23 24 24 26 27 26 19 16 13 13 14 16 18 18 18 20 19 19 19 19 18 18 18 17 17 16 16 15 16 18 18 18 18 19 18 19 19 19 19 21 21 21 22 22
6 9 10 13 13 15 17 19 22 24 21 18 15 13 12 15 17 18 19 19 19 18 19 18 17 16 15 14 15 15 15 16 16 16 18 18 18 19 19 19 20 20 21 21 22 22 22 22 22
8 8 9 11 10 10 12 17 22 21 19 17 16 14 15 17 18 20 20 19 18 18 18 17 16 15 13 13 14 14 15 16 16 16 17 18 19 20 20 20 20 21 22 22 22 23 23 23 23
11 13 13 9 8 7 10 18 20 18 16 16 16 16 17 18 20 20 19 17 17 17 17 15 14 13 12 13 13 14 15 16 16 17 17 19 20 20 21 21 21 22 22 22 22 22 22 23 23
17 19 17 13 8 8 11 16 16 14 13 12 14 16 17 18 18 18 18 17 15 14 14 12 11 11 11 12 13 13 14 15 16 17 18 19 20 21 21 22 22 22 22 22 22 22 22 22 23
18 18 17 13 9 9 12 15 12 7 8 10 13 16 17 18 17 16 15 15 13 11 11 11 10 10 10 11 12 13 14 15 16 16 18 18 19 19 20 20 21 21 21 21 21 22 22 22 22
12 13 15 13 10 9 12 13 10 3 7 10 14 15 16 15 14 14 13 13 12 10 10 10 9 9 9 10 11 12 13 14 15 15 16 17 18 18 19 19 19 19 20 20 20 20 21 22 22
11 13 14 13 11 10 11 10 8 6 6 8 10 12 12 12 12 12 11 9 9 9 9 8 7 8 9 10 11 12 13 13 14 15 15 16 17 18 18 18 18 18 18 19 19 19 19 20 21
13 14 13 13 13 11 11 10 9 6 4 5 7 8 8 8 8 8 7 7 7 6 6 6 6 7 8 9 11 12 13 14 14 15 16 17 17 18 18 18 18 18 18 18 19 19 19 19 20
14 12 10 10 11 9 8 10 10 8 5 5 4 4 5 5 5 4 4 4 4 4 5 4 5 7 8 10 12 13 14 15 16 17 17 18 19 19 19 20 20 19 19 19 19 19 19 20 20
12 10 10 10 11 11 8 9 11 11 9 7 6 5 2 0 1 1 1 1 2 2 2 4 6 7 9 11 13 14 15 16 17 18 19 19 20 20 21 21 21 21 21 21 21 21 21 21 22
8 8 11 12 11 9 11 10 11 11 10 8 7 6 4 4 3 2 1 1 1 2 4 5 7 9 11 12 14 16 17 18 19 20 21 22 22 22 22 22 22 23 23 23 23 24 24 24 24
10 9 17 20 17 14 13 9 10 11 9 7 6 5 4 4 3 3 2 2 3 4 6 7 9 11 12 14 16 17 18 20 21 22 22 23 23 23 23 23 23 24 24 25 25 26 27 27 28
9 6 12 14 14 12 8 9 12 10 9 8 7 6 5 4 4 4 4 5 6 7 8 9 11 12 14 16 17 19 20 20 21 22 23 23 24 24 24 24 25 25 25 26 27 28 29 30 31
8 5 6 8 8 7 4 9 10 10 10 10 9 8 7 7 7 7 7 7 8 9 10 11 12 14 15 17 18 20 21 22 23 23 23 24 24 25 25 25 25 26 27 28 29 30 31 32 33
8 8 6 3 6 9 9 7 10 14 15 14 11 10 9 9 9 9 10 10 10 11 12 13 14 15 17 18 19 20 21 23 24 24 24 24 25 25 26 26 27 28 29 30 31 33 34 35 35
11 8 7 6 5 6 11 10 14 18 19 18 15 13 12 12 12 12 12 13 13 13 14 14 15 17 18 19 21 22 23 24 24 24 24 25 25 26 27 28 29 31 32 33 34 35 36 37 38
13 10 10 9 8 6 8 15 15 18 21 21 19 17 16 15 16 16 15 15 15 15 15 15 17 18 19 21 22 23 24 25 25 25 25 26 26 27 28 30 32 33 35 36 37 38 39 40 40

GEFSSGP_500_meanwind_066.txt.gz
Wind_Speed
9 9 8 8 9 9 10 11 12 10 7 4 3 4 4 4 3 2 0 2 3 3 3 4 4 4 3 3 2 0 1 3 5 6 7 8 8 9 9 9 10 10 10 10 10 9 8 7 7
12 11 11 11 11 11 10 12 12 10 11 7 4 3 3 3 2 1 2 3 3 4 4 4 4 4 3 2 1 1 3 4 6 7 8 8 9 9 10 10 10 10 11 11 10 10 9 8 7
15 14 13 12 12 12 12 13 11 10 11 9 6 4 4 4 3 3 4 3 3 3 3 4 4 4 3 2 2 3 4 5 7 8 8 9 9 9 10 10 11 11 12 12 12 11 10 9 8
17 16 15 13 12 14 14 15 15 15 16 12 8 5 4 6 5 5 4 4 4 3 3 3 3 3 3 3 3 4 6 6 7 8 8 9 10 10 11 11 12 12 13 13 13 13 12 11 9
19 18 16 14 13 17 20 19 18 19 18 13 8 5 6 7 6 6 5 5 4 4 4 3 3 3 3 4 5 6 7 7 8 9 10 10 11 12 13 13 14 14 14 14 14 14 14 12 11
20 19 17 14 15 18 20 21 20 20 21 18 13 7 7 8 7 6 6 5 5 4 4 3 3 3 4 5 6 8 9 9 10 11 12 12 12 13 14 15 16 16 16 16 16 16 16 15 13
20 19 17 15 16 17 18 19 21 24 24 22 17 10 8 9 8 7 6 5 4 3 3 3 4 5 6 7 8 9 10 11 12 13 14 14 15 15 16 16 17 17 18 17 17 18 18 17 15
20 20 18 17 19 20 19 20 22 23 24 22 19 13 10 10 9 8 7 5 5 4 4 5 6 6 8 9 10 11 12 13 14 15 15 16 17 16 16 16 17 17 17 18 18 18 18 18 17
19 19 17 20 22 22 21 22 24 25 24 24 23 18 12 11 11 9 6 6 6 6 5 6 7 8 9 10 12 12 13 13 15 15 16 16 15 15 16 16 16 15 15 16 17 18 18 18 18
16 16 16 20 22 23 22 24 25 27 27 27 25 19 15 11 12 12 9 8 7 7 6 7 9 10 10 12 12 13 13 13 14 14 15 14 13 13 15 16 16 15 15 15 15 16 17 18 19
11 10 12 16 20 22 23 25 27 29 28 27 23 21 19 15 13 12 10 8 7 8 7 8 10 11 11 12 13 13 12 13 13 13 13 13 13 13 14 14 15 15 15 15 15 15 15 17 18
9 7 8 11 16 20 24 26 27 29 28 26 24 24 22 16 13 12 9 8 8 8 9 10 11 12 12 12 12 12 12 12 12 12 12 12 13 13 13 13 14 15 15 15 15 15 15 16 17
11 10 9 10 13 18 22 24 25 25 25 25 24 20 19 17 17 15 12 10 9 9 10 11 12 12 11 11 11 11 11 11 11 11 11 11 12 12 12 13 14 15 15 15 15 16 16 16 16
12 12 12 13 15 17 18 20 20 20 20 20 18 16 16 17 16 13 11 9 9 9 10 11 11 11 10 9 8 8 8 9 9 9 9 10 11 11 11 12 13 14 15 15 16 17 17 17 17
12 12 13 14 15 16 17 17 17 17 17 18 17 15 14 14 14 12 10 10 10 10 10 10 9 8 8 7 7 7 7 8 8 9 10 10 11 11 12 13 14 14 14 15 15 16 17 18 18
14 15 16 16 17 16 14 14 15 14 14 13 12 13 13 13 12 12 9 9 9 9 9 8 7 7 7 6 6 5 6 7 8 10 10 10 10 11 12 12 12 13 13 14 15 15 16 17 17
16 18 19 19 17 15 14 15 14 13 12 9 9 8 11 12 12 13 9 8 8 7 7 7 6 6 6 6 5 4 5 7 8 9 9 9 9 10 11 11 12 12 13 13 14 14 15 16 16
19 20 20 20 18 16 15 14 12 11 9 6 4 3 6 7 7 9 8 7 7 7 7 7 6 5 5 5 4 4 5 6 7 8 8 9 9 10 11 11 12 12 12 12 13 13 13 14 15
20 21 22 19 18 16 15 15 12 10 7 4 2 1 3 4 6 6 6 5 5 5 6 5 5 4 4 4 4 4 5 6 6 8 9 9 9 10 10 11 11 12 12 12 12 12 13 13 14
17 19 20 20 19 17 15 14 13 10 6 4 3 0 2 4 3 3 3 3 4 4 4 4 4 4 3 3 3 4 4 5 6 7 8 9 9 9 10 11 11 11 12 12 12 12 12 13 13
16 17 18 19 19 17 14 13 11 9 7 5 3 1 2 3 4 2 2 2 3 4 4 4 4 3 3 2 2 3 4 5 6 7 8 8 9 10 11 11 12 12 12 12 13 13 13 13 13
15 15 15 16 17 15 11 9 10 9 10 8 5 4 3 3 4 3 3 3 3 3 3 4 3 2 2 2 2 3 4 5 5 6 8 9 10 11 12 12 12 13 13 13 14 14 15 15 15
13 12 12 13 15 13 9 8 9 10 10 10 8 7 5 4 3 3 3 4 3 3 3 3 3 2 1 1 2 3 4 5 6 7 9 10 11 12 13 13 13 14 15 15 15 15 15 16 17
12 11 10 10 11 10 7 8 9 9 10 10 10 10 8 6 4 4 4 4 4 3 3 3 3 2 1 1 2 3 5 6 7 8 9 10 12 13 14 15 15 15 16 16 16 17 17 18 18
12 12 11 10 10 10 6 6 8 8 9 10 9 9 9 7 5 4 4 4 3 3 3 3 3 2 2 2 4 5 6 8 9 10 11 12 13 14 15 16 16 17 17 17 18 19 19 20 21
12 12 11 11 10 9 7 5 6 7 8 9 8 7 7 6 4 3 3 2 2 3 3 3 3 2 3 4 5 6 8 9 10 12 13 13 14 14 15 16 17 18 18 19 20 21 22 23 24
13 11 12 13 11 8 4 4 4 5 7 7 6 5 5 3 2 2 1 2 3 3 4 4 4 4 5 6 7 8 9 10 11 13 14 15 15 16 17 17 18 19 20 21 22 23 25 25 26
14 14 13 13 12 10 7 6 4 4 6 6 5 3 2 2 1 1 1 2 3 3 4 4 5 5 6 7 9 10 11 12 13 14 15 16 17 18 19 20 21 21 22 23 24 25 26 27 28
17 17 15 14 13 13 11 8 7 7 6 6 4 3 2 1 1 1 2 3 4 5 5 6 6 7 8 9 11 12 13 14 15 16 17 18 19 20 21 22 23 24 25 26 27 28 29 31 32
19 19 16 15 14 15 14 13 10 10 9 8 7 6 5 4 3 3 3 4 5 6 7 8 9 10 11 12 14 15 16 17 18 18 19 20 21 22 23 24 25 26 27 28 30 32 33 34 35

GEFSSGP_500_meanwind_072.txt.gz
Wind_Speed
11 11 11 12 13 14 15 16 17 19 18 15 13 8 7 9 10 9 7 6 5 6 7 8 8 7 6 5 4 3 2 2 2 3 4 5 6 6 7 8 8 8 8 8 8 8 7 7 6
13 13 13 14 15 16 17 18 19 20 20 17 14 8 6 7 9 9 8 6 6 6 8 9 8 7 6 4 3 2 1 1 2 4 5 6 6 7 8 8 9 9 9 9 9 8 7 7 6
15 15 15 16 17 18 19 20 21 21 20 18 14 9 6 5 7 10 8 7 6 7 9 9 8 7 6 4 3 2 1 2 3 4 6 6 7 8 9 10 10 10 10 10 10 9 8 7 6
17 16 16 17 19 20 21 21 21 21 20 18 13 10 7 7 6 8 8 7 7 8 9 9 8 7 6 4 3 3 3 4 5 5 6 8 9 10 11 12 12 12 12 12 12 11 10 9 7
17 17 18 19 20 22 23 23 23 22 21 19 15 13 11 7 7 7 8 8 8 9 10 9 8 7 6 5 4 4 5 5 6 7 8 9 10 12 13 13 14 14 14 14 14 13 12 10 9
18 18 19 20 22 24 25 24 24 23 22 19 16 13 12 8 8 9 8 9 9 10 11 10 8 7 6 5 5 6 6 7 8 9 10 11 12 13 14 15 15 15 15 15 15 14 13 11 10
19 20 20 21 22 25 25 25 25 24 22 20 18 17 13 9 9 10 10 11 12 11 12 11 9 7 7 7 7 7 8 8 9 11 12 13 14 14 15 16 16 16 16 15 15 14 13 12 11
19 20 21 21 22 24 25 25 25 24 23 22 20 17 14 11 12 13 13 13 13 12 12 11 9 8 8 8 8 9 9 10 11 12 13 14 15 15 15 16 16 16 15 15 15 14 13 12 12
17 18 19 19 20 21 23 24 24 24 24 22 20 18 15 12 13 13 14 15 15 13 12 11 10 9 9 9 9 10 11 11 12 13 14 15 15 15 15 15 15 15 15 14 15 15 14 13 12
15 15 15 16 16 18 20 22 22 22 22 21 20 19 15 14 15 15 15 15 16 14 12 11 11 9 9 9 10 11 11 12 13 14 14 14 15 14 14 14 14 15 14 14 15 14 13 13 13
14 14 14 14 15 16 17 19 19 20 20 19 18 15 13 12 15 16 16 15 16 15 13 12 11 9 9 10 11 11 12 13 13 14 13 13 13 13 13 13 13 14 14 14 14 13 13 13 12
13 13 13 14 15 16 17 18 17 18 18 18 16 14 12 12 14 17 17 16 15 16 14 12 11 10 9 9 10 11 12 12 12 11 11 11 11 12 12 12 13 13 13 13 13 13 13 13 13
13 12 13 15 16 16 17 18 18 17 16 15 14 12 12 12 14 16 18 17 16 15 14 12 10 9 8 9 10 10 10 10 10 10 9 10 10 10 11 11 11 12 13 13 13 13 13 13 13
13 13 14 16 16 16 16 17 18 17 15 14 12 11 12 13 13 17 18 17 17 16 15 12 11 9 8 9 9 9 9 8 7 7 8 9 9 10 10 10 10 11 12 13 13 13 13 13 14
13 13 14 16 17 17 17 17 17 16 14 11 10 11 13 13 14 17 18 18 17 16 14 12 10 8 7 8 8 8 7 7 7 7 7 8 8 8 8 9 9 10 11 11 12 12 12 13 13
13 13 14 16 17 18 18 17 17 15 13 10 9 9 10 11 14 17 18 17 17 15 13 12 9 7 6 6 6 6 6 6 6 6 6 7 7 7 8 9 9 10 10 10 11 11 11 12 13
13 14 15 17 17 18 18 17 16 15 13 10 9 7 7 8 11 15 17 16 15 14 12 11 10 8 7 6 5 5 5 4 4 5 6 6 7 7 7 8 9 10 10 10 10 11 11 11 11
13 14 16 17 17 17 17 16 14 14 11 9 7 5 5 6 9 13 15 16 15 14 13 12 10 9 7 6 4 3 3 3 4 5 5 5 6 6 7 8 8 9 10 10 10 11 11 11 11
13 14 16 17 16 16 16 16 14 13 9 7 4 3 4 6 7 11 13 14 15 15 14 12 11 9 7 5 4 3 3 3 4 4 5 5 5 6 7 7 8 9 10 10 10 10 11 11 11
13 14 15 16 15 16 15 15 13 11 9 6 4 1 4 6 6 9 12 14 14 13 13 12 11 10 7 6 4 3 3 3 4 4 4 5 5 6 7 8 9 9 10 10 10 10 10 11 11
12 12 15 16 15 14 14 13 12 10 8 6 3 1 3 4 6 8 11 13 13 12 12 12 10 8 7 5 4 3 3 3 3 3 4 5 5 6 7 8 9 10 10 10 10 10 10 11 11
13 13 14 14 13 13 12 12 11 9 8 6 3 1 2 3 6 8 10 12 12 11 11 10 9 8 7 6 5 4 3 3 3 3 4 5 5 7 7 8 9 9 10 10 10 11 11 11 12
14 14 13 12 11 11 10 10 10 10 8 7 5 2 3 4 6 8 10 10 10 11 10 9 8 9 7 6 5 4 3 3 3 4 5 5 6 7 7 8 8 9 10 11 11 11 12 12 13
15 15 13 11 10 9 9 8 8 9 8 7 5 3 2 4 5 7 9 8 9 9 9 9 8 8 7 6 5 4 4 4 4 5 5 6 7 7 8 9 9 10 11 11 12 13 13 13 14
15 15 13 10 8 8 7 7 7 7 7 6 5 4 3 3 4 6 7 8 8 8 9 8 8 7 6 6 5 5 5 6 6 6 6 7 8 8 9 9 10 11 11 12 13 14 14 15 16
15 15 14 13 10 8 6 6 7 7 6 6 5 3 3 3 4 5 7 6 6 6 7 7 7 7 7 6 6 6 7 7 7 7 8 9 9 10 10 11 12 12 13 14 15 16 17 17 18
16 15 15 14 12 9 6 6 6 7 7 6 5 4 2 1 2 3 5 5 5 6 6 6 7 7 8 8 8 8 8 9 9 9 10 11 11 12 13 13 14 15 16 17 18 18 19 19 20
17 17 16 15 15 12 7 6 7 7 7 6 6 5 4 3 2 3 4 5 6 7 7 8 8 9 9 9 9 9 10 10 11 12 12 13 14 15 16 16 17 18 19 19 20 21 21 22 23
17 18 17 17 17 15 12 9 9 9 9 8 7 6 6 5 5 5 6 8 8 9 9 9 10 10 11 11 11 11 12 13 13 14 15 16 17 17 18 19 20 20 21 22 23 24 24 25 25
17 17 17 18 17 16 15 11 11 11 10 9 9 9 9 8 8 8 9 10 10 11 11 11 12 12 13 13 13 14 15 15 16 17 18 18 19 20 21 22 22 23 24 25 26 26 27 27 27

GEFSSGP_500_meanwind_078.txt.gz
Wind_Speed
11 12 12 12 13 13 15 15 15 15 14 14 14 13 11 9 11 14 14 13 13 11 10 10 9 9 9 9 8 7 6 4 3 2 2 1 2 2 2 3 3 3 3 3 3 3 3 3 2
12 12 13 13 13 14 16 16 16 15 15 14 13 13 11 8 10 14 14 14 13 11 11 10 10 10 9 9 9 8 7 5 4 2 2 1 0 1 1 2 3 3 3 3 3 3 2 2 2
12 13 13 14 14 14 17 17 17 16 15 14 13 12 9 7 9 11 13 14 14 12 11 10 10 10 10 10 9 8 7 6 4 4 3 2 2 2 2 3 3 3 3 3 3 3 2 2 1
13 13 14 14 15 16 17 18 18 17 16 14 12 10 7 8 9 11 13 14 14 13 12 11 11 11 11 10 9 8 7 7 6 5 4 4 4 4 4 4 5 5 5 4 4 3 3 2 2
13 14 14 15 16 17 17 18 18 17 16 14 12 10 9 9 11 13 14 15 15 14 13 12 12 12 12 11 10 8 8 7 6 5 5 5 5 5 6 5 5 5 5 5 5 4 4 3 3
13 13 13 14 16 17 17 17 17 17 16 14 13 11 11 11 11 14 15 16 16 15 14 13 13 13 12 11 10 9 8 7 7 6 6 6 6 7 7 6 6 7 7 6 6 5 5 4 4
13 13 13 14 15 16 16 16 16 16 15 14 13 12 12 13 13 14 16 16 16 15 14 14 14 13 12 12 10 10 9 8 7 6 7 7 7 7 7 7 7 7 7 7 6 5 5 5 5
13 13 13 13 13 14 15 15 15 14 14 14 13 12 13 14 15 16 16 16 17 16 16 15 15 14 13 12 10 9 9 8 8 8 8 8 8 8 8 8 8 8 7 7 6 4 4 4 5
13 13 12 12 12 13 14 13 14 13 13 12 12 13 13 15 16 17 17 17 16 17 17 16 16 15 14 13 11 10 9 9 9 9 9 9 9 9 9 8 8 8 7 7 6 5 5 5 5
14 13 12 13 13 14 14 14 14 13 13 12 12 13 14 15 17 19 19 19 18 19 19 19 18 17 16 14 12 11 10 10 10 10 10 9 9 8 8 8 8 8 8 7 7 6 6 5 5
14 13 13 13 14 15 15 15 15 14 14 14 13 13 14 17 19 20 21 22 21 21 20 20 19 18 17 15 13 12 10 10 9 9 9 8 8 7 7 7 7 7 7 6 6 6 6 5 5
13 13 13 14 15 16 16 16 15 15 15 14 13 13 15 18 20 22 23 24 23 23 22 21 20 19 18 15 13 12 10 9 9 8 8 8 7 7 7 6 6 6 6 6 6 6 6 6 5
13 13 14 15 17 18 19 18 16 15 15 14 13 13 15 18 21 23 23 24 24 24 24 23 21 19 17 15 13 12 10 8 7 7 7 6 6 6 6 5 5 5 5 5 6 6 6 6 6
12 14 16 17 19 19 20 19 16 15 15 13 12 12 13 16 20 22 24 24 24 25 24 24 21 19 17 15 13 11 9 8 6 6 5 5 5 5 5 4 4 4 5 5 5 6 6 7 7
13 15 17 18 20 20 20 18 17 15 14 12 11 11 12 16 19 22 24 25 24 24 25 24 21 19 17 15 13 11 9 8 6 5 5 4 4 3 3 3 3 4 5 5 5 5 5 6 6
14 16 17 19 20 20 20 18 17 15 13 11 9 9 10 14 18 21 24 25 25 25 25 23 21 19 17 15 13 11 9 7 6 5 4 3 3 3 2 2 3 3 4 5 5 5 5 6 6
15 15 16 18 19 20 19 17 17 15 13 11 9 8 9 12 15 17 21 24 25 25 24 23 21 19 16 14 12 10 9 8 6 5 4 3 3 2 2 2 2 3 3 4 4 5 5 5 6
12 14 16 17 19 20 19 17 16 14 12 11 8 6 7 8 11 15 18 21 23 24 23 22 20 18 16 14 12 10 9 7 6 5 4 3 2 2 1 1 1 2 3 4 4 4 5 5 6
13 14 15 17 18 19 18 16 15 14 13 10 7 5 4 5 8 13 16 18 20 22 22 22 19 18 15 13 12 10 9 7 6 5 4 2 2 1 1 0 1 2 3 4 4 4 4 5 5
13 14 16 17 17 17 17 15 14 13 13 11 7 5 3 4 6 10 13 15 18 20 19 18 17 16 14 14 12 10 9 8 6 5 4 3 2 2 1 0 1 2 3 4 4 4 4 5 5
12 13 15 16 16 16 16 15 14 13 13 12 8 5 4 2 4 8 11 12 15 16 17 17 17 16 15 13 12 11 9 8 7 6 5 4 3 2 1 1 1 2 3 4 4 4 5 5 5
11 13 14 15 14 15 14 14 14 12 12 12 9 6 4 2 2 6 9 11 13 16 16 16 17 16 15 13 12 11 9 8 7 6 5 4 4 3 2 1 1 1 2 3 4 4 5 5 6
11 13 13 14 13 12 13 12 13 12 12 11 10 7 4 1 2 4 7 10 12 13 14 15 16 15 14 13 11 10 9 8 7 6 6 5 4 3 3 2 2 3 3 4 4 5 6 6 7
12 12 13 13 12 11 11 10 10 10 11 10 9 7 5 2 1 4 6 9 10 11 13 14 14 13 12 12 11 10 9 8 7 7 6 5 5 4 4 4 4 5 5 6 6 7 7 8 9
12 12 12 11 11 11 12 10 9 8 9 9 8 7 5 3 1 3 5 7 9 10 12 13 13 12 12 11 11 10 9 8 8 7 7 6 6 6 6 6 7 7 8 8 9 9 10 10 11
12 12 10 10 10 11 12 10 9 9 8 7 7 6 5 4 2 1 4 5 7 10 11 13 13 12 11 11 11 10 10 9 9 9 8 8 8 9 9 9 9 10 11 11 11 12 12 13 13
14 13 12 12 11 10 10 12 11 10 8 7 6 6 4 3 1 1 3 4 6 7 10 12 13 12 11 11 11 11 11 11 11 10 10 10 11 12 12 12 13 13 13 14 15 15 16 16 16
14 13 13 11 10 9 10 11 12 11 9 8 6 5 4 4 2 2 3 4 6 7 9 11 11 11 11 11 11 12 12 13 13 13 13 13 14 15 15 16 16 17 17 17 18 19 19 19 19
14 13 12 11 11 9 9 11 14 12 11 10 8 7 6 5 4 3 4 6 7 8 9 10 11 11 12 12 13 14 14 15 15 16 16 17 18 18 19 19 20 20 20 21 21 22 22 22 22
14 13 12 11 11 10 9 12 13 12 11 11 10 9 8 7 7 6 6 7 8 9 11 12 13 13 14 15 15 16 17 17 18 19 19 20 21 22 22 23 23 23 23 24 24 24 25 25 25

GEFSSGP_500_meanwind_084.txt.gz
Wind_Speed
9 10 9 9 8 8 8 7 11 15 16 14 13 13 13 13 13 13 12 11 11 12 12 12 11 10 9 8 8 7 7 6 6 5 4 3 2 2 1 1 1 1 1 1 1 1 2 2 2
9 9 9 9 7 10 13 13 16 17 17 16 14 14 14 13 13 15 14 14 14 14 13 12 12 11 10 9 9 8 8 7 7 6 5 4 3 3 2 2 2 2 1 1 1 1 1 1 1
9 9 9 9 8 10 13 18 20 21 18 16 16 15 15 14 13 15 15 15 14 15 14 13 12 11 11 10 9 9 8 8 7 6 6 5 4 4 3 3 3 2 2 2 2 2 3 3 2
9 8 8 8 8 9 15 20 22 21 18 17 16 16 14 14 14 14 15 16 15 16 15 14 13 12 11 11 10 9 8 8 8 7 7 6 5 5 4 4 4 3 3 3 3 3 4 4 4
8 7 7 11 10 12 18 21 20 18 15 17 17 17 14 15 15 15 16 16 15 16 15 15 13 12 12 11 11 10 9 8 8 8 7 7 6 6 5 5 5 4 4 4 5 5 5 5 5
8 7 9 11 10 16 20 20 18 16 16 15 17 17 14 15 16 16 15 16 16 17 16 15 14 13 12 12 11 10 9 9 9 8 8 7 7 7 6 6 6 6 6 6 6 5 5 6 6
8 7 7 6 10 15 19 18 16 16 17 15 16 18 15 15 17 17 16 17 18 17 17 17 15 14 13 12 12 11 10 10 9 9 8 8 8 7 7 7 7 7 6 6 6 5 5 6 6
7 6 7 5 11 13 16 18 17 16 18 17 17 19 16 16 17 17 17 18 18 17 18 17 16 14 13 12 12 12 11 11 10 9 9 9 8 8 8 8 7 7 6 6 5 6 5 5 6
7 6 6 6 12 13 15 17 18 18 18 17 17 18 17 17 17 18 18 19 18 18 18 17 16 15 14 13 13 13 12 11 11 10 10 10 9 8 8 8 7 7 6 6 6 6 6 6 6
6 6 4 10 12 14 15 18 18 19 20 19 19 18 19 18 18 18 18 20 18 18 19 19 18 16 15 15 14 13 13 12 11 11 10 10 10 9 8 8 8 7 7 7 7 7 6 6 6
8 5 7 10 13 15 17 17 18 20 20 21 21 19 19 18 18 18 19 20 20 20 20 19 19 18 16 16 14 14 14 13 12 11 10 10 9 8 7 7 7 6 6 7 7 7 6 6 6
10 10 11 13 15 18 19 19 19 20 21 21 20 21 20 19 19 19 20 20 20 20 20 19 19 18 17 16 15 15 14 13 12 11 10 8 7 6 6 6 5 5 5 5 5 5 6 6 6
10 12 13 14 16 20 22 20 20 19 20 20 21 22 20 19 19 19 20 22 20 21 22 21 20 20 18 17 16 15 14 12 11 10 9 8 7 6 5 5 4 4 4 3 3 3 4 5 5
10 11 12 14 17 22 25 23 21 21 20 20 20 20 20 18 17 18 18 20 21 23 21 21 21 20 19 17 15 15 13 12 10 9 8 6 5 5 5 4 4 3 3 3 3 3 3 4 4
11 13 15 17 19 21 25 24 23 22 23 21 20 19 17 16 17 18 17 20 21 21 22 21 22 21 19 18 16 14 12 11 10 9 6 5 5 4 4 3 2 2 2 2 2 3 3 3 3
12 15 18 19 21 22 25 24 24 23 22 21 19 18 16 14 13 16 16 17 19 21 23 22 21 20 19 17 16 14 13 11 9 8 6 5 4 3 3 2 2 1 1 1 2 2 3 3 3
12 14 15 18 21 22 24 23 24 23 22 21 19 17 15 12 11 12 14 15 18 20 22 22 21 21 19 18 15 14 12 11 10 8 6 5 4 3 2 2 1 1 1 1 2 2 2 3 3
12 12 13 15 20 21 22 21 21 21 21 20 19 17 15 12 10 10 11 14 16 19 22 22 21 20 19 17 16 14 12 10 9 8 7 5 4 3 3 2 2 1 1 1 2 2 3 3 3
12 12 14 15 20 20 20 19 18 19 21 20 19 16 15 12 9 9 10 13 15 17 20 20 20 19 18 16 15 14 12 10 9 8 7 6 4 4 3 3 2 1 1 1 2 3 3 3 4
11 13 15 17 19 18 18 18 19 18 20 20 19 17 15 12 10 7 8 9 13 16 17 18 18 18 18 17 15 13 12 10 9 8 7 6 5 4 4 3 2 1 1 1 2 3 3 4 4
11 14 16 17 16 15 16 17 19 19 18 18 18 17 15 12 9 6 6 7 10 13 16 16 17 17 17 16 14 13 11 10 9 9 8 7 6 5 4 3 2 1 0 1 2 3 3 4 4
13 15 16 15 13 13 13 14 18 22 19 19 18 17 16 13 9 5 4 6 8 11 14 15 15 15 15 14 14 12 11 11 10 10 9 8 6 5 5 4 3 2 1 1 2 2 3 4 4
15 15 14 13 14 16 11 10 17 19 21 21 19 17 15 13 9 5 2 4 5 8 11 13 13 13 13 13 13 13 12 11 10 10 10 8 7 6 5 5 4 3 3 3 4 4 4 5 5
16 14 12 17 20 17 10 9 16 17 20 20 18 16 14 12 9 5 2 1 4 6 8 10 12 13 13 13 13 12 12 12 11 10 10 8 8 7 7 6 5 5 5 6 6 7 7 7 8
15 15 14 16 21 21 14 8 14 16 18 18 17 15 12 10 8 6 5 2 1 4 7 9 10 11 12 13 12 12 12 12 11 11 10 9 8 8 8 7 8 8 8 9 9 10 10 11 11
15 15 16 18 17 18 16 13 13 16 17 16 15 13 10 9 8 6 4 3 1 3 5 7 9 10 11 12 12 12 12 11 11 11 10 10 10 10 9 9 10 10 11 11 12 13 13 14 14
16 16 16 18 16 15 15 15 15 14 16 16 15 12 10 8 7 5 3 3 1 1 3 5 7 9 10 11 11 11 11 11 11 11 11 11 11 11 11 12 12 13 13 14 15 15 16 17 18
17 15 15 15 14 13 14 17 17 14 18 18 16 13 9 7 6 5 3 2 1 1 2 5 7 9 10 10 10 11 11 12 12 12 12 13 13 13 14 14 15 15 16 17 17 18 19 20 20
19 16 16 15 14 13 15 18 20 17 17 18 15 13 11 8 7 6 5 4 3 3 4 6 7 9 10 11 11 11 12 12 12 13 13 14 15 15 16 17 17 18 19 20 20 21 22 23 23
21 17 17 17 15 14 14 20 20 17 15 15 15 14 12 10 8 7 7 6 5 5 5 6 8 8 10 11 12 12 13 13 14 14 15 16 17 18 18 19 20 21 22 22 23 24 24 25 25

GEFSSGP_500_meanwind_090.txt.gz
Wind_Speed
7 6 6 6 5 6 6 8 10 13 17 18 19 18 16 15 13 11 11 10 7 8 9 9 9 9 8 7 6 6 5 5 5 5 6 6 6 6 6 6 6 6 5 5 5 5 4 3 2
6 6 6 6 6 7 9 10 13 15 17 18 20 18 16 15 13 12 11 10 9 9 10 10 11 10 9 8 8 6 5 5 5 5 6 6 6 7 7 7 7 6 6 6 6 6 5 4 3
6 6 6 6 6 8 9 13 16 19 19 20 20 17 16 14 12 11 11 11 10 10 10 11 11 11 11 10 9 8 7 6 6 6 6 6 7 7 7 7 7 7 6 6 6 6 6 5 5
7 6 5 5 7 9 11 15 19 22 23 22 20 19 18 14 12 11 10 10 11 13 13 12 13 12 12 11 10 8 7 7 6 6 6 6 7 8 8 8 8 7 7 7 6 6 6 6 5
6 5 5 7 9 10 13 17 20 22 23 22 20 19 18 15 13 11 10 11 11 13 13 13 13 13 13 12 10 9 7 6 6 6 6 6 7 8 8 8 8 8 7 7 7 7 7 6 6
5 5 6 8 9 11 14 17 20 22 23 22 20 19 20 17 14 12 12 11 12 13 13 15 14 14 14 12 11 9 8 7 7 6 7 7 7 8 8 8 8 8 8 8 8 7 6 6 6
5 6 7 7 8 11 15 18 21 22 23 21 20 19 19 18 15 13 12 13 13 13 15 16 16 15 14 12 11 10 9 8 7 7 7 7 7 8 8 8 8 8 8 8 8 7 6 6 6
5 6 7 7 8 11 15 18 20 22 21 20 19 19 19 17 15 14 13 12 12 13 14 17 17 16 15 13 11 9 9 8 8 8 7 7 8 8 9 9 8 8 8 8 7 7 7 7 6
5 5 5 6 8 11 15 18 20 20 20 21 21 21 21 18 15 14 13 13 13 13 14 17 18 17 16 14 12 10 9 9 8 8 7 8 9 9 9 8 8 8 8 7 7 7 8 7 6
5 5 6 7 9 11 14 17 19 20 20 21 21 21 21 19 17 15 14 13 13 13 16 18 18 19 17 15 13 11 10 9 9 8 8 8 9 9 8 8 8 8 8 7 8 8 8 7 6
6 5 6 7 10 12 15 17 19 21 21 23 22 21 21 20 16 14 13 12 12 13 15 18 19 19 19 17 14 12 11 9 9 8 8 9 9 9 8 7 7 7 7 7 7 8 8 7 6
5 5 6 7 9 12 16 18 20 21 22 23 22 21 20 18 16 14 13 13 13 14 16 18 18 19 18 17 14 13 12 10 8 8 8 8 9 8 7 6 6 6 6 6 7 7 7 7 6
5 5 6 8 10 14 16 18 20 22 23 23 22 21 20 17 14 13 12 13 14 16 18 19 18 18 19 17 15 13 12 11 9 8 8 7 7 7 6 5 5 5 4 5 5 5 5 5 4
4 5 6 9 12 15 17 19 22 23 23 23 22 21 19 15 14 12 12 11 14 17 18 18 19 19 19 17 15 14 13 11 9 8 7 7 6 6 5 4 4 3 3 3 3 3 3 3 3
3 3 6 10 14 17 19 20 22 23 23 22 22 21 20 17 15 12 10 11 12 15 16 17 19 19 18 15 15 15 13 11 9 8 7 7 6 5 5 4 3 2 2 2 2 2 2 2 2
4 5 8 12 15 19 20 20 22 22 22 22 22 21 18 16 14 12 10 8 10 13 14 16 18 20 18 15 15 15 13 11 9 8 7 6 6 5 4 4 3 3 2 2 2 2 1 1 1
6 7 10 13 17 20 20 20 20 21 22 22 21 20 16 14 12 11 8 7 8 12 13 15 17 19 18 16 15 15 13 11 10 9 8 7 6 5 5 5 4 4 3 2 2 1 1 0 0
6 7 10 13 17 20 21 20 19 20 22 21 19 19 17 14 12 11 8 6 7 10 13 15 17 18 17 16 15 15 14 12 11 10 9 8 8 7 7 6 5 4 4 3 2 1 1 1 1
7 8 10 14 16 19 20 19 18 20 19 18 18 18 17 15 13 11 7 4 5 8 12 15 15 17 16 16 15 15 14 12 11 11 10 9 8 8 8 7 6 5 4 3 2 2 2 1 1
6 8 10 14 17 20 19 19 19 18 17 16 16 16 15 15 14 10 7 2 3 7 10 13 14 16 16 16 15 15 14 13 12 11 11 11 10 9 9 8 7 6 5 4 3 2 2 2 2
5 8 12 15 18 20 21 20 19 16 12 13 13 14 14 14 13 12 8 3 2 5 9 10 12 15 16 16 15 15 14 14 12 12 12 12 11 10 9 9 8 7 5 5 4 3 2 2 2
7 9 13 16 17 19 19 20 17 15 11 10 12 13 13 13 13 11 7 3 1 5 7 10 12 14 15 16 15 15 15 14 13 13 13 12 11 11 10 9 8 7 6 5 4 3 2 1 1
9 11 14 15 16 18 19 20 16 13 8 9 10 12 12 12 12 9 6 3 1 3 6 9 12 14 15 15 15 15 15 14 13 13 13 12 12 11 11 10 9 8 8 6 5 4 3 3 2
11 13 15 16 16 17 19 19 15 10 8 9 10 11 11 11 11 8 5 3 1 2 5 8 12 13 14 15 15 14 15 15 14 14 13 13 13 12 12 11 10 10 9 8 7 6 6 5 5
13 15 16 16 16 17 18 17 15 11 9 10 10 11 11 10 8 7 6 3 2 3 5 8 10 12 14 14 14 15 15 15 15 14 14 14 14 13 12 12 11 11 11 10 9 9 9 9 8
13 15 16 17 17 18 18 16 16 10 9 9 11 11 11 8 6 6 5 4 3 3 4 7 10 11 12 13 14 15 15 15 15 14 15 15 15 14 13 13 13 12 12 12 12 12 12 12 12
15 14 14 17 17 18 17 16 15 11 10 9 9 10 10 7 6 5 5 4 3 3 4 6 9 11 12 13 14 14 15 16 15 15 16 16 16 15 15 15 14 14 15 14 14 14 14 14 14
17 15 15 17 18 19 19 17 16 14 13 11 9 9 8 7 4 3 3 3 2 2 3 5 7 9 10 12 13 14 15 15 15 15 16 16 16 17 17 16 17 17 17 17 17 17 17 17 17
19 18 17 17 20 21 20 19 16 15 14 12 10 8 7 6 4 3 2 1 1 0 2 2 4 6 9 11 11 13 14 15 16 16 16 16 17 18 18 18 19 19 19 19 20 20 20 20 20
23 21 19 20 21 21 21 20 17 16 13 12 10 8 7 6 5 4 3 2 2 2 2 4 5 6 8 9 11 13 14 15 16 17 18 18 19 20 20 20 20 21 21 22 22 23 23 23 23

GEFSSGP_500_meanwind_096.txt.gz
Wind_Speed
9 9 9 9 8 9 10 11 11 11 11 13 13 13 12 11 9 8 6 5 5 5 7 9 11 11 10 9 8 7 5 3 2 2 3 4 5 6 7 8 8 8 8 8 8 7 7 6 5
10 10 9 9 9 10 11 11 11 12 13 15 14 13 12 12 10 9 7 6 6 6 8 10 12 12 11 10 9 8 6 4 2 0 2 3 5 6 7 8 8 9 9 8 8 7 6 6 5
10 10 9 10 10 11 12 12 13 13 15 15 15 14 13 12 11 10 8 7 7 7 9 11 13 13 12 11 10 9 6 5 2 1 1 3 4 6 7 8 9 9 9 8 8 7 6 6 5
10 11 10 10 10 11 11 12 13 15 15 16 16 16 14 12 11 10 10 8 7 8 10 12 14 14 13 12 11 10 7 5 3 2 2 2 4 6 7 8 8 9 9 8 7 7 6 6 4
11 11 11 11 11 11 11 12 13 15 15 17 17 16 15 13 11 11 10 8 7 8 11 14 16 15 14 13 11 10 8 6 5 3 3 3 4 5 7 8 8 8 8 8 7 7 6 5 4
11 11 11 11 12 11 11 12 14 16 17 18 17 16 15 14 12 11 10 9 9 9 12 15 17 17 16 14 12 11 9 7 5 4 3 3 4 5 6 7 8 8 8 7 6 6 6 5 5
12 12 10 11 11 11 12 13 15 17 17 18 18 17 15 14 13 12 11 10 10 10 12 15 17 17 17 15 13 12 10 8 6 5 4 4 4 5 6 7 8 7 7 7 6 6 5 5 5
12 12 10 11 11 12 13 14 15 17 18 18 18 18 16 15 14 13 12 10 10 10 12 15 17 18 18 16 14 13 11 8 7 6 5 5 5 5 6 7 7 7 7 6 5 5 5 5 5
12 11 11 11 11 12 14 15 16 17 18 18 18 18 18 16 15 14 13 11 11 11 13 15 18 19 18 18 16 13 12 9 8 7 6 5 5 6 6 7 7 7 6 5 5 5 5 5 4
12 11 10 11 10 11 14 15 16 16 17 19 20 20 20 18 16 15 13 11 11 12 13 14 17 20 19 19 17 14 12 10 9 8 8 7 6 6 7 7 7 6 6 5 5 5 4 4 4
11 10 10 10 10 11 13 15 16 16 17 19 21 21 20 18 16 14 13 11 12 12 14 16 17 19 20 19 17 15 13 11 9 8 8 8 7 7 7 6 6 5 5 5 5 4 4 4 4
10 9 8 8 9 10 12 15 15 17 18 19 20 21 21 19 16 14 13 10 11 12 15 17 19 20 20 20 18 16 14 12 10 9 9 8 7 6 6 5 5 5 4 4 4 4 4 3 3
9 8 8 8 8 10 12 14 15 17 18 19 21 21 22 19 17 14 11 9 10 11 15 19 20 20 20 20 19 17 15 13 11 10 9 8 7 6 5 5 6 5 4 3 3 3 2 2 2
10 9 9 9 9 11 12 14 16 18 19 20 21 21 21 17 16 13 10 9 9 11 15 19 22 22 21 21 20 18 16 13 12 10 9 9 7 6 6 5 5 4 3 2 2 2 1 1 2
10 10 11 11 11 12 13 14 17 18 20 21 21 21 19 17 15 13 11 9 9 11 14 18 20 22 21 20 20 19 16 14 12 11 10 9 7 7 6 5 5 4 3 2 2 1 1 1 1
12 12 12 13 12 13 14 15 17 18 19 20 22 21 17 16 15 13 11 10 8 11 14 17 19 22 21 20 19 18 16 15 14 12 11 9 8 7 6 6 5 4 3 2 1 1 1 1 1
14 13 13 13 13 14 15 16 17 18 20 21 21 20 18 16 14 12 9 6 6 11 15 17 19 20 21 21 20 20 18 15 14 13 11 9 8 8 6 6 5 4 3 2 2 2 1 1 1
15 14 15 15 15 15 15 16 17 19 20 20 20 19 17 16 14 11 8 6 6 10 15 17 18 19 21 20 21 20 18 17 16 14 12 10 9 9 8 7 6 5 4 3 2 2 1 1 1
17 16 15 15 15 15 15 16 17 17 19 19 19 18 16 15 13 10 8 6 6 10 14 16 18 19 20 20 20 19 19 18 17 14 12 11 10 10 9 8 7 6 5 4 3 2 2 1 1
18 17 16 16 16 16 15 15 16 17 18 18 17 17 15 14 13 11 9 5 5 9 13 16 18 19 19 19 20 20 20 18 17 15 13 12 12 11 11 9 8 7 6 5 4 2 2 1 1
18 18 17 17 16 15 15 14 16 18 17 16 16 15 14 13 12 12 9 6 5 8 11 16 19 20 20 20 20 20 19 18 16 15 14 13 13 13 12 10 9 8 6 5 5 3 3 2 1
18 18 17 16 16 15 15 16 15 16 17 16 16 14 13 12 11 10 9 6 4 7 10 14 18 19 20 20 20 20 20 18 16 15 14 13 14 14 12 11 10 9 7 6 6 5 4 3 3
18 18 18 17 16 15 15 16 14 15 16 16 16 14 12 12 11 9 8 5 3 6 9 12 15 17 18 18 19 20 19 18 16 15 15 15 15 14 13 12 11 10 9 8 7 7 6 5 5
19 18 18 17 16 15 15 15 13 14 15 15 14 13 12 11 10 8 6 3 2 4 8 11 14 17 18 18 18 19 18 17 16 15 15 15 14 14 14 13 12 11 10 10 9 9 8 8 7
19 19 19 18 16 14 14 14 12 13 14 14 13 12 12 12 10 7 5 3 1 4 7 10 13 16 17 17 18 17 17 16 15 15 15 14 14 14 14 13 13 12 12 11 11 11 11 11 10
20 20 19 18 16 14 13 12 11 11 13 14 12 11 11 11 8 5 3 2 1 2 5 8 12 14 16 17 18 16 16 15 14 14 15 14 14 14 14 14 14 13 13 13 13 13 13 13 14
20 21 20 19 18 16 12 10 8 10 12 13 11 11 11 10 8 5 3 2 1 2 4 6 9 12 14 15 17 16 15 15 15 15 15 14 15 15 15 15 15 15 15 15 16 16 16 16 17
19 20 21 20 20 17 13 11 10 10 11 12 11 11 10 9 8 6 4 2 1 1 3 5 7 10 12 13 14 14 14 14 14 15 15 16 16 16 16 17 17 17 17 18 18 18 19 19 20
21 21 20 20 20 19 16 11 11 12 12 12 11 11 10 8 7 5 4 2 1 2 3 4 6 7 10 12 13 13 14 14 14 16 16 17 17 17 18 19 19 20 20 20 21 21 22 22 23
24 23 22 21 20 20 18 12 12 12 12 11 11 11 10 8 6 6 4 4 3 3 3 4 5 6 8 11 12 13 14 15 16 17 18 18 19 19 20 20 21 22 23 23 24 24 25 26 26

GEFSSGP_500_meanwind_102.txt.gz
Wind_Speed
10 10 10 9 9 10 10 10 10 9 8 7 7 6 4 3 2 3 4 6 7 8 10 12 13 13 13 13 12 11 10 8 7 7 6 6 6 6 6 7 7 7 7 7 6 6 5 5 5
10 10 9 9 10 9 10 10 9 9 9 8 7 6 4 3 3 3 4 6 7 8 10 13 14 14 14 14 13 12 11 9 7 6 6 5 5 5 6 6 6 6 6 6 6 5 5 5 5
10 10 9 9 9 7 9 10 9 9 9 9 8 7 6 5 4 5 5 5 7 8 10 13 14 15 15 15 14 13 11 9 8 6 5 5 5 5 5 5 5 5 5 5 5 4 4 4 4
10 10 9 9 8 9 9 10 10 10 9 9 9 8 7 6 6 6 5 5 6 9 10 12 15 16 16 15 14 13 12 10 8 6 5 5 4 4 4 4 5 5 4 4 4 4 4 4 4
9 10 10 9 9 9 10 11 11 11 11 10 10 10 9 8 7 7 7 6 6 9 10 12 15 16 17 17 15 14 13 11 9 7 6 5 4 3 3 3 4 4 3 3 3 3 3 3 3
9 10 8 6 8 10 11 12 12 12 11 11 11 11 11 10 9 8 8 8 8 10 12 13 15 17 18 17 17 16 14 12 11 9 7 6 4 3 2 2 2 3 3 3 3 3 3 2 2
9 8 7 7 8 10 11 11 12 13 12 12 12 11 12 11 10 10 9 8 8 10 12 13 15 17 18 19 18 17 15 13 11 10 8 6 5 3 2 1 1 2 1 1 2 2 1 1 2
9 8 7 7 8 10 11 12 12 12 12 13 13 13 14 13 11 10 9 9 9 10 12 13 15 17 18 19 19 17 16 14 12 10 9 7 5 4 3 2 1 1 1 1 1 1 1 1 1
9 7 6 6 8 9 11 12 13 13 13 14 15 15 15 15 13 12 10 10 10 11 12 14 15 17 18 19 19 18 16 15 13 11 9 8 6 5 4 2 2 1 1 2 2 1 1 1 2
8 6 6 7 8 10 11 13 13 14 14 16 16 17 17 16 15 13 12 12 11 13 14 14 16 18 19 20 20 19 17 15 13 11 10 8 7 5 4 3 2 2 2 2 2 2 2 1 2
8 7 8 8 10 11 11 13 14 14 14 16 17 18 18 18 16 14 13 13 13 14 15 16 17 19 20 21 21 20 18 16 14 12 10 9 7 6 5 3 3 2 2 2 2 2 2 2 2
9 9 9 9 10 11 11 12 13 14 14 16 17 18 19 19 16 14 14 14 13 14 15 17 18 21 21 21 22 21 19 16 14 12 11 9 8 7 5 4 3 2 2 2 2 2 2 2 2
10 10 10 11 11 11 12 13 14 14 15 16 18 19 19 18 16 13 12 13 12 13 15 17 19 21 21 22 23 21 19 16 14 13 11 10 9 7 6 5 4 3 3 3 3 2 2 2 2
11 11 11 11 12 12 12 14 15 15 16 17 19 20 20 18 15 13 12 12 12 13 14 17 20 21 22 22 23 22 20 17 15 13 12 10 9 8 6 5 4 3 3 3 2 2 2 2 2
12 12 12 12 13 13 13 13 16 17 17 18 19 20 20 17 16 14 13 12 11 11 14 17 20 21 22 23 23 22 21 18 16 13 12 10 9 8 7 6 4 3 3 3 3 2 2 2 2
12 11 11 13 13 13 13 13 17 17 17 18 19 19 19 17 15 14 12 10 8 9 13 16 19 21 23 23 23 22 21 18 16 14 13 11 10 8 7 6 5 4 4 3 3 2 2 2 2
12 12 12 14 14 14 13 14 16 16 17 18 19 18 17 16 15 13 11 9 8 8 11 16 18 20 23 23 22 22 21 18 16 15 13 12 11 9 8 7 6 5 5 4 4 3 2 2 2
14 13 13 14 14 14 14 14 16 16 17 18 18 17 16 15 14 13 11 10 8 7 10 15 18 20 22 22 21 21 20 19 17 15 14 13 12 10 9 8 7 6 6 5 4 3 3 2 2
15 14 13 14 14 13 13 14 15 16 16 17 17 17 15 15 14 12 11 10 8 7 9 13 17 19 21 22 21 20 20 19 17 16 15 14 12 11 10 9 8 7 6 5 4 4 3 3 2
15 14 13 14 14 13 13 13 14 15 16 16 17 16 14 14 13 12 11 9 7 8 9 13 16 19 20 21 21 21 21 19 17 17 15 14 13 12 11 10 9 8 7 6 5 5 4 3 3
14 14 14 14 13 13 13 12 14 15 15 15 16 15 13 13 12 11 10 8 7 7 9 12 15 17 19 20 21 21 20 19 17 17 16 15 14 13 12 11 11 9 8 7 6 5 5 4 4
15 15 14 13 11 11 12 11 13 14 13 14 15 15 13 12 12 11 10 9 8 8 9 12 15 16 18 20 20 20 19 19 18 17 16 16 14 13 13 12 12 10 9 8 7 7 6 6 5
16 16 14 12 11 10 11 10 11 13 13 14 14 14 13 12 11 11 10 9 8 7 9 11 14 16 17 19 20 20 20 19 19 17 17 16 16 15 14 13 13 12 11 10 9 8 8 7 6
16 15 14 12 11 11 11 10 9 11 12 13 14 13 12 11 10 10 10 9 7 6 8 10 13 15 17 18 19 20 20 20 19 18 17 17 16 15 14 14 13 13 12 11 11 10 9 9 8
16 15 14 12 11 11 12 9 9 10 12 12 13 12 11 11 10 9 9 8 6 5 6 9 11 13 16 18 19 19 19 19 19 18 17 17 15 15 15 15 14 14 13 13 12 12 11 11 11
18 17 15 13 12 11 13 10 9 10 11 12 12 12 11 11 10 9 8 8 6 4 5 7 10 13 16 17 17 18 17 17 18 17 17 16 15 15 15 15 15 15 15 14 14 14 13 13 13
19 17 16 16 14 12 11 11 10 10 11 11 11 11 11 10 10 8 7 7 6 3 2 4 8 12 14 16 16 16 16 17 17 17 17 16 16 15 15 15 16 16 16 15 16 16 16 16 16
19 18 18 16 14 13 11 11 10 10 10 11 11 11 10 10 9 8 6 5 5 3 2 3 6 10 12 13 14 15 16 17 17 17 17 16 16 16 15 15 16 17 17 18 18 19 19 19 19
19 19 19 17 17 14 12 11 12 10 10 10 11 11 10 9 9 8 6 5 4 3 1 2 3 6 9 11 13 15 16 17 17 17 17 17 17 16 16 16 17 18 19 19 20 21 21 21 22
20 20 19 19 17 16 14 12 12 11 10 11 11 11 10 9 8 7 6 6 5 3 1 1 2 4 8 11 12 14 15 16 17 17 17 16 16 16 16 17 18 19 20 20 21 22 23 24 24

GEFSSGP_500_meanwind_108.txt.gz
Wind_Speed
12 11 11 10 13 15 13 12 13 14 13 13 11 10 11 11 10 9 10 9 8 10 10 11 11 12 12 11 10 10 8 7 7 6 5 4 3 3 3 3 4 4 3 3 3 3 3 3 3
11 10 10 10 14 15 12 14 15 15 15 13 12 11 12 11 10 10 11 10 9 10 11 11 12 13 13 13 12 11 9 9 9 7 6 4 3 3 3 3 3 3 3 3 3 3 3 3 3
10 9 10 11 14 12 11 14 15 16 15 14 13 12 12 12 11 11 11 11 10 10 11 12 12 13 13 13 12 11 10 10 9 8 6 5 4 3 3 2 3 3 2 2 2 3 3 3 3
8 8 9 12 11 7 11 13 14 15 15 14 14 12 10 11 12 11 11 11 10 10 11 12 12 13 14 13 13 12 11 10 10 8 7 6 5 3 3 2 2 2 2 2 2 2 2 3 3
7 7 11 11 6 7 12 14 14 14 15 15 15 14 13 12 13 12 12 11 10 10 10 11 12 14 14 14 13 13 12 12 11 10 8 6 5 4 3 3 2 2 2 2 2 2 2 2 2
5 8 10 7 4 9 13 15 14 14 15 15 15 16 15 14 14 14 13 12 10 9 10 11 12 14 15 15 15 14 14 13 12 11 9 8 6 5 4 3 2 2 2 2 2 2 2 2 2
5 6 7 5 5 9 13 13 13 14 15 15 16 17 15 14 15 15 14 13 11 10 10 12 13 14 15 16 16 16 15 15 14 12 11 9 8 6 5 4 3 2 2 2 2 2 1 2 2
5 5 4 4 4 9 12 13 14 14 15 16 16 17 16 16 17 16 15 14 13 10 11 12 14 15 16 16 17 17 16 16 15 13 12 10 9 7 6 5 4 3 2 2 2 1 1 1 2
4 4 4 3 4 9 12 12 13 15 15 17 17 19 17 19 18 18 16 15 14 12 12 13 14 16 16 17 17 18 18 17 15 14 12 11 9 8 7 6 5 4 4 3 2 2 1 2 2
2 3 3 3 9 11 12 13 14 14 16 19 20 20 19 20 20 19 17 16 14 14 14 14 15 16 17 17 18 18 19 18 16 15 13 11 10 9 8 7 5 5 4 3 2 2 2 2 2
3 2 4 7 11 12 11 12 13 14 16 19 22 22 21 21 21 20 18 17 15 15 15 14 15 16 18 19 19 19 20 19 17 16 14 12 11 9 8 6 5 5 4 4 3 2 2 2 3
7 5 7 9 11 11 11 11 11 13 16 19 21 23 23 23 23 21 19 17 16 16 16 15 15 17 18 19 19 20 20 18 17 17 14 13 11 10 8 6 5 5 4 3 3 2 2 2 2
8 8 8 10 11 11 12 12 14 13 14 20 22 23 24 23 23 21 18 16 15 16 16 16 16 18 18 19 20 20 21 19 16 16 14 12 11 10 8 7 6 5 4 3 3 2 2 2 1
8 9 10 10 9 10 12 13 16 15 15 20 23 22 23 23 23 21 18 16 15 15 16 16 16 16 17 18 20 20 20 19 16 14 13 11 10 9 8 7 6 5 4 4 3 3 2 2 1
8 8 9 9 8 9 13 14 18 17 18 21 23 23 23 23 21 19 17 16 15 15 15 15 14 16 18 18 18 19 19 18 17 15 13 11 10 9 7 7 6 5 4 4 3 3 2 2 2
8 9 9 9 9 11 14 16 18 18 19 22 23 23 22 22 21 18 17 16 15 14 14 13 13 15 17 19 18 18 18 17 16 15 13 11 10 9 8 7 6 5 5 4 3 3 2 2 2
8 10 10 11 11 11 14 16 17 18 19 22 23 23 22 21 20 18 16 16 14 13 13 13 12 14 18 18 18 17 17 18 17 15 13 12 10 9 8 7 6 6 5 4 4 3 3 2 2
8 9 13 12 12 14 15 17 16 18 20 22 23 23 23 21 20 16 15 14 12 10 10 10 10 11 16 18 18 16 17 18 17 16 14 12 11 10 9 7 7 7 6 5 4 4 3 3 2
12 13 14 13 15 16 16 17 17 17 19 20 21 22 22 21 19 16 15 13 10 8 9 9 9 10 15 18 18 17 17 16 17 16 15 13 12 10 10 9 8 8 7 6 5 4 3 3 2
15 15 15 16 16 16 16 17 17 18 17 19 20 22 21 20 18 16 15 13 10 8 8 9 9 10 14 15 17 17 17 16 16 15 15 14 13 11 10 10 9 9 8 7 6 5 4 3 2
16 15 15 16 16 15 16 17 17 18 18 18 17 18 20 19 17 16 15 13 10 8 8 8 9 10 13 14 16 16 16 16 15 15 15 15 14 13 11 10 10 10 9 8 7 6 5 4 3
16 14 15 16 17 16 16 18 18 19 19 17 16 17 17 17 17 16 15 13 10 9 8 8 9 11 12 14 15 16 16 16 15 15 15 15 15 14 13 11 11 10 9 9 8 7 6 5 5
16 15 16 17 17 17 16 16 16 19 19 16 17 20 17 17 17 16 15 13 11 9 8 8 8 11 12 14 15 16 16 16 16 16 16 16 15 15 14 13 12 11 10 10 9 8 8 7 6
16 16 16 16 15 15 14 15 15 17 19 18 19 21 19 18 16 15 14 13 11 9 8 7 8 10 12 14 15 16 17 17 16 16 17 17 16 15 15 14 13 12 12 12 11 10 10 9 8
16 16 14 13 15 16 16 15 12 16 16 18 20 20 18 17 16 14 13 12 11 10 8 6 7 9 11 13 15 15 17 17 17 17 16 16 16 15 14 14 14 14 14 13 12 12 12 11 11
16 16 15 15 18 21 20 15 11 15 14 16 18 18 18 16 15 13 13 13 11 9 7 5 6 7 9 12 14 15 15 16 16 16 16 16 15 15 15 15 14 14 15 14 14 14 14 14 14
16 17 15 17 19 22 22 16 9 11 13 14 15 16 17 16 14 13 12 11 10 8 6 5 5 7 9 10 13 14 15 16 16 16 16 16 16 15 15 15 15 15 15 16 16 15 15 16 16
16 16 16 19 20 19 18 19 16 10 10 13 14 16 16 14 13 12 11 10 10 8 6 4 4 5 8 10 12 14 15 16 15 16 15 15 16 16 16 16 16 16 16 16 17 17 17 18 18
15 16 18 18 18 19 19 21 20 14 11 10 13 15 15 15 13 11 10 9 8 8 7 4 3 4 6 8 11 12 13 15 15 15 16 16 17 16 17 16 16 16 16 16 17 18 18 19 20
15 16 17 19 19 19 19 22 18 10 8 10 13 16 16 14 13 11 9 9 8 7 6 4 3 2 4 6 8 10 12 14 16 15 15 16 16 16 16 16 16 16 17 17 18 18 19 20 21

GEFSSGP_500_meanwind_114.txt.gz
Wind_Speed
6 7 8 9 10 13 17 19 18 17 15 14 14 13 13 13 11 8 6 5 4 2 2 3 5 6 7 8 7 6 6 5 4 4 4 4 4 4 3 3 2 1 1 0 0 0 1 1 2
5 6 7 9 9 13 16 19 19 18 17 16 15 14 13 12 10 8 7 5 4 3 2 3 5 7 8 8 9 8 7 6 5 5 5 5 5 5 4 3 3 2 1 1 0 0 1 1 1
4 5 7 7 8 11 14 18 20 20 19 18 16 15 14 11 10 9 7 6 4 3 3 4 5 7 9 10 10 10 9 7 6 5 6 5 5 5 4 4 3 3 2 1 1 1 1 1 1
3 3 5 5 8 11 13 16 19 21 19 18 18 17 16 13 11 10 8 7 5 4 3 4 5 7 9 10 11 11 10 8 7 6 6 5 5 5 4 4 3 3 2 2 1 1 1 1 1
3 4 4 4 6 8 10 15 18 21 21 20 19 18 18 15 13 11 9 7 6 5 4 4 5 7 9 11 12 11 11 9 9 8 7 6 5 5 5 4 4 3 2 2 2 1 1 1 1
3 3 2 3 5 7 9 13 16 20 21 20 19 18 18 16 15 13 10 8 7 6 5 5 5 7 9 11 12 12 11 10 10 9 8 7 6 5 5 4 4 3 3 3 2 1 1 1 1
2 2 1 3 5 7 9 12 16 20 21 20 18 18 18 17 15 14 12 9 8 7 7 6 6 7 9 11 13 13 13 12 11 10 9 8 7 6 5 5 4 4 3 3 2 2 1 1 1
3 3 2 2 4 6 8 11 16 19 20 20 18 18 19 17 16 15 14 12 10 8 7 7 7 8 10 12 13 14 14 13 13 12 10 9 8 7 6 5 5 4 3 3 2 2 2 1 2
4 4 2 1 2 5 9 12 15 18 19 20 19 19 20 19 17 16 15 14 11 10 9 8 8 9 11 13 14 14 14 14 13 12 11 10 8 7 6 5 5 4 4 3 3 2 2 1 1
7 7 4 3 5 7 10 12 14 17 19 20 19 20 20 19 17 16 16 15 12 10 10 9 9 10 11 13 15 15 15 14 13 13 12 10 9 8 7 6 6 5 5 4 4 3 2 1 2
8 9 8 7 7 9 10 12 14 16 18 18 19 20 19 19 19 18 17 16 13 11 10 10 10 11 12 13 15 16 16 15 15 14 13 11 10 9 8 7 6 6 5 5 4 3 2 2 2
10 11 11 9 9 10 11 12 14 16 18 19 20 20 20 20 21 20 18 15 12 11 10 11 10 11 13 14 15 15 16 16 16 15 14 12 11 10 8 8 7 6 6 5 4 4 3 2 2
11 12 11 10 9 9 10 11 14 16 17 19 20 20 20 21 21 20 17 14 11 10 11 10 11 12 12 13 15 15 16 17 17 16 14 14 12 10 9 9 8 7 6 6 5 4 3 2 2
11 11 10 10 9 8 9 10 12 14 17 19 19 19 20 20 20 20 17 15 12 10 10 10 11 10 12 13 16 16 16 17 17 16 16 14 12 10 10 9 8 7 6 5 5 4 4 3 2
11 10 9 8 7 8 9 10 12 14 17 19 20 21 19 20 20 19 17 14 11 10 9 9 9 10 11 12 15 15 16 18 18 18 17 15 13 11 10 9 8 7 7 6 5 5 4 4 3
11 9 9 8 8 8 11 10 12 15 17 20 21 21 19 20 21 19 15 14 12 10 9 8 8 9 10 11 14 15 15 17 18 18 17 16 14 12 10 9 8 7 7 7 6 5 5 4 4
11 10 10 9 9 9 11 12 14 16 18 20 21 20 18 19 20 17 15 15 13 11 9 8 8 8 9 10 12 14 14 15 17 18 18 17 14 13 11 10 8 8 8 8 7 6 5 4 4
13 13 13 11 11 10 11 14 16 18 20 21 20 20 19 18 17 16 15 15 12 10 8 7 7 8 8 9 11 12 14 15 17 18 17 16 15 14 13 11 9 9 9 8 7 6 6 5 5
15 15 13 11 11 12 14 16 18 20 21 21 20 20 21 18 17 15 14 13 11 10 8 6 6 6 7 8 11 13 15 15 16 18 17 16 15 14 13 12 11 10 10 9 8 7 6 6 5
15 15 13 12 13 15 17 17 18 20 21 20 20 18 19 18 17 14 13 12 10 9 9 6 6 6 7 9 11 13 15 15 16 18 18 17 15 15 14 13 12 11 11 10 9 8 7 7 6
16 15 14 13 14 17 19 20 20 21 20 17 16 16 17 17 14 13 11 10 9 8 7 4 6 7 8 9 11 13 15 17 17 18 18 17 16 15 15 14 13 12 12 11 10 9 8 7 7
16 14 15 14 15 17 19 21 20 21 19 17 15 15 17 16 14 12 10 8 8 7 6 4 6 7 7 9 11 14 16 17 17 18 18 18 17 17 16 15 14 13 13 12 11 10 9 9 8
15 14 15 16 18 19 19 20 18 20 19 16 15 14 15 14 12 11 9 8 7 7 6 4 5 7 7 9 11 15 18 18 18 18 18 18 18 17 17 16 15 14 14 13 12 11 11 10 9
15 16 16 17 19 19 16 18 18 19 17 15 14 13 12 11 11 10 9 8 7 7 5 4 5 6 7 9 11 15 17 18 18 17 17 18 18 18 18 17 16 15 14 14 13 12 12 11 10
16 17 18 18 17 15 15 17 17 18 19 16 13 12 10 9 9 9 9 8 7 7 5 4 4 5 7 10 11 14 16 18 18 18 18 18 18 19 18 18 17 16 15 14 14 13 13 13 12
13 16 18 19 17 14 14 16 17 18 17 13 11 9 8 8 8 8 8 7 7 7 5 3 3 5 7 10 11 14 16 18 18 19 19 19 19 19 19 18 18 17 16 16 15 14 14 14 14
13 14 16 18 19 18 17 16 15 15 14 13 10 7 7 7 6 7 7 7 7 6 5 3 2 3 5 9 11 14 16 17 18 19 19 19 19 19 19 19 18 17 17 17 16 16 15 15 15
14 12 16 18 19 20 19 16 16 16 14 13 11 9 7 6 6 6 6 6 6 6 5 4 3 3 5 7 10 13 15 16 18 19 19 19 19 19 19 18 17 17 16 17 16 17 17 16 16
14 14 16 16 18 20 20 18 16 14 13 13 11 9 6 5 6 6 5 5 5 5 5 4 4 3 4 6 8 12 15 16 18 19 19 18 18 18 19 18 17 17 17 16 17 17 18 18 18
18 17 17 18 17 18 20 19 18 16 14 12 10 8 6 5 5 5 5 5 6 5 5 4 4 4 5 6 7 10 13 16 17 18 18 18 18 18 19 18 18 18 18 18 18 18 18 19 20

GEFSSGP_500_meanwind_120.txt.gz
Wind_Speed
8 7 7 8 11 13 16 19 20 21 20 19 19 18 16 14 12 9 6 4 2 1 1 3 4 4 4 4 3 4 4 4 4 4 4 5 5 6 6 6 5 5 4 4 4 3 3 3 3
7 6 6 7 10 13 16 19 20 20 20 19 19 18 16 15 12 10 7 5 3 2 2 3 4 4 4 4 4 4 4 3 3 3 3 4 5 5 6 6 5 5 4 4 4 3 3 3 3
5 5 5 6 9 12 14 17 19 19 19 19 19 18 17 15 13 10 8 5 3 2 2 3 4 5 5 5 6 5 4 3 2 2 2 3 4 5 5 5 5 5 5 4 4 3 3 3 3
4 3 4 5 8 10 12 15 17 17 19 19 19 19 17 15 13 11 9 7 5 3 3 3 4 5 6 6 6 6 5 4 3 2 1 2 4 4 5 5 5 5 5 4 4 3 3 3 3
4 3 3 4 6 8 11 13 15 16 18 19 19 19 18 16 14 12 10 8 6 4 4 4 5 5 6 7 7 7 7 5 4 3 1 1 2 4 4 4 5 5 4 4 3 3 3 3 3
4 3 3 4 5 7 9 11 13 15 16 18 19 18 18 17 15 14 12 10 7 6 5 5 5 6 7 8 9 9 8 7 5 4 2 0 1 3 3 4 4 4 4 3 2 2 2 2 2
4 4 4 5 6 6 7 10 12 14 16 17 18 19 18 17 16 15 14 12 9 7 6 5 5 6 8 9 10 10 9 8 7 6 4 3 1 1 2 3 3 3 3 2 2 1 1 1 1
6 6 6 7 7 7 7 9 11 13 15 16 17 19 19 19 17 17 15 14 11 8 6 6 6 7 8 9 10 11 10 9 8 7 6 4 3 1 2 2 2 3 2 2 1 1 1 0 1
8 8 8 9 9 9 9 9 10 11 13 15 16 18 19 20 19 18 16 14 12 10 8 8 7 8 8 9 11 12 11 10 9 8 7 6 4 3 2 2 2 1 1 1 1 1 1 0 1
10 10 11 11 11 11 11 11 11 10 12 14 15 17 20 20 20 19 17 15 13 11 9 9 8 8 9 10 11 13 13 12 10 9 8 6 6 4 3 3 2 1 1 1 1 1 1 1 1
10 11 12 13 13 13 14 13 11 10 12 14 16 18 19 20 21 19 18 17 13 11 9 9 9 9 11 11 12 14 14 14 12 11 9 8 7 6 4 4 3 2 2 1 1 1 1 1 1
10 11 13 14 15 15 15 15 12 10 11 13 15 17 18 19 21 20 19 16 14 12 10 9 10 9 11 12 13 14 15 15 14 13 11 10 9 7 6 5 4 3 2 2 2 2 2 1 1
11 11 12 13 14 15 15 14 13 11 11 12 14 16 17 19 21 20 19 16 14 12 10 10 9 10 11 12 13 14 15 15 15 14 13 12 10 8 7 6 5 4 3 3 3 2 2 2 1
11 11 12 13 14 14 14 13 12 11 12 12 14 15 16 18 19 20 19 15 14 11 10 8 7 8 10 11 13 14 16 16 15 15 14 13 12 10 9 7 6 5 5 4 3 3 3 2 2
13 12 12 13 14 14 14 12 12 12 12 13 15 15 16 17 18 19 19 15 14 11 9 7 6 7 9 11 13 14 16 16 16 16 15 14 12 11 10 8 7 6 6 5 4 4 4 3 2
14 13 13 13 14 15 14 12 12 13 13 14 15 16 16 16 18 18 17 14 14 12 10 9 8 8 10 12 12 14 16 16 17 17 16 15 13 12 11 9 8 7 7 6 5 5 4 4 3
15 14 14 14 15 16 16 15 15 15 14 14 15 16 16 17 18 18 16 14 14 12 11 9 8 8 10 10 11 13 15 17 17 18 17 16 14 13 11 10 9 8 7 7 6 5 5 4 4
16 16 15 15 17 18 19 18 17 16 15 15 15 15 16 17 18 18 16 14 13 12 11 9 10 9 9 10 11 13 15 17 17 18 17 17 15 14 13 11 9 8 8 8 8 7 6 5 4
17 16 15 16 19 20 20 19 18 17 17 17 16 17 17 17 18 18 16 14 12 11 11 10 10 10 10 10 10 13 15 16 17 18 18 18 17 16 14 13 12 10 9 9 8 7 6 5 4
18 17 16 17 20 22 21 20 19 18 18 18 17 17 17 17 18 18 17 15 13 11 10 9 9 10 10 11 12 13 15 16 17 18 19 18 18 17 16 15 14 12 11 10 9 9 8 6 5
19 18 18 19 21 22 22 20 18 18 19 18 17 16 16 17 17 17 16 15 14 12 10 7 8 10 11 11 12 13 14 15 15 16 18 19 18 18 18 17 16 14 13 12 11 10 9 8 7
19 20 21 21 22 21 22 21 17 18 18 18 16 14 15 15 15 15 15 15 14 12 10 8 8 9 10 11 11 13 15 15 16 17 19 19 19 18 18 18 17 15 14 13 12 11 11 10 8
20 22 22 22 22 21 21 21 17 18 17 15 14 12 13 13 14 15 14 13 12 11 10 8 8 8 10 11 12 12 15 16 16 17 19 19 19 19 18 18 17 16 15 14 13 12 12 11 10
21 22 23 22 22 21 19 20 16 15 15 14 12 11 12 13 14 14 12 11 10 10 9 8 7 8 10 11 12 13 14 16 17 18 19 20 20 19 19 18 17 17 16 15 14 13 13 12 12
22 22 22 22 21 19 17 17 15 13 13 12 12 11 12 13 12 11 10 9 8 9 8 7 7 8 9 10 11 11 14 16 17 19 20 21 21 20 20 20 19 18 17 16 15 15 15 14 14
22 22 21 20 19 17 17 16 14 12 11 11 10 10 11 12 10 9 9 7 7 7 7 7 7 8 8 10 11 12 13 15 17 20 20 20 21 20 21 20 20 19 17 16 16 16 16 16 16
22 22 21 20 19 18 16 15 13 11 10 11 10 10 10 10 9 8 7 6 6 6 6 6 6 8 9 10 11 12 14 15 17 20 21 21 20 20 20 20 20 20 19 18 18 17 17 17 17
22 21 20 19 18 17 15 13 11 9 9 9 8 9 9 9 9 8 6 6 6 5 5 4 5 7 9 10 11 12 13 15 17 18 20 20 21 20 19 20 20 20 20 20 19 18 19 19 18
22 22 21 20 19 17 15 13 11 10 9 8 7 8 8 9 9 8 8 8 7 5 4 4 5 5 7 9 10 12 13 14 15 17 19 20 20 20 20 20 21 21 21 21 20 20 20 20 20
24 23 22 20 19 17 16 13 11 10 10 9 8 8 8 8 8 7 7 8 7 6 6 5 5 5 6 7 9 10 12 14 15 17 18 18 20 20 20 21 21 21 21 21 21 21 21 21 21

GEFSSGP_500_meanwind_126.txt.gz
Wind_Speed
11 12 12 12 14 15 12 11 13 14 14 13 13 13 13 12 10 8 6 4 3 4 6 7 8 8 7 7 7 7 8 8 9 9 9 9 9 9 8 8 8 7 7 6 6 6 6 6 6
10 10 11 11 14 11 11 12 13 13 13 13 13 13 13 12 10 8 6 4 2 3 4 6 8 8 8 8 8 8 8 8 9 8 9 9 9 8 8 8 8 7 7 6 6 6 6 6 6
9 9 9 10 10 8 9 10 11 12 12 13 13 13 13 12 10 9 7 5 3 1 2 4 6 7 8 8 8 8 8 8 8 8 9 9 8 8 8 7 7 7 7 7 6 6 6 6 6
8 8 9 10 7 7 8 9 9 10 12 13 13 14 13 12 11 10 8 6 4 1 1 3 5 6 7 8 9 9 8 8 9 9 9 9 8 8 7 7 7 7 7 7 6 6 6 6 6
7 7 8 7 6 6 7 8 9 9 10 12 13 13 14 12 11 10 9 7 5 3 1 2 4 6 8 8 9 9 9 9 9 9 8 8 8 7 7 7 7 7 6 6 6 6 6 6 6
6 6 6 3 5 6 7 8 8 9 9 10 12 12 13 12 11 11 10 8 6 4 2 2 4 6 8 9 9 10 10 9 9 9 8 8 7 7 7 7 6 6 6 6 6 5 5 5 5
5 6 4 4 6 6 7 7 7 8 8 9 10 11 12 12 12 11 10 9 7 5 3 3 4 6 8 9 10 10 10 10 10 9 9 7 7 7 6 6 6 6 5 5 5 5 4 4 5
5 5 5 5 6 6 6 7 7 7 7 9 9 10 11 12 12 12 11 10 8 6 4 4 5 6 8 9 11 11 11 11 11 10 9 8 7 7 6 6 5 5 5 5 5 4 4 4 4
5 4 3 5 5 6 7 7 7 7 7 9 10 10 11 11 12 13 12 11 9 7 6 5 6 7 9 10 11 12 12 12 12 10 9 9 8 7 7 6 5 5 5 5 5 4 4 3 3
5 3 4 5 6 6 6 7 7 8 9 10 11 11 11 11 12 13 13 11 10 8 7 6 6 7 9 10 12 13 13 13 12 11 11 9 8 7 7 6 6 5 5 5 4 4 3 3 3
6 5 5 5 6 6 6 6 7 8 9 10 11 12 12 12 13 13 13 12 10 9 8 7 7 8 9 11 12 13 13 14 13 12 11 10 9 8 8 7 6 6 5 5 4 4 3 3 3
7 7 7 7 6 6 6 7 8 8 8 10 11 12 12 13 14 13 13 12 11 9 9 8 7 7 10 10 12 13 14 15 15 13 12 11 10 10 9 8 6 6 6 5 4 4 3 3 3
8 8 8 8 8 8 8 8 8 8 9 10 11 12 13 14 14 13 12 12 12 10 10 9 7 7 9 10 12 13 14 15 15 14 14 13 12 11 10 9 7 6 6 5 4 4 4 3 3
9 9 9 10 10 9 9 8 8 8 9 10 12 13 14 14 14 13 12 13 12 11 11 9 8 9 9 10 11 13 14 15 15 15 15 14 13 12 11 9 8 7 7 6 5 5 4 3 3
10 10 11 11 11 10 9 8 9 9 10 11 12 13 14 15 14 13 13 13 12 11 11 10 8 9 8 10 11 11 13 14 15 15 15 15 14 13 12 10 9 8 7 6 5 5 5 4 4
11 11 12 13 12 11 10 9 11 11 11 12 13 14 14 15 14 13 13 13 13 12 11 10 8 8 9 10 12 13 13 14 16 16 16 16 15 15 13 12 10 9 8 7 6 5 5 5 4
13 12 13 14 13 12 11 10 12 12 12 12 13 14 15 15 14 14 14 14 13 13 12 10 9 9 9 10 12 13 13 14 16 16 16 16 16 15 14 13 11 10 9 8 7 6 6 5 5
14 13 14 15 15 13 12 12 13 13 13 14 14 15 16 15 15 15 14 13 13 13 12 10 10 9 9 10 13 13 13 14 17 18 16 16 16 16 15 14 13 11 10 9 8 7 6 6 6
15 15 15 16 15 14 13 13 14 14 15 15 15 15 15 15 15 14 13 13 13 13 12 12 11 11 10 11 13 14 14 14 16 18 18 17 16 16 16 14 13 12 11 10 9 8 7 6 6
16 16 16 17 16 15 14 14 15 15 15 15 15 15 15 15 14 13 13 12 13 13 13 12 11 11 11 11 13 14 14 14 15 18 19 18 17 17 16 16 15 13 12 11 10 9 8 7 7
18 17 17 17 17 16 15 15 15 15 15 15 15 14 15 14 13 13 13 12 12 12 12 11 9 8 9 10 12 14 14 14 14 16 19 18 18 18 18 17 16 14 13 12 11 10 9 9 8
20 19 18 18 16 17 16 13 15 15 15 14 14 13 13 13 13 13 14 13 13 12 11 10 8 8 8 10 10 12 13 14 14 16 18 18 18 18 19 18 17 16 15 13 12 11 11 11 10
22 21 19 18 17 16 16 15 14 14 14 13 13 13 13 13 13 13 13 13 12 11 10 10 8 8 8 8 9 11 13 15 16 16 17 19 19 19 19 18 18 17 16 15 14 13 13 12 12
22 21 20 18 17 16 16 15 13 13 13 12 13 13 13 13 13 13 12 12 11 11 10 10 8 8 8 8 9 11 13 14 16 16 17 18 19 20 20 19 19 19 18 17 16 15 14 14 13
22 20 19 17 16 15 17 14 13 13 12 12 12 12 11 12 12 11 10 11 11 10 10 9 8 8 8 9 9 11 12 13 15 16 17 18 18 20 20 20 19 19 19 18 17 16 16 16 15
22 20 18 15 13 14 17 13 12 12 11 10 10 9 9 9 10 9 9 9 9 9 9 8 7 7 7 8 9 11 12 12 14 16 17 18 19 19 20 20 20 20 20 19 18 18 18 17 17
22 20 19 18 16 14 14 13 12 11 10 9 9 7 7 7 8 8 8 8 8 8 7 6 7 7 7 8 9 10 11 13 14 16 16 18 19 20 20 20 20 21 21 21 20 19 19 18 18
22 21 20 18 16 13 13 12 10 10 8 7 7 7 7 6 6 6 6 7 7 7 7 6 6 6 7 8 9 10 11 12 14 15 16 17 19 20 19 21 21 22 22 22 21 21 20 20 20
21 21 20 18 17 13 10 11 12 10 8 7 7 7 6 6 7 6 6 6 7 6 6 6 6 5 6 8 9 10 11 12 13 15 16 17 19 21 21 21 22 22 23 23 22 22 21 21 21
22 21 19 18 17 14 11 12 13 10 9 9 8 8 7 7 7 7 6 6 5 5 6 5 5 5 6 6 8 11 12 12 13 15 16 17 18 20 21 22 22 22 23 23 23 23 22 22 22

GEFSSGP_500_meanwind_132.txt.gz
Wind_Speed
14 14 13 14 19 20 14 12 11 11 11 10 9 8 8 8 7 5 4 3 1 0 1 2 3 4 4 5 5 5 6 6 7 7 7 6 6 6 6 5 6 6 6 6 5 5 5 5 5
14 12 12 15 20 16 11 12 12 13 12 11 10 9 9 8 7 6 5 4 2 1 1 2 3 4 4 4 4 5 6 6 6 6 7 6 5 5 5 6 6 6 6 6 5 5 5 5 5
13 11 12 16 18 12 10 11 12 13 12 11 10 10 10 9 8 6 6 5 3 1 2 3 4 5 5 5 5 6 6 6 7 7 7 6 6 6 5 5 5 6 6 6 5 5 5 5 5
11 11 13 16 14 10 10 11 11 11 12 11 11 10 10 9 8 7 6 5 3 2 2 3 4 5 6 6 6 7 7 7 7 7 7 6 6 6 5 5 5 6 6 6 6 5 5 5 5
9 9 11 14 10 7 9 10 10 10 11 11 12 12 10 10 9 8 7 6 4 3 2 3 4 5 6 6 7 7 7 8 8 7 7 6 6 6 6 6 5 5 6 5 5 5 5 5 5
7 9 10 10 8 6 9 9 10 10 9 10 11 12 11 12 11 10 9 7 5 3 2 3 4 6 7 7 8 8 7 8 8 7 7 6 6 6 6 6 5 5 5 5 5 5 5 5 5
6 8 9 6 5 5 7 8 8 10 10 11 12 12 12 12 12 12 11 9 7 6 5 4 5 6 7 8 8 9 8 9 9 8 7 7 6 6 6 5 5 5 5 5 5 5 5 5 5
5 7 7 4 4 5 7 8 9 9 10 11 12 14 14 13 13 12 12 11 9 8 7 5 5 6 8 8 9 10 10 10 10 9 8 8 7 7 6 6 5 5 6 6 5 5 5 5 4
5 6 4 3 1 6 8 8 9 10 10 8 10 13 15 14 14 13 13 12 10 9 8 6 5 6 8 9 9 11 11 11 11 10 10 9 8 8 7 6 6 5 6 6 5 5 4 4 4
3 4 2 1 3 8 9 8 8 11 13 13 12 13 15 16 15 14 14 13 12 10 9 8 6 6 8 9 10 11 12 11 12 12 11 10 9 9 8 7 6 5 6 6 5 5 4 4 4
2 0 3 4 7 9 8 8 9 12 15 15 16 14 15 16 16 16 15 14 13 12 10 9 7 7 7 9 10 10 11 12 12 13 12 11 11 9 8 6 7 6 6 6 5 5 4 4 4
2 3 5 6 8 8 8 8 9 11 13 15 17 15 15 16 16 16 15 14 13 12 12 10 9 7 7 8 9 10 12 13 12 12 13 12 11 10 8 7 7 6 6 5 5 5 4 4 4
3 5 6 7 8 8 9 9 9 11 12 14 15 15 16 16 17 16 14 13 13 13 13 12 11 10 8 8 10 11 12 13 13 13 13 13 12 10 8 7 7 7 6 6 6 5 5 4 4
4 6 6 6 8 8 9 10 11 12 13 14 15 15 16 16 16 15 14 13 13 14 13 13 12 10 9 9 9 10 11 12 12 12 13 13 12 11 9 8 7 7 7 6 5 5 4 4 4
5 6 5 7 9 8 9 10 11 13 14 14 14 15 16 16 15 15 14 14 14 14 13 14 13 10 10 9 10 10 10 11 11 11 12 13 12 11 10 9 8 7 7 6 5 5 4 4 4
6 6 7 8 10 10 10 10 12 14 14 15 15 14 15 15 15 15 14 14 14 14 13 14 13 12 11 10 9 9 10 11 12 11 11 12 12 12 11 10 9 8 7 6 6 5 4 4 4
6 8 9 9 12 12 11 11 13 14 15 17 18 15 14 15 16 16 14 14 14 14 14 14 14 13 12 10 8 8 10 10 11 11 12 13 13 13 12 11 10 9 8 7 6 5 5 4 5
5 7 8 10 14 14 12 12 13 14 15 17 19 18 16 16 16 16 16 15 15 15 14 14 14 13 13 11 9 8 9 10 11 11 13 14 14 14 13 12 11 10 10 8 7 6 5 5 6
10 10 11 11 14 15 14 12 13 15 16 18 19 19 18 16 16 16 16 15 15 15 14 13 13 13 12 11 9 9 9 10 11 11 12 13 13 14 13 13 12 11 11 10 9 8 7 7 6
13 13 12 12 15 16 15 13 12 15 17 18 19 19 18 17 15 16 15 14 14 14 14 13 12 12 11 9 8 8 9 10 11 11 11 12 13 14 14 13 13 12 12 11 10 9 8 8 7
15 15 14 13 15 15 14 14 14 16 17 17 17 18 19 18 17 15 14 13 13 13 14 13 11 12 11 9 8 9 8 9 10 11 12 13 14 15 15 14 14 13 12 12 11 10 10 9 8
17 15 16 15 16 14 13 14 15 17 18 17 18 18 18 18 17 15 14 13 13 13 13 12 11 11 10 9 9 9 9 9 9 10 11 14 15 16 16 15 15 14 14 13 12 12 11 11 10
18 16 16 16 16 14 12 13 15 16 18 17 18 18 18 18 16 15 14 13 13 13 13 12 11 11 10 10 9 9 9 9 10 10 12 13 15 15 16 16 16 16 15 14 14 14 13 12 12
18 18 17 16 14 14 12 12 13 17 17 18 19 18 17 17 16 14 12 12 12 12 12 11 10 10 10 9 9 9 9 9 10 11 12 13 14 15 15 16 16 17 17 16 16 15 15 14 13
19 18 16 14 14 13 10 11 13 18 19 19 20 20 18 16 15 13 12 11 11 11 11 10 9 10 9 9 9 9 9 10 11 12 13 14 15 15 16 16 16 17 18 18 17 16 16 15 15
19 18 16 12 11 13 11 12 15 16 18 18 18 18 16 14 13 13 11 10 10 10 10 9 10 9 9 9 9 10 10 10 11 12 13 14 15 16 17 17 16 17 18 19 19 18 18 17 16
20 19 16 16 15 14 13 14 16 17 18 17 16 15 14 13 12 11 10 10 9 9 9 9 9 9 8 8 9 9 10 11 12 13 14 14 15 16 17 18 17 18 20 20 20 20 20 19 18
20 18 17 19 18 16 15 15 17 18 17 16 15 15 14 13 12 10 9 9 9 8 9 8 8 7 6 7 8 9 10 10 12 12 13 14 14 15 16 17 18 19 20 21 21 21 21 21 21
19 20 20 18 18 15 15 18 19 16 16 16 16 16 14 12 12 11 9 9 9 9 9 9 8 7 7 7 8 9 10 10 10 12 13 14 15 15 16 17 18 19 21 21 22 22 23 23 22
19 19 20 21 19 18 17 19 19 16 15 17 16 15 15 13 13 12 11 10 9 9 9 8 7 7 7 8 8 9 9 10 10 11 12 14 16 17 18 18 19 19 20 22 22 22 23 23 23

GEFSSGP_500_meanwind_138.txt.gz
Wind_Speed
14 14 14 14 17 20 21 21 20 19 17 18 17 16 16 15 13 11 9 6 5 5 4 3 3 3 3 2 1 1 1 1 2 2 3 2 2 2 2 1 1 2 2 2 3 4 4 4 4
13 13 13 13 17 18 20 20 19 19 19 19 17 16 15 13 13 11 9 7 6 4 3 2 2 2 2 1 1 1 1 1 2 2 3 3 3 3 3 2 2 2 2 2 3 4 4 4 4
11 11 12 14 16 17 18 18 19 20 19 18 17 16 15 13 12 11 9 8 7 4 2 1 1 1 2 2 2 2 2 2 2 2 3 3 3 3 3 3 3 3 2 2 3 3 3 4 4
9 9 10 13 15 16 16 17 18 19 19 17 17 17 16 15 13 12 11 10 8 5 3 1 0 2 2 3 3 3 3 3 2 2 3 3 3 3 3 3 2 3 3 3 3 3 3 4 4
6 7 9 11 13 13 14 15 17 19 19 17 16 17 16 16 15 13 11 10 9 7 3 2 1 2 3 4 4 4 4 3 3 3 3 3 3 3 2 3 3 3 3 3 3 3 3 4 4
4 5 8 10 10 10 12 13 14 16 18 17 17 16 15 15 14 12 12 11 9 8 5 3 2 3 4 5 5 5 4 4 4 3 3 3 3 3 3 3 3 3 3 3 3 3 3 4 4
3 4 8 10 8 8 10 12 14 16 17 17 16 16 15 14 13 12 11 11 9 8 7 4 3 3 4 5 5 5 5 5 5 4 4 3 3 3 3 3 3 3 3 3 3 3 3 4 4
2 3 5 8 8 8 10 11 13 15 16 17 17 17 15 14 13 12 12 11 10 9 7 6 4 3 4 5 6 6 6 6 5 5 4 4 4 3 3 3 3 3 3 3 3 3 3 4 3
2 3 4 5 6 7 9 11 13 15 17 17 18 18 17 15 14 13 12 10 9 9 9 7 5 4 4 5 5 6 7 7 7 6 6 5 5 4 4 4 4 3 3 3 3 3 3 3 3
2 1 2 4 5 5 6 9 13 15 16 16 17 18 16 16 14 13 12 10 9 9 9 7 6 5 4 5 6 6 7 7 8 7 7 7 6 5 5 4 4 3 3 3 4 3 3 3 3
4 3 1 2 4 5 7 9 11 14 15 15 16 16 16 16 15 14 12 10 9 8 8 8 8 6 5 4 5 5 7 8 8 8 8 7 7 7 6 5 4 4 4 4 4 4 3 3 3
7 5 4 4 4 5 7 8 11 13 14 15 15 14 16 16 14 14 12 10 9 8 8 8 8 7 6 4 4 5 6 7 8 9 9 9 8 8 7 6 5 4 4 4 4 4 3 3 3
7 6 5 4 3 4 6 7 10 12 14 15 16 16 16 17 15 13 11 11 9 9 9 9 8 8 6 4 4 5 6 7 9 9 10 9 9 8 7 7 6 5 5 5 4 4 4 3 3
5 3 2 3 3 4 5 7 11 12 13 15 16 16 15 15 15 13 12 11 8 8 9 8 8 8 6 3 4 5 6 8 9 10 10 10 10 10 9 8 7 6 6 6 5 5 4 3 3
4 2 1 2 3 5 7 8 11 12 13 16 17 16 16 15 14 14 12 11 10 9 8 8 8 7 5 4 4 4 5 7 10 10 10 10 11 11 10 9 8 7 7 6 6 5 5 4 4
5 4 3 2 3 5 8 9 12 13 14 15 17 17 17 17 15 14 12 11 10 9 9 8 8 8 6 4 4 4 5 7 9 10 11 11 11 11 12 11 10 9 8 7 8 6 5 5 5
7 6 6 4 3 6 8 10 13 13 15 16 17 18 18 17 15 13 12 12 11 10 9 8 9 8 7 5 4 4 5 6 9 10 11 11 12 12 12 11 10 10 9 8 8 7 6 6 6
9 9 7 6 5 7 9 11 13 15 15 15 16 18 17 16 15 14 13 12 12 12 10 9 8 8 7 5 5 5 5 6 8 10 10 11 12 12 12 12 11 10 10 9 9 8 7 7 6
11 11 9 7 6 8 9 12 13 14 14 15 16 17 17 17 15 14 14 13 13 12 11 9 8 8 7 6 6 5 5 6 8 9 10 10 12 12 12 13 12 12 11 10 9 9 8 8 7
12 12 10 9 9 11 11 12 13 14 15 15 16 18 17 17 15 14 14 14 13 12 11 9 8 8 7 7 6 5 5 6 7 9 11 11 13 13 13 13 13 13 12 11 10 9 9 9 8
13 13 11 11 13 14 14 13 13 13 14 15 16 17 16 16 15 15 14 13 12 11 11 9 8 8 7 7 6 5 6 6 7 8 10 11 13 14 14 15 14 13 13 12 11 11 10 10 9
14 13 13 14 14 14 16 16 13 13 13 14 15 15 16 16 15 14 13 12 10 10 10 9 8 7 7 7 6 5 6 6 7 8 9 11 12 12 13 15 15 14 14 14 13 12 11 11 11
15 15 15 15 15 15 15 16 13 14 14 14 14 15 15 16 15 14 13 11 9 8 8 8 7 7 7 7 7 7 7 7 8 9 9 11 12 13 14 15 15 15 15 15 14 13 13 13 12
16 17 17 16 15 14 12 15 15 15 14 14 14 15 15 15 15 13 12 10 9 8 8 7 7 7 7 8 8 8 8 9 9 9 9 11 12 13 14 14 15 15 15 15 15 15 15 14 14
18 17 17 17 15 13 13 14 13 13 14 14 14 15 15 14 13 12 12 10 9 9 8 7 7 7 7 7 8 8 8 9 9 10 10 10 12 13 14 14 14 15 16 16 16 16 16 16 16
17 17 18 17 16 14 14 14 12 13 14 14 13 14 14 13 12 11 11 10 8 8 8 8 7 8 8 8 8 8 8 9 9 10 10 11 12 13 15 15 15 15 16 16 17 17 18 18 18
17 18 18 19 18 18 15 14 12 14 16 15 14 14 13 12 11 10 9 8 7 8 8 7 7 7 8 8 8 8 8 9 9 9 10 11 12 13 15 16 16 16 17 17 18 18 19 19 20
18 17 19 21 20 20 17 15 14 14 14 13 14 13 12 13 11 9 8 7 7 7 7 7 6 6 7 7 6 6 7 8 9 9 10 11 13 14 15 16 17 18 18 19 19 19 20 20 21
18 17 18 20 22 21 20 18 16 16 16 15 14 12 11 10 9 8 8 8 7 7 8 8 8 7 7 6 6 6 6 7 8 9 10 11 13 14 15 16 17 17 18 18 19 20 21 21 21
21 19 19 20 20 21 21 19 18 17 16 15 14 13 10 9 9 9 8 8 7 8 8 8 8 7 6 5 5 6 6 7 8 9 10 11 12 13 15 16 17 18 18 19 20 21 21 21 21

GEFSSGP_500_meanwind_144.txt.gz
Wind_Speed
13 13 14 16 19 21 23 25 25 23 22 23 21 20 18 15 13 11 11 10 8 6 5 3 3 4 4 5 5 6 7 7 7 6 6 5 5 5 4 4 3 3 3 3 3 4 4 4 5
11 12 13 15 18 19 22 24 23 22 22 22 21 20 18 15 14 12 11 10 8 6 5 4 3 3 4 4 5 5 6 6 6 6 6 5 5 5 5 4 3 3 3 3 3 3 4 4 4
9 10 11 14 16 18 21 22 22 22 22 22 22 20 18 16 14 12 11 9 7 5 4 4 4 4 4 4 4 4 5 5 6 6 5 5 5 5 4 4 4 3 3 3 3 3 3 4 4
7 8 10 13 15 17 19 20 21 21 22 21 20 19 18 16 14 13 11 10 8 6 4 4 4 4 3 3 4 3 4 4 5 5 5 5 5 5 4 4 4 3 3 3 3 4 3 4 4
6 6 8 11 13 16 17 18 19 20 20 20 19 19 18 16 14 13 11 10 8 7 5 4 3 3 3 2 2 3 3 3 4 4 4 5 5 5 5 4 4 4 3 3 3 3 3 4 4
5 5 6 8 10 13 15 17 18 18 18 19 19 18 18 17 15 13 12 10 8 7 6 4 3 2 2 1 1 1 2 2 2 3 4 4 4 4 4 4 4 3 3 2 2 3 2 3 3
4 3 4 7 9 11 12 14 16 16 16 17 18 18 17 17 15 14 13 10 9 8 7 6 3 2 1 1 0 0 1 1 2 2 2 2 2 3 4 4 3 3 3 2 2 3 2 2 3
2 2 3 5 7 9 10 12 14 15 16 16 17 18 18 18 16 14 13 11 9 8 8 7 5 2 1 0 0 1 2 2 2 2 1 1 1 2 2 3 3 2 2 2 3 2 2 2 2
1 1 4 6 7 8 10 11 12 14 14 15 17 17 18 18 17 14 13 11 9 9 8 7 6 4 2 0 0 1 2 3 3 2 2 1 1 1 2 2 3 2 2 2 2 2 2 2 2
2 3 4 6 7 8 9 10 11 13 14 14 15 16 17 18 17 15 13 12 10 8 8 8 7 4 3 1 0 1 2 3 3 3 3 2 2 1 1 1 2 2 2 2 2 2 2 2 2
4 5 5 6 7 7 8 10 11 12 13 13 13 14 15 17 16 15 14 12 9 8 8 8 7 5 3 1 1 1 2 3 4 3 3 3 3 2 2 1 1 1 2 2 2 2 2 2 1
4 5 6 6 6 7 8 9 10 11 11 11 12 13 15 15 16 15 13 12 10 9 8 8 7 5 4 3 2 2 2 3 5 4 4 4 4 4 3 3 2 2 2 2 2 2 2 2 2
4 5 5 5 5 5 6 7 9 10 10 10 11 13 14 14 14 14 13 11 9 9 9 7 7 6 5 3 2 3 3 4 5 6 6 6 6 5 5 4 4 3 3 3 2 2 2 2 2
4 4 4 4 4 5 5 6 8 9 9 10 11 12 13 13 12 13 13 11 9 8 8 8 8 6 5 2 2 3 4 4 5 6 7 7 7 7 6 5 5 5 4 4 3 3 2 3 3
4 4 4 5 6 5 4 5 6 9 10 10 11 12 12 12 12 13 12 10 10 9 8 8 8 6 5 3 3 3 4 4 4 5 7 8 8 8 8 7 7 6 6 5 5 4 4 4 4
6 6 6 7 7 7 6 5 6 8 9 9 10 11 12 12 12 12 11 10 11 10 9 9 8 6 5 4 4 4 4 4 5 6 7 8 9 9 9 8 8 8 7 6 6 6 5 5 4
9 8 8 9 10 10 8 7 7 8 9 9 10 11 12 12 12 11 11 11 11 11 10 9 7 6 5 4 5 5 5 5 5 6 7 8 9 8 9 9 9 8 8 8 8 7 6 6 6
11 11 11 11 11 11 10 9 9 8 9 10 10 11 13 12 12 12 11 11 11 11 10 9 8 7 5 5 6 6 5 6 6 6 7 8 9 9 9 9 10 9 9 9 8 8 8 7 7
13 12 12 13 14 13 12 11 10 10 10 11 11 12 13 13 14 13 12 11 11 10 9 8 8 7 5 5 6 6 5 7 7 7 7 8 9 9 10 10 10 10 10 9 9 8 8 8 7
14 13 14 15 15 14 14 13 12 12 12 12 12 13 14 14 14 14 13 12 11 10 9 9 8 7 6 6 7 6 6 6 7 7 8 8 8 9 10 10 10 10 10 10 10 9 8 8 8
15 15 16 17 17 16 15 14 13 13 13 13 13 13 13 14 14 14 13 13 11 11 11 10 8 8 7 6 6 6 6 6 7 7 8 8 7 8 10 11 11 11 11 11 11 10 10 10 9
17 18 18 18 18 18 17 16 13 13 13 13 13 13 13 13 14 14 14 14 12 11 10 8 8 8 8 7 7 7 6 7 7 7 8 8 9 9 10 12 12 13 13 13 13 12 12 12 11
19 20 19 19 18 19 19 18 14 14 13 13 12 13 12 12 13 13 14 13 11 10 8 7 7 7 7 7 7 8 8 8 8 8 8 9 10 11 11 12 13 14 14 15 14 14 13 13 13
20 21 20 20 19 19 19 19 15 14 13 13 13 12 12 12 13 13 12 12 10 8 7 7 7 7 6 7 7 8 8 9 10 9 9 9 10 11 12 13 14 14 15 15 15 15 15 15 15
22 21 21 20 20 19 18 18 16 14 13 13 12 12 11 11 13 13 11 11 9 8 7 7 7 7 7 7 8 8 8 9 10 10 10 10 11 12 13 14 14 15 16 16 17 17 17 17 16
23 22 22 21 20 19 19 18 15 13 13 12 11 10 10 11 12 12 12 10 9 7 7 7 6 7 7 7 7 8 9 9 10 10 11 11 12 13 13 14 15 16 16 17 17 18 18 18 18
24 23 22 22 21 20 19 17 14 13 12 12 11 10 11 12 12 12 12 11 9 8 8 7 5 5 6 7 7 7 7 8 9 10 11 11 12 13 14 14 15 16 17 17 18 18 19 19 20
26 24 24 23 22 21 19 17 15 13 13 12 10 11 12 12 12 12 12 10 8 7 7 6 6 6 6 6 7 7 7 7 8 9 10 12 13 13 14 15 16 17 17 18 19 19 20 21 21
27 25 25 24 23 21 19 16 15 14 13 12 12 11 12 12 12 12 11 10 8 7 7 7 7 7 6 6 7 7 7 7 7 8 10 11 12 13 14 15 16 18 19 20 20 20 21 22 22
28 26 25 24 22 21 20 16 15 14 13 13 12 11 11 12 12 11 11 10 8 7 7 7 6 6 6 6 6 6 6 7 8 8 9 10 11 13 14 15 16 18 19 20 20 20 21 22 23

GEFSSGP_500_meanwind_150.txt.gz
Wind_Speed
16 15 15 15 19 17 17 18 18 18 18 18 17 17 16 15 13 12 11 10 9 7 6 5 5 5 6 6 7 8 9 9 9 9 9 9 8 8 7 7 7 7 6 6 7 7 6 6 6
16 16 15 16 18 15 16 17 18 19 18 18 17 17 16 15 13 12 10 10 8 7 6 5 4 4 5 6 7 8 8 9 9 9 9 8 8 8 8 7 7 7 6 7 7 7 6 6 6
15 15 15 16 14 13 14 16 17 18 18 18 18 17 15 15 14 12 10 9 8 6 5 4 4 4 5 6 7 8 8 9 9 9 8 8 8 8 8 8 7 7 6 6 6 6 6 6 6
14 14 15 15 12 12 13 15 16 17 18 18 17 17 16 15 13 12 11 10 8 6 5 4 3 4 5 6 6 7 8 8 8 8 8 8 8 8 8 8 7 7 6 6 6 6 6 7 6
13 13 14 11 11 11 11 13 15 16 17 17 17 17 16 15 14 12 11 10 8 6 5 4 3 3 5 5 6 6 7 7 8 8 8 8 8 8 8 8 8 7 6 6 7 7 6 6 6
12 13 10 8 10 11 11 12 13 14 15 15 16 16 16 15 14 13 12 10 9 7 5 3 2 3 3 4 5 6 6 7 8 8 8 8 8 7 8 8 8 7 6 6 6 7 6 6 6
11 11 8 7 8 10 10 10 12 13 14 14 14 15 15 15 14 13 12 10 9 7 5 3 2 2 2 3 4 5 6 6 7 8 8 8 7 7 8 8 8 7 7 6 6 6 6 6 6
9 9 7 6 7 8 10 10 11 12 13 13 13 14 14 15 14 13 11 10 8 7 6 4 3 1 2 3 4 5 6 6 7 7 7 7 7 7 8 8 8 7 7 6 6 6 6 6 6
8 8 5 5 6 7 8 9 10 10 11 12 12 12 13 13 13 12 11 10 8 7 6 6 4 1 1 2 3 4 6 6 7 7 7 7 7 7 7 7 7 7 6 6 6 6 6 6 6
6 6 4 5 5 6 6 7 8 9 10 11 11 11 12 13 12 12 11 9 8 7 6 6 4 2 1 2 3 3 4 5 6 6 6 7 6 6 6 6 6 6 6 6 6 6 5 5 5
5 4 4 5 5 5 6 6 7 8 9 10 10 11 11 12 12 11 10 9 8 7 6 5 3 2 1 1 2 2 3 4 5 5 6 7 6 6 6 6 6 6 6 6 5 5 5 4 4
3 3 3 3 3 4 5 5 6 7 8 9 10 11 11 12 11 10 9 8 7 6 6 5 4 1 0 1 1 2 3 3 4 5 6 6 6 6 6 6 6 6 6 6 5 4 4 4 4
2 2 2 2 2 3 4 4 5 6 7 8 10 11 12 11 10 9 9 9 7 7 6 5 4 2 1 1 2 2 2 3 3 5 5 6 7 6 6 6 6 6 5 5 4 4 4 4 4
0 0 1 2 3 3 3 4 5 6 7 9 10 11 11 10 11 10 10 9 8 8 7 6 5 3 2 2 2 3 2 2 3 4 5 6 6 7 6 6 6 6 6 5 5 4 4 4 4
1 1 2 3 3 3 4 4 5 6 8 8 9 11 11 11 11 11 10 10 9 8 8 7 6 4 3 3 3 3 3 2 3 4 5 6 6 6 7 7 7 7 7 6 6 5 4 4 4
3 2 3 4 3 4 4 4 6 7 8 9 9 10 10 11 11 11 10 10 10 9 9 8 7 5 4 4 4 4 4 3 4 5 6 6 6 6 7 7 7 7 7 7 6 5 5 4 4
4 4 4 5 4 4 5 5 7 7 8 9 10 10 10 11 12 12 11 11 11 10 9 8 6 6 5 5 4 5 5 5 5 5 6 6 7 7 7 8 8 8 8 8 7 6 5 5 4
7 6 6 6 5 5 6 6 7 8 8 10 11 11 11 12 12 12 11 12 12 12 10 8 7 7 6 5 6 6 6 7 7 6 6 7 7 7 7 8 9 10 10 9 8 7 6 6 6
8 8 9 8 7 6 6 7 8 9 9 10 11 11 12 13 13 12 11 12 12 12 11 10 9 8 7 7 7 7 8 7 7 7 7 7 7 7 7 8 9 10 10 9 9 8 8 7 7
10 10 11 10 8 8 8 8 9 10 10 10 11 12 13 13 13 12 12 12 12 12 11 11 9 9 9 8 8 7 7 7 8 8 7 8 8 8 8 10 10 11 11 11 10 10 9 8 7
12 12 12 12 10 9 9 10 11 11 11 11 11 12 13 13 14 14 13 13 11 11 11 11 11 10 9 8 7 8 7 7 8 7 7 7 8 8 9 10 11 11 12 11 11 10 10 9 9
14 14 13 12 11 11 10 9 13 12 12 12 12 12 13 13 13 13 13 13 12 11 11 12 11 10 9 7 7 7 7 7 7 7 7 7 8 9 9 10 11 12 12 12 12 12 11 11 11
16 15 14 13 13 13 13 11 12 13 12 12 12 12 13 13 13 14 13 13 13 13 11 11 11 9 8 7 7 7 7 7 7 7 8 8 8 9 10 10 12 13 13 13 13 13 13 12 12
17 15 15 14 14 14 14 13 12 13 12 12 12 12 12 13 13 13 13 13 12 12 11 10 10 8 7 7 7 7 7 8 8 9 9 9 10 10 11 11 12 13 14 14 14 14 14 14 14
18 16 15 14 14 15 14 13 14 13 12 12 12 11 12 12 12 12 12 12 12 11 10 9 9 8 8 8 8 8 7 8 8 9 10 11 11 11 11 12 13 13 14 15 15 15 15 15 16
19 18 16 14 13 14 15 14 14 13 12 12 11 11 11 12 11 11 11 12 13 12 10 9 9 9 8 8 8 8 8 8 8 8 9 10 11 11 11 12 13 13 14 15 16 16 16 16 17
22 20 19 18 17 15 16 15 14 13 13 12 11 11 11 11 11 11 11 12 13 12 10 10 10 9 9 9 8 8 8 9 9 9 9 9 10 11 12 13 13 14 15 16 17 17 18 18 18
23 22 21 18 17 15 16 15 13 13 13 12 12 11 11 12 12 12 11 12 11 10 9 9 9 8 8 8 8 8 9 9 9 9 9 9 11 12 12 14 15 15 15 16 17 19 19 20 20
25 24 22 20 19 15 13 14 14 13 13 12 11 11 11 12 12 11 11 11 10 8 8 8 8 8 8 8 8 8 8 9 9 9 10 10 11 11 12 13 15 16 16 17 18 19 20 21 22
26 24 23 21 20 17 15 15 16 14 14 13 13 13 12 11 11 11 11 10 9 8 8 9 8 7 7 7 8 8 8 8 9 10 10 10 11 11 12 13 14 16 17 17 18 19 21 22 22

GEFSSGP_500_meanwind_156.txt.gz
Wind_Speed
21 20 20 22 24 16 13 12 11 11 11 11 10 10 10 9 8 7 6 6 6 5 5 4 3 2 2 2 2 3 4 4 5 5 5 5 5 6 6 5 5 5 5 5 5 6 5 6 6
20 18 21 24 18 13 13 12 12 13 12 11 10 10 9 9 8 7 6 6 6 5 4 4 3 1 1 1 2 3 3 4 4 5 5 5 5 5 5 5 5 5 5 5 6 6 5 6 6
19 19 24 21 12 12 12 12 12 13 13 12 11 10 10 9 9 8 7 6 6 6 5 3 3 1 0 1 2 3 3 4 4 4 4 4 5 5 5 5 5 5 5 5 5 5 5 5 5
18 22 22 15 11 12 11 12 12 13 12 12 11 10 10 10 9 8 8 7 6 6 5 4 3 1 1 1 2 3 3 4 4 4 4 4 4 4 5 5 5 5 5 5 5 5 5 5 5
18 20 17 12 12 12 11 11 12 12 13 12 12 12 12 11 10 9 8 8 7 6 6 5 3 2 1 2 2 3 3 4 4 4 4 4 4 4 5 5 5 4 5 6 6 5 5 5 6
18 16 15 10 11 11 10 11 11 12 13 13 13 13 13 12 11 10 9 8 8 7 6 5 4 3 2 2 2 3 4 4 4 4 4 4 4 4 5 5 5 5 6 6 6 6 6 6 6
16 14 11 7 9 9 10 10 11 12 13 13 13 12 13 13 12 11 10 9 9 8 8 6 4 3 2 2 2 3 4 4 4 4 4 4 4 4 5 5 5 6 6 5 5 4 6 5 6
12 10 9 7 6 7 8 9 10 11 12 13 14 15 14 13 12 11 10 10 9 9 8 7 5 3 3 2 2 3 3 3 3 4 3 3 4 5 5 5 5 6 5 5 5 5 5 5 5
9 10 9 5 4 7 7 8 10 11 12 13 14 15 14 13 12 11 11 10 10 10 9 8 6 4 3 3 2 3 3 4 4 4 4 4 4 5 5 5 5 6 5 5 5 5 5 5 5
7 7 6 3 2 5 7 9 9 9 10 13 14 15 15 14 13 12 11 11 10 11 11 10 8 5 4 3 2 2 3 3 4 4 4 4 4 4 4 5 5 5 5 4 4 5 5 5 4
5 5 4 2 2 2 5 7 9 10 12 13 14 15 15 15 13 12 11 11 11 11 11 10 9 6 5 5 3 2 2 2 3 3 4 5 4 3 3 4 5 5 5 4 4 5 5 5 4
3 2 0 1 3 4 4 5 7 10 12 13 14 15 16 14 14 14 13 12 12 12 12 11 10 8 6 5 3 2 2 2 1 2 3 4 4 3 3 4 4 4 4 4 5 5 5 5 4
0 1 1 2 4 4 4 5 6 9 12 13 14 15 16 14 14 14 14 13 13 13 12 11 10 9 6 5 3 2 2 2 2 1 1 2 2 3 4 3 4 4 4 4 4 5 4 4 4
3 1 1 2 3 5 4 5 7 11 11 12 13 14 15 14 14 14 15 14 13 13 12 11 11 9 7 6 4 3 3 3 2 1 1 2 3 4 4 4 3 4 4 4 4 4 4 4 4
2 3 2 4 4 6 6 5 7 11 11 12 13 14 14 14 14 16 15 15 14 13 12 12 11 10 8 7 6 4 4 3 2 2 3 3 4 4 5 4 4 4 5 4 4 4 4 4 3
4 3 3 5 6 6 7 7 7 10 11 12 12 13 14 14 15 15 15 15 15 14 13 13 12 10 8 7 6 5 5 4 3 3 3 4 5 5 5 5 5 5 5 5 5 4 4 4 3
4 4 3 6 8 6 6 8 10 10 11 13 12 12 14 14 15 16 16 15 14 14 13 13 13 11 9 8 7 5 5 5 5 5 5 5 6 7 6 6 7 6 6 6 6 6 5 4 3
3 4 5 6 9 6 6 8 10 11 11 12 12 13 13 14 15 15 16 15 14 14 13 13 14 11 10 9 8 7 6 6 6 6 6 7 7 7 7 7 8 8 8 8 7 7 6 5 4
9 8 6 7 10 7 6 8 10 11 12 13 13 14 13 14 15 15 15 15 14 14 14 13 13 12 10 9 9 8 7 7 7 7 7 7 7 7 8 8 8 8 9 9 8 7 7 6 6
10 9 7 7 11 8 6 8 10 11 12 14 14 14 14 15 15 15 15 15 14 14 14 14 14 13 11 10 9 8 8 8 8 7 6 7 7 7 8 8 9 9 9 9 10 9 8 8 7
10 8 8 9 11 7 7 9 12 14 13 14 14 14 14 15 15 15 14 14 14 14 14 15 13 13 12 10 8 8 8 8 8 7 7 7 6 7 8 9 9 9 10 10 10 10 10 10 9
9 9 10 10 9 6 7 9 14 16 14 13 14 14 15 16 15 15 14 14 14 14 14 14 13 11 10 10 8 8 8 8 7 7 6 6 7 7 8 8 9 9 10 10 11 11 11 11 11
12 12 11 10 9 7 6 9 12 15 14 12 13 13 15 16 16 15 14 14 14 14 14 13 13 11 10 9 8 8 8 7 7 6 6 6 7 7 8 8 9 10 10 11 12 12 13 13 12
14 13 10 8 8 9 8 9 11 14 14 14 14 14 15 16 15 14 14 15 15 14 14 14 13 12 10 9 9 8 8 7 7 7 6 6 7 7 8 9 9 10 11 11 12 13 13 13 13
15 13 10 9 10 10 9 10 13 15 16 16 16 16 15 14 14 13 14 15 14 14 13 13 12 12 11 10 9 8 8 7 7 7 7 7 7 8 9 9 10 10 11 12 13 13 13 14 14
16 14 11 9 9 11 9 9 13 17 17 16 16 14 14 14 14 14 14 14 13 13 13 13 13 12 12 11 10 10 9 8 8 7 8 8 8 8 9 10 10 11 12 13 14 14 15 15 16
17 16 13 13 13 14 13 11 15 18 16 15 14 14 14 14 14 13 13 13 13 13 13 13 13 13 13 11 10 10 10 9 8 8 8 9 9 10 10 10 11 11 12 13 15 15 16 16 17
20 17 16 17 16 15 13 14 16 17 15 15 15 15 14 14 13 13 13 13 12 13 13 13 12 12 12 11 10 10 9 8 8 8 9 9 10 11 11 11 11 11 12 13 15 16 16 17 18
21 21 19 18 17 15 14 16 16 18 15 15 16 15 14 15 14 12 12 13 13 13 13 13 12 12 12 11 10 10 9 9 9 9 10 10 11 12 12 12 12 12 12 13 15 16 17 18 19
21 21 21 21 19 18 16 17 17 16 17 16 17 16 14 15 14 14 13 13 13 14 13 13 12 12 12 11 10 10 9 9 9 10 11 11 11 12 12 13 13 14 14 15 15 17 18 19 19

GEFSSGP_500_meanwind_162.txt.gz
Wind_Speed
18 18 19 21 23 21 21 22 21 19 18 18 17 16 15 13 12 11 9 8 8 8 7 6 5 4 4 3 2 2 2 2 3 2 2 1 1 0 1 2 2 3 3 3 3 4 4 4 4
16 17 18 21 22 21 22 22 20 19 19 18 16 16 14 12 12 11 10 10 9 8 7 6 5 4 3 3 2 2 2 2 2 2 2 1 1 0 1 1 2 3 3 4 4 4 4 4 4
15 15 18 21 21 21 22 22 21 21 20 19 17 16 13 12 12 11 11 11 10 9 8 6 5 4 3 2 2 2 2 2 2 2 1 1 1 0 1 1 2 3 3 3 4 4 4 4 4
13 15 19 21 21 22 21 21 20 20 18 18 18 16 14 13 13 12 11 11 11 10 8 7 6 5 4 3 2 2 2 2 2 2 1 1 1 1 1 1 2 3 3 4 4 4 4 4 4
12 14 18 20 21 21 21 21 20 19 18 19 18 17 15 15 14 13 12 12 11 10 8 7 7 5 4 3 2 2 1 2 2 1 1 1 1 1 1 2 2 3 3 4 4 4 3 4 5
11 14 16 19 20 20 20 21 19 18 18 18 18 18 16 15 14 13 12 12 11 10 9 8 7 6 5 4 3 2 1 1 1 1 1 1 1 1 2 2 2 2 3 4 4 3 4 4 5
13 14 16 17 18 18 19 19 18 19 19 19 19 19 17 15 14 13 12 12 11 11 10 9 8 7 5 4 4 3 1 1 1 1 1 1 1 1 1 2 2 2 3 4 4 4 4 5 5
15 14 14 16 16 16 18 18 18 19 19 19 20 19 18 16 14 13 12 12 12 11 10 9 8 7 6 5 4 3 2 0 0 0 0 1 1 1 1 1 2 3 4 4 4 4 4 5 5
13 13 13 13 12 13 15 17 17 18 19 20 20 19 18 16 15 14 13 12 12 11 11 10 9 8 7 5 4 3 3 2 0 0 1 1 1 2 2 2 3 3 3 4 4 4 4 4 5
11 10 10 11 9 10 13 15 16 17 18 19 18 18 18 17 16 14 13 13 12 12 11 10 9 8 7 5 5 4 3 3 1 1 2 2 2 2 2 2 3 3 3 3 3 4 4 5 5
8 7 7 8 7 8 10 13 15 17 18 18 18 18 17 17 16 15 14 12 12 12 11 10 9 8 6 5 4 4 4 3 2 1 1 1 2 2 2 2 2 3 4 4 3 3 4 5 5
6 6 6 6 7 7 9 11 14 17 18 18 18 18 17 15 16 15 14 13 12 11 11 11 10 8 7 6 4 4 4 3 2 1 1 1 2 2 2 2 3 3 3 3 2 3 3 5 5
5 5 6 6 7 9 9 10 13 15 17 17 18 18 16 15 15 15 15 15 13 11 11 11 10 8 7 6 4 3 3 3 3 2 1 2 2 2 2 2 3 3 3 2 2 3 3 4 5
6 6 6 6 7 8 9 10 12 14 16 16 17 17 16 16 15 16 16 15 14 13 12 12 11 8 7 6 5 3 3 2 2 2 2 1 1 1 1 2 3 3 3 3 3 3 3 4 4
7 6 6 6 6 8 8 9 11 13 15 16 16 17 16 17 16 16 16 15 14 14 13 12 11 9 6 5 5 3 2 1 1 1 1 1 1 1 2 2 3 3 3 3 3 3 3 4 4
8 7 5 5 5 6 8 9 11 13 15 16 16 16 16 17 16 16 16 15 14 14 13 13 11 9 7 5 4 4 3 1 1 0 0 0 1 2 2 3 3 3 4 4 4 4 3 3 3
8 6 4 2 4 6 8 9 10 12 15 16 17 16 16 16 16 16 15 14 14 13 13 13 11 10 7 6 5 4 3 1 1 1 1 1 2 2 3 3 4 4 4 4 4 4 4 4 4
7 5 2 1 2 5 7 8 9 12 15 16 17 17 16 15 15 15 14 13 13 13 13 12 12 10 9 6 5 4 3 2 2 2 3 2 2 2 3 4 5 5 5 6 6 5 5 5 5
8 7 5 3 3 6 7 8 9 12 14 15 16 16 15 15 14 14 14 13 13 12 12 12 12 11 10 8 5 4 3 3 3 3 3 3 2 2 3 5 5 5 6 7 8 7 6 6 6
9 9 7 5 5 6 7 8 9 10 13 15 16 16 14 15 14 13 13 12 12 12 12 11 11 10 9 8 6 4 4 3 3 3 3 3 3 3 4 5 6 6 7 8 8 9 8 8 8
11 12 11 9 8 8 9 9 10 10 12 14 16 16 16 15 15 14 13 12 11 11 11 11 11 10 9 8 7 5 4 3 3 4 4 3 4 4 5 5 6 6 7 9 9 10 10 10 9
12 12 13 12 11 10 11 11 10 10 11 12 14 15 16 16 15 13 12 11 11 10 11 11 10 10 9 8 6 5 4 3 4 4 4 4 4 5 5 5 6 7 7 8 10 10 10 11 11
13 13 13 13 12 11 12 12 11 11 11 12 13 15 16 16 14 13 12 11 11 10 10 11 10 10 9 7 6 5 4 4 4 4 4 4 5 5 6 6 6 7 8 9 10 11 11 12 12
14 14 13 13 12 11 11 13 11 12 11 11 13 15 16 15 15 14 13 12 11 11 10 10 10 9 8 7 7 6 5 5 5 4 4 5 5 5 6 7 7 7 8 9 10 11 12 13 13
15 15 14 13 12 10 10 11 11 12 12 12 13 15 16 15 14 13 12 12 11 11 10 10 10 9 9 8 7 6 6 5 6 6 5 5 5 5 6 6 6 6 8 9 10 10 12 13 13
16 16 15 14 12 10 10 11 10 11 12 12 12 13 13 13 13 12 11 11 11 10 10 10 10 9 9 9 8 7 6 5 5 6 5 5 5 5 5 6 6 7 7 8 9 10 11 13 13
17 16 16 16 15 13 12 12 11 11 11 11 12 13 13 13 12 11 10 10 10 10 10 10 10 9 9 8 7 6 6 6 5 5 5 5 5 6 6 7 7 8 8 9 10 10 12 12 13
18 17 18 18 17 16 15 14 13 13 12 13 14 13 12 12 13 13 11 8 9 9 9 10 9 8 8 7 7 7 7 6 6 6 6 6 6 7 8 8 8 9 10 10 10 11 12 13 14
19 19 20 19 19 18 17 15 15 14 14 15 15 14 14 13 14 15 13 9 8 9 9 9 8 8 7 7 7 7 7 6 6 6 6 7 7 7 8 9 9 10 10 11 12 12 12 13 14
20 20 20 21 20 20 20 18 17 17 16 16 16 16 17 14 14 15 13 11 11 9 9 10 8 8 8 8 8 8 7 7 7 7 7 7 8 9 9 10 10 11 11 12 12 12 13 14 15

GEFSSGP_500_meanwind_168.txt.gz
Wind_Speed
19 20 19 20 20 20 22 24 24 22 20 19 18 17 16 15 13 12 12 11 9 7 6 6 7 7 7 7 7 7 7 8 7 7 7 6 6 5 5 4 4 4 4 4 5 5 5 5 5
19 18 18 20 20 20 23 25 24 22 20 20 19 18 16 15 14 13 12 11 9 7 7 6 6 6 6 6 6 7 7 7 7 7 6 6 6 5 5 4 4 4 4 4 4 5 5 5 4
18 19 18 19 20 22 23 24 23 21 20 21 20 18 16 15 14 13 12 11 9 7 7 7 6 6 6 6 6 6 7 7 7 7 6 6 5 5 5 4 4 3 3 4 4 4 4 5 4
17 18 18 19 21 22 23 23 23 22 21 21 20 18 16 14 13 12 12 11 9 8 8 8 7 7 6 6 6 6 6 6 6 6 6 6 5 5 4 4 3 3 3 4 4 4 4 4 4
16 17 18 18 20 22 23 23 24 24 22 21 19 18 16 14 13 12 11 10 10 9 9 8 8 7 7 6 6 6 5 5 6 6 5 5 5 4 4 3 3 3 3 3 4 4 4 3 3
14 15 17 19 21 22 23 24 24 24 23 21 20 18 17 15 14 13 12 11 10 10 10 9 8 7 7 6 6 5 4 4 5 5 5 4 4 4 4 4 3 3 3 3 3 3 3 4 4
13 14 16 18 20 21 23 24 24 24 22 22 20 19 18 16 14 13 12 11 10 10 10 9 8 8 7 7 6 5 5 4 4 4 4 4 5 5 5 4 3 3 3 3 3 3 3 4 4
11 13 15 18 20 20 21 23 23 23 22 21 21 20 20 18 16 14 13 12 11 11 11 10 9 8 7 7 6 6 6 5 4 4 4 4 4 4 4 4 3 4 3 3 3 3 4 4 4
9 12 14 16 18 19 21 22 22 21 21 21 21 21 20 19 17 16 14 13 13 12 11 10 9 8 7 6 6 6 6 5 4 4 3 3 3 3 4 3 3 4 3 3 3 3 4 3 3
8 10 12 14 16 17 19 20 21 21 20 20 21 21 20 18 17 16 15 14 13 13 12 11 10 9 7 6 5 6 6 5 5 4 3 3 3 3 3 3 3 3 3 3 3 3 3 3 3
6 8 11 12 14 16 17 19 20 20 19 19 20 20 20 19 17 16 15 14 14 13 13 12 11 9 8 6 5 5 5 5 5 4 3 3 3 3 2 3 3 3 3 3 3 2 3 2 2
3 6 9 11 12 13 16 17 19 19 19 18 19 19 20 19 17 17 16 15 14 14 13 12 11 9 8 6 5 5 5 4 4 3 3 3 2 2 2 2 3 3 3 3 2 2 2 2 2
2 5 7 9 11 12 14 15 17 18 18 19 18 18 18 18 17 17 16 15 15 13 12 11 11 9 7 7 6 5 5 4 3 3 2 2 2 1 1 2 3 3 2 2 2 2 2 2 2
1 3 6 8 9 11 12 13 14 16 17 18 17 17 17 17 17 18 17 16 15 14 12 11 10 9 7 7 6 4 4 4 3 2 2 2 2 2 2 2 2 2 2 2 2 2 2 2 2
3 3 5 6 8 9 10 11 12 14 16 17 17 17 17 17 17 17 17 16 15 14 13 11 11 9 7 6 5 4 3 3 2 2 2 1 1 1 2 3 3 3 3 3 3 3 3 3 3
5 3 3 3 5 6 8 10 10 12 13 15 15 16 17 17 16 16 16 15 15 14 13 12 12 10 8 6 5 4 2 2 2 2 2 1 0 1 2 2 3 3 3 3 3 4 4 4 3
7 5 3 1 2 3 5 7 9 10 11 12 14 15 16 16 16 15 15 15 14 14 13 12 11 10 8 6 5 4 3 1 1 1 0 0 0 1 2 2 3 3 4 5 5 5 4 4 3
9 7 5 3 1 1 3 5 7 8 9 11 13 14 15 15 16 15 15 14 14 13 13 12 11 10 8 6 3 3 2 1 1 1 1 1 1 1 3 3 3 4 4 5 5 5 5 5 5
11 9 8 6 5 3 3 5 6 8 9 10 12 13 15 15 15 15 15 14 13 12 11 11 11 11 8 6 4 3 3 2 2 2 2 2 3 2 3 3 4 4 5 6 6 6 6 6 6
13 11 10 9 8 7 6 5 6 8 9 10 11 12 13 14 14 15 14 14 12 11 11 11 11 10 8 6 5 3 2 3 3 3 3 3 4 4 4 4 5 5 6 6 7 8 8 8 8
15 13 12 11 10 10 9 7 8 9 10 10 11 12 13 13 13 13 13 13 12 10 10 11 10 9 8 6 5 4 4 4 4 4 4 4 4 5 5 5 5 6 6 7 8 9 9 10 10
17 15 14 13 13 12 12 10 9 10 10 10 11 12 12 12 13 13 12 12 12 10 10 10 10 9 8 7 6 5 4 4 4 4 4 4 4 5 6 6 6 6 7 8 9 10 10 11 11
18 17 16 14 14 14 13 13 11 11 10 10 11 11 11 13 13 13 13 12 12 10 10 10 10 9 8 7 6 5 4 4 5 5 5 5 5 5 6 7 7 8 8 9 10 10 11 11 12
19 18 17 16 15 15 14 14 12 12 12 11 11 10 12 13 14 14 13 12 12 11 11 10 10 9 8 7 7 6 5 5 5 5 5 5 5 5 5 7 7 8 8 8 8 9 11 11 12
20 19 18 17 17 17 15 14 12 11 11 10 10 10 11 13 14 14 13 13 12 13 12 11 11 9 7 7 7 7 6 6 6 5 5 5 5 5 6 6 7 8 7 8 9 9 10 11 13
21 19 19 18 18 17 17 15 13 11 11 10 9 11 12 13 14 14 14 13 13 14 13 12 11 10 8 8 8 8 7 7 6 5 5 5 5 5 6 7 7 8 8 9 9 10 11 12 13
23 22 20 20 19 19 18 16 14 12 12 11 11 12 12 12 14 16 15 13 14 14 14 11 10 9 9 9 9 8 8 7 6 5 6 6 6 7 7 8 8 9 10 10 11 11 12 13 14
25 24 22 21 21 20 19 17 15 13 13 13 12 12 12 13 14 15 15 15 15 15 15 13 11 10 10 9 9 8 8 8 7 7 7 7 7 8 8 9 9 10 11 11 12 12 13 14 14
27 26 24 23 21 21 20 18 16 14 14 13 13 13 13 14 14 15 14 14 15 15 14 12 11 10 9 8 8 8 8 8 8 8 9 9 9 9 9 9 10 11 11 12 12 13 13 14 14
29 27 25 24 23 22 22 19 16 15 15 14 14 14 14 14 14 15 15 14 14 14 13 12 11 10 9 8 8 8 8 9 9 10 10 10 10 10 10 11 11 12 12 13 13 14 14 14 15

GEFSSGP_500_meanwind_174.txt.gz
Wind_Speed
19 19 19 18 20 18 18 20 19 19 18 18 17 17 16 15 14 13 12 11 9 8 7 6 5 5 6 6 7 7 8 8 9 9 9 9 9 9 9 9 8 8 8 8 9 8 8 8 8
18 18 19 20 20 18 20 20 20 20 19 19 18 18 17 16 15 14 13 12 10 9 7 6 5 5 5 6 7 7 8 9 9 9 9 9 9 9 9 8 7 7 7 8 8 8 7 7 7
18 17 19 19 18 19 20 21 21 20 20 20 20 19 18 16 15 14 13 12 11 9 7 5 5 5 5 6 7 7 8 9 9 9 9 8 8 8 8 7 7 7 7 7 8 7 7 7 7
17 18 19 18 18 20 21 21 21 21 21 20 20 19 18 17 15 14 13 12 10 9 7 6 5 5 5 6 6 7 8 8 9 8 8 8 8 7 7 7 7 6 7 8 8 7 7 8 8
16 18 17 16 18 20 21 21 22 23 22 21 20 19 18 17 16 14 13 12 11 9 7 5 4 4 5 6 6 7 8 8 8 8 7 7 7 7 7 7 7 7 8 8 8 7 7 7 7
16 18 15 16 17 19 20 21 22 23 22 21 21 20 18 17 16 15 13 12 11 9 7 5 5 4 5 5 5 6 7 8 8 7 7 7 7 8 7 7 8 7 7 7 7 6 7 7 7
15 15 14 15 16 18 19 20 22 22 22 22 21 20 19 18 16 15 13 12 11 9 7 6 5 5 4 5 5 5 6 7 7 7 6 7 8 7 7 8 8 7 7 7 6 6 7 7 7
14 14 14 14 15 16 17 19 20 22 21 21 21 20 19 18 16 15 14 12 11 10 8 7 6 6 5 5 5 6 6 7 7 7 6 7 7 7 7 7 7 7 7 7 7 7 7 7 6
13 13 10 12 15 15 16 18 19 20 20 20 20 20 19 18 17 15 14 13 11 10 9 7 6 5 6 6 6 6 6 6 6 6 6 6 6 7 7 7 7 7 7 6 7 7 6 6 5
12 9 9 12 14 15 16 17 18 19 20 20 20 20 19 18 17 16 14 13 12 10 9 8 6 6 5 5 5 5 5 5 6 6 6 5 6 6 7 7 7 7 6 6 6 6 5 5 5
9 8 9 11 13 14 15 16 17 18 18 18 19 19 19 19 18 16 15 13 12 11 10 9 8 7 6 5 5 5 5 5 5 6 6 5 6 6 6 7 7 6 6 6 5 5 5 5 5
7 7 8 9 10 12 14 15 16 16 16 17 17 17 18 18 18 17 16 13 12 12 11 9 8 7 6 5 5 5 4 4 5 5 5 5 5 6 6 6 6 6 5 5 5 5 5 5 4
6 7 7 7 8 10 11 13 14 15 15 16 17 17 17 18 18 17 16 14 12 12 11 9 8 7 6 6 5 4 3 3 4 4 5 5 5 6 6 6 6 5 5 5 5 4 4 4 4
6 7 6 6 7 8 10 12 12 13 14 15 17 17 17 17 17 17 16 14 13 12 11 10 8 7 5 5 5 4 4 3 3 4 4 4 5 6 5 5 5 5 5 5 4 4 4 4 3
5 5 4 4 6 6 8 10 11 12 13 14 15 16 17 16 16 17 16 15 14 13 12 10 9 9 6 5 4 3 3 2 2 3 3 4 4 5 5 5 5 5 4 4 4 4 4 3 3
5 3 2 2 4 5 6 6 8 10 12 13 14 15 15 16 15 16 16 15 14 13 13 10 10 10 8 5 4 2 1 1 1 2 3 3 4 5 5 5 5 5 5 4 4 4 4 4 3
5 4 4 2 2 3 4 4 6 8 10 12 12 13 14 14 15 15 15 14 13 13 13 11 11 10 8 6 4 3 2 1 1 1 2 3 3 4 5 5 5 5 5 5 4 4 5 5 4
8 6 5 3 1 1 2 3 5 7 9 11 11 12 13 13 14 14 15 14 13 13 12 11 11 10 8 6 4 3 2 1 1 1 1 2 3 3 4 5 5 5 5 5 5 5 5 6 6
9 7 6 5 2 1 2 3 4 6 9 10 11 12 12 13 13 14 14 14 13 13 13 12 11 11 9 7 4 3 2 1 1 1 1 2 3 3 4 4 5 5 6 6 5 5 6 6 6
10 8 7 6 4 3 3 4 5 6 8 9 9 11 12 12 12 13 13 13 13 12 13 12 11 11 10 8 5 3 3 2 2 2 2 3 3 4 4 5 5 5 6 6 6 6 7 7 8
11 10 9 8 6 6 5 6 7 7 8 8 8 10 11 12 12 12 12 13 13 12 13 12 12 11 10 8 7 5 3 3 3 3 3 4 4 5 5 5 5 6 6 7 7 7 7 7 8
14 13 11 9 8 8 6 7 10 8 7 7 8 9 10 11 11 11 11 12 12 12 13 12 12 11 10 9 8 6 5 5 4 4 4 4 4 5 5 5 6 6 6 7 7 8 9 9 9
16 14 12 11 10 9 9 7 9 8 8 8 8 9 9 10 11 11 11 12 12 12 12 12 12 12 10 10 8 6 5 5 5 5 4 4 4 4 5 5 6 6 6 7 7 8 9 10 10
17 15 13 12 11 11 11 9 9 9 8 8 8 8 9 10 11 12 12 12 12 12 12 12 12 11 10 9 8 7 6 6 5 5 5 5 5 5 6 6 7 7 8 8 9 9 10 10 11
18 16 14 12 12 12 12 10 10 10 9 8 9 9 9 10 12 12 12 13 12 12 12 12 11 10 9 8 7 7 6 6 6 6 6 5 6 6 6 6 7 8 9 9 9 10 10 11 12
20 18 16 13 12 13 13 11 11 10 10 9 9 9 9 10 12 12 13 13 13 13 13 12 11 9 9 8 7 7 7 7 7 7 7 7 7 7 7 7 8 8 8 9 10 11 11 12 12
22 21 19 17 15 13 13 12 11 10 10 10 10 10 9 10 12 13 13 13 14 14 14 13 11 10 9 9 8 8 8 8 8 7 7 8 8 8 8 8 8 9 9 10 11 12 13 13 14
25 23 22 19 17 15 14 12 12 11 10 10 10 10 10 11 12 13 13 13 14 14 13 12 12 11 10 9 8 9 9 9 9 9 9 9 9 8 9 9 10 10 11 11 12 13 14 14 15
26 25 24 21 19 15 13 13 13 12 11 11 11 11 11 12 13 13 14 14 14 13 12 12 11 10 10 9 9 9 10 9 8 9 10 10 10 11 11 11 11 12 12 13 13 14 15 15 15
27 26 25 23 22 18 15 15 14 13 12 12 12 12 12 13 14 14 14 14 14 13 12 12 10 10 10 9 10 10 10 9 9 10 10 11 11 12 12 13 13 13 13 14 15 15 16 16 16

GEFSSGP_500_meanwind_180.txt.gz
Wind_Speed
24 25 26 26 24 14 13 14 13 12 11 11 11 10 11 9 9 8 8 8 7 6 5 4 4 3 2 2 2 2 3 4 5 6 6 6 6 7 7 6 7 8 8 9 9 9 9 9 9
25 24 28 26 15 12 13 13 13 14 13 12 12 11 11 10 10 9 9 9 8 7 6 5 4 3 2 2 1 2 3 3 4 5 5 5 6 6 7 6 6 7 8 9 9 9 9 9 8
25 26 28 17 11 13 13 14 15 14 14 14 13 12 12 12 11 10 10 9 8 7 6 5 4 3 2 2 1 2 2 3 4 5 5 5 5 5 6 5 6 7 7 8 8 8 9 8 8
26 29 22 12 12 14 14 15 15 15 14 14 14 13 13 13 12 12 11 10 9 8 7 6 5 3 2 2 1 1 2 3 3 4 4 5 4 4 5 5 5 6 6 7 8 9 9 8 8
25 24 15 12 13 14 13 15 15 15 14 14 14 14 14 14 13 13 12 11 10 9 8 7 5 4 2 2 1 1 2 2 2 3 4 4 4 4 4 5 6 7 7 8 8 8 8 8 8
22 18 13 11 12 13 13 14 15 16 16 16 16 15 15 14 14 14 13 12 11 10 9 7 6 4 2 2 1 0 1 2 2 2 3 4 4 4 5 5 7 8 8 7 7 7 7 7 7
17 12 9 8 11 13 12 13 14 17 17 17 17 17 16 16 15 14 14 13 12 11 9 8 6 5 3 1 1 1 1 1 2 2 2 3 4 5 6 6 7 8 7 7 7 7 7 7 6
12 10 10 9 9 11 11 12 13 16 17 18 18 18 17 17 16 16 15 14 13 12 10 8 6 5 4 2 2 1 1 2 2 2 2 3 4 5 5 6 6 7 7 7 7 7 7 6 6
8 10 9 8 8 9 10 12 13 15 16 17 17 17 17 17 17 17 16 16 15 13 12 10 7 5 4 3 2 2 1 2 2 2 2 3 4 5 5 5 5 6 6 6 6 6 6 6 5
8 10 8 7 7 8 9 11 14 15 18 18 17 17 17 18 18 18 17 16 15 14 13 12 10 7 5 4 3 2 1 1 1 2 2 2 4 5 4 4 5 5 6 5 5 5 5 5 5
6 7 6 5 6 7 9 11 13 15 17 18 17 17 17 18 18 18 18 17 16 15 14 13 12 10 7 6 4 3 1 1 1 2 2 2 3 4 4 4 4 5 5 5 5 5 4 4 4
5 4 3 3 4 6 8 9 10 13 15 17 17 17 18 17 18 18 19 18 17 16 15 13 13 12 9 8 6 4 3 2 1 2 2 3 3 4 4 4 4 4 4 5 4 4 4 3 3
2 2 2 3 5 5 6 8 11 14 15 16 17 17 17 18 18 19 19 18 17 17 16 15 13 12 11 9 8 6 4 3 2 1 1 2 2 3 4 4 4 4 4 4 3 3 3 3 3
3 2 2 3 4 4 4 6 9 12 15 16 16 17 17 17 18 19 19 18 17 16 16 15 14 12 11 9 8 7 5 4 3 1 1 1 2 3 3 3 4 4 4 3 3 3 3 2 2
4 2 1 4 5 7 6 6 9 11 13 15 16 17 17 17 18 18 18 18 17 17 16 15 14 13 11 10 8 7 6 5 4 3 1 2 3 3 2 2 3 3 3 3 3 2 3 2 2
2 2 2 3 7 9 8 8 9 12 12 13 15 16 16 16 17 18 18 17 17 17 17 16 15 13 11 10 9 8 7 6 5 4 2 2 3 3 3 2 3 3 3 3 3 3 2 3 3
1 5 4 5 8 8 9 8 8 10 11 12 14 15 15 15 16 17 17 17 17 18 17 16 15 14 12 10 9 8 7 7 6 5 3 1 2 3 3 3 3 3 3 3 3 3 3 3 4
5 4 4 5 8 6 7 6 9 10 11 12 12 14 14 14 15 16 16 17 17 17 17 16 16 14 13 11 9 8 8 7 6 5 4 2 2 3 4 4 4 4 4 4 4 4 5 5 4
8 7 7 7 9 7 7 5 7 10 11 11 12 12 12 13 14 15 16 16 17 17 16 16 15 15 14 12 10 9 8 8 7 5 4 3 3 3 3 4 4 4 4 5 5 5 5 5 5
10 9 7 7 10 8 7 7 7 8 10 11 11 11 12 12 13 14 15 16 16 16 16 15 15 15 14 13 11 9 8 7 6 5 4 3 3 3 3 4 5 5 6 5 6 6 6 6 6
12 10 8 9 10 9 8 9 11 8 9 9 11 12 12 12 13 14 15 15 15 15 15 15 16 15 15 13 12 10 8 7 5 5 4 4 3 3 3 4 5 6 6 6 6 7 7 7 8
12 11 11 11 10 10 9 12 14 12 11 10 10 10 11 12 13 14 14 15 15 15 15 15 15 15 14 13 12 10 8 7 5 5 4 4 4 4 4 4 6 7 7 6 7 7 8 9 9
13 13 13 12 12 11 9 11 14 14 11 10 11 11 11 11 12 13 14 15 15 15 15 15 15 15 14 13 11 9 9 8 6 5 5 5 5 5 6 6 7 8 8 8 7 7 8 9 10
16 15 13 12 11 11 9 11 13 14 12 12 12 12 12 12 12 13 14 15 15 15 16 16 15 15 14 13 11 9 9 8 6 6 7 6 6 6 7 7 7 7 8 8 8 9 10 11 11
17 15 13 11 12 12 11 11 14 14 12 13 13 13 12 11 12 13 14 14 15 16 16 15 15 15 14 13 12 10 9 9 8 8 8 8 8 7 7 7 7 8 8 8 9 10 10 11 11
18 17 14 12 12 13 11 11 13 15 16 15 14 13 12 11 12 12 14 14 14 15 16 15 15 15 15 13 12 11 10 10 10 9 9 9 8 8 8 8 9 9 9 9 10 11 11 12 12
20 19 16 16 16 16 14 12 13 18 16 13 13 12 11 12 12 12 13 14 14 15 16 16 15 15 14 14 13 12 11 11 10 9 9 9 9 8 8 9 10 10 10 10 11 12 12 12 13
20 19 18 19 18 17 16 13 16 18 14 13 13 13 12 12 13 13 14 14 15 17 17 16 15 15 15 14 13 12 12 12 11 10 10 10 10 9 9 10 11 11 11 12 12 13 14 14 15
21 22 22 21 19 17 17 15 15 18 17 16 14 14 13 13 14 14 14 16 16 16 16 15 15 16 15 14 14 13 13 13 12 12 11 11 10 11 11 12 12 13 13 13 13 14 15 15 15
22 22 22 23 22 21 19 19 15 14 16 16 16 14 14 14 14 15 15 17 16 16 15 15 16 16 16 15 14 14 13 14 13 12 13 13 13 13 13 13 13 13 14 14 15 15 15 16 17

GEFSSGP_500_meanwind_186.txt.gz
Wind_Speed
23 24 24 24 25 23 23 23 21 19 18 18 17 16 14 13 12 11 10 8 9 9 8 7 6 6 6 5 4 4 3 3 3 4 4 3 3 4 4 4 5 6 7 8 8 8 9 9 9
21 22 23 24 24 24 24 23 20 19 19 18 16 15 14 13 12 12 11 10 10 10 9 8 7 6 5 5 5 4 4 4 4 4 3 3 3 4 5 5 5 6 7 8 8 9 9 9 8
19 20 23 24 23 24 25 23 22 21 20 18 17 15 14 12 12 12 11 11 11 10 9 9 8 7 6 5 5 5 4 4 3 3 3 3 3 4 5 5 5 6 6 7 9 9 9 8 9
17 20 23 23 24 25 25 24 23 21 20 19 18 16 14 14 13 13 12 12 11 11 10 9 9 8 7 6 5 5 4 4 3 3 3 3 3 3 4 4 5 5 5 7 8 8 8 8 8
16 18 22 22 24 25 24 24 23 21 20 20 19 17 16 15 15 13 13 13 12 11 10 10 9 8 7 7 6 5 4 4 3 3 3 3 3 3 4 5 5 6 6 7 8 8 8 8 8
16 17 20 22 23 23 23 23 21 20 20 20 20 19 17 17 16 15 15 14 13 12 12 11 9 8 7 6 5 4 4 3 3 3 3 2 3 3 4 5 5 6 7 7 7 8 8 8 8
16 17 19 21 21 21 21 22 21 20 20 20 20 20 19 18 17 17 16 15 14 13 12 11 10 8 7 6 5 4 3 3 3 3 3 2 3 3 4 5 5 6 7 7 7 7 7 8 7
17 16 18 19 20 19 20 20 21 22 21 21 21 21 20 19 18 17 16 16 15 15 13 12 10 8 7 6 5 4 4 3 3 2 3 3 3 4 4 5 6 6 6 6 7 7 7 7 7
15 14 15 17 19 18 18 19 21 23 22 21 21 20 20 20 19 18 18 17 16 16 14 13 11 9 7 6 5 5 4 3 2 2 3 4 4 4 5 5 5 6 6 6 6 6 6 6 6
12 12 13 15 17 17 18 19 21 22 21 21 21 20 20 20 20 19 19 18 17 16 15 14 12 11 9 7 6 5 4 3 2 3 4 4 4 4 4 5 5 5 5 5 5 5 5 5 5
10 10 11 13 15 17 17 19 19 20 20 19 19 19 19 19 19 19 18 18 18 17 16 14 13 12 10 8 7 6 5 4 3 3 4 4 4 4 4 5 5 5 4 4 4 4 4 4 4
8 8 8 11 13 15 17 18 18 17 18 18 18 18 18 19 19 20 19 19 19 17 16 15 13 12 11 9 8 7 6 5 4 4 3 4 4 4 5 5 6 5 5 4 4 4 4 4 4
8 7 7 8 10 13 16 17 17 17 18 18 17 17 17 18 19 20 20 19 19 18 17 16 14 12 11 10 9 7 6 5 4 4 3 3 4 5 5 5 5 5 5 4 3 4 3 3 3
6 5 5 6 9 12 14 15 15 16 17 17 17 16 17 19 19 20 20 19 19 19 18 17 16 14 13 11 10 9 7 6 4 3 2 3 3 4 4 5 5 5 4 4 3 4 3 3 3
5 3 2 4 6 10 12 13 14 15 16 16 16 17 18 19 19 19 20 19 19 19 18 18 16 15 13 11 11 9 8 7 6 4 3 3 3 3 3 4 4 4 5 4 4 4 3 3 3
6 3 2 1 4 7 10 12 13 13 14 15 15 16 17 17 18 18 19 19 18 18 18 17 16 15 13 11 10 9 8 7 6 4 2 2 2 3 3 4 4 4 4 4 4 4 4 5 4
8 4 2 1 4 5 8 12 13 13 12 14 15 15 15 15 16 17 18 18 18 18 17 17 16 15 13 11 10 9 8 7 6 4 2 1 2 3 3 3 3 4 4 4 5 5 6 6 5
8 4 3 2 3 5 8 10 12 11 11 13 14 14 14 14 15 16 16 17 17 17 17 17 16 15 13 11 10 8 7 6 5 3 2 1 1 3 3 3 4 4 4 4 5 5 6 6 6
9 6 4 3 3 5 8 10 11 10 10 11 11 13 13 13 14 14 15 16 16 16 16 17 16 14 13 11 10 9 7 6 5 4 2 1 1 3 3 4 4 4 4 5 5 6 6 6 6
10 8 6 4 5 6 7 8 9 10 10 10 10 12 13 12 12 13 13 14 15 15 15 16 15 14 13 11 10 9 7 6 5 4 3 1 0 1 2 3 3 4 4 5 5 7 7 7 7
12 10 9 7 8 9 9 8 10 10 11 10 10 11 12 11 11 12 13 13 13 13 14 14 14 13 13 12 10 9 8 6 4 3 3 1 0 1 2 2 3 3 4 5 5 6 7 7 8
14 13 11 9 9 10 11 10 10 10 10 10 10 10 10 11 10 11 12 12 13 13 12 13 13 13 12 12 11 8 7 6 5 4 3 2 1 1 2 3 3 4 5 5 6 6 7 8 8
18 15 14 13 12 12 13 13 12 11 10 10 10 10 9 9 9 10 11 12 12 12 12 12 12 12 12 11 11 9 7 6 6 5 4 3 3 2 3 4 4 5 6 6 7 7 7 8 8
19 18 18 17 16 15 14 15 14 12 11 11 10 10 10 9 9 10 11 11 11 11 11 11 12 12 12 12 11 9 8 7 5 4 4 4 3 3 4 5 5 6 6 7 8 8 8 9 9
21 20 19 19 19 16 15 16 14 11 12 12 11 10 10 9 9 10 12 12 11 11 11 11 11 12 12 12 11 9 8 7 6 5 5 4 4 4 4 5 5 6 7 7 8 9 10 10 11
20 21 20 19 17 15 14 15 14 13 12 12 11 11 9 9 8 9 11 11 11 11 10 11 11 12 12 12 11 9 8 8 7 6 6 6 5 5 5 5 6 7 7 8 9 9 10 11 12
20 20 19 19 18 17 16 14 14 13 13 11 10 10 9 8 9 9 9 10 11 11 11 11 11 12 12 11 11 10 9 8 8 7 6 6 6 6 7 7 8 8 8 9 10 11 11 12 13
22 20 20 21 20 19 17 14 13 14 14 13 13 10 9 8 8 9 9 10 11 11 12 11 11 11 11 11 11 10 9 8 8 7 7 7 7 7 7 8 8 9 10 11 11 12 12 13 14
22 22 23 23 22 21 20 18 15 15 14 13 12 12 11 9 8 10 10 11 11 11 12 12 11 11 11 11 11 10 9 8 8 7 7 7 7 8 9 9 10 11 12 12 12 12 13 14 15
22 22 23 25 24 23 23 21 16 15 15 14 14 12 12 10 10 11 11 11 11 12 12 11 11 11 11 11 11 10 10 9 8 8 8 8 9 9 10 10 10 11 12 12 13 13 13 14 15

GEFSSGP_500_meanwind_192.txt.gz
Wind_Speed
24 23 23 24 24 23 25 26 25 23 21 20 19 18 17 14 12 11 10 9 8 7 6 7 7 7 7 8 8 8 8 8 8 8 8 7 6 6 5 5 6 6 6 7 7 8 9 8 8
24 24 23 23 24 24 26 27 26 24 22 21 20 19 17 15 13 12 11 9 8 7 7 7 7 7 7 7 7 8 8 8 8 7 7 6 6 5 5 5 5 5 6 7 7 8 8 7 7
23 23 23 23 24 26 26 26 25 23 23 23 21 19 17 15 14 12 11 9 8 7 7 7 7 7 7 7 8 8 8 8 7 7 7 7 7 6 6 6 5 6 6 7 7 7 7 7 7
23 24 23 23 24 26 26 26 25 24 23 22 21 19 17 15 13 12 11 9 8 7 8 8 7 7 7 8 8 8 7 7 7 7 6 6 7 7 7 6 5 5 6 6 7 7 7 7 7
21 22 22 23 24 25 25 25 25 24 23 22 21 19 17 15 14 13 12 9 8 8 8 8 8 7 8 8 7 7 7 7 7 6 6 6 6 7 7 6 6 6 6 7 7 7 7 7 7
20 20 22 23 24 25 26 27 27 25 23 22 22 20 18 16 15 14 13 11 10 9 9 8 7 7 7 7 7 7 6 6 6 6 6 6 6 6 7 7 7 6 7 7 7 7 8 7 7
19 19 21 23 24 26 27 27 27 25 23 23 22 21 19 17 16 15 13 12 11 10 9 8 8 7 6 7 6 6 6 6 6 6 6 6 6 6 6 6 7 6 7 7 7 6 7 7 7
17 18 20 22 24 25 26 27 26 25 24 22 22 22 20 18 16 15 14 13 13 12 11 10 9 7 7 6 6 5 5 5 5 5 6 6 6 6 5 6 6 6 7 7 7 6 7 7 7
14 17 19 21 23 23 25 26 25 24 23 22 22 22 21 19 17 17 16 15 14 13 13 11 10 8 7 6 6 6 5 5 4 4 5 5 5 5 6 6 6 6 6 6 6 6 6 6 5
12 15 17 19 21 22 23 25 24 23 23 23 22 21 21 19 18 17 17 16 15 15 14 13 11 9 8 6 6 5 5 5 4 4 4 4 5 5 5 6 6 6 5 5 5 5 4 4 4
9 12 15 17 19 20 21 23 23 23 23 22 22 21 20 19 18 17 17 17 17 16 15 14 13 11 8 7 6 5 5 4 4 3 3 3 4 4 5 5 5 5 5 5 4 4 3 3 3
7 9 13 15 17 19 20 21 22 22 22 22 21 20 19 19 18 18 18 18 18 17 15 14 13 12 9 8 7 6 5 4 4 4 3 3 3 3 4 4 4 3 3 4 3 3 3 2 2
5 7 10 13 15 17 19 20 21 21 21 21 20 19 19 19 18 18 18 18 18 17 16 14 13 12 10 9 7 7 6 5 5 4 4 3 3 3 3 3 3 3 2 2 2 3 2 1 1
3 5 7 10 12 14 17 18 19 20 20 19 18 17 18 19 18 18 18 18 18 17 17 15 14 12 11 10 8 6 6 5 5 4 4 3 3 3 3 3 3 3 3 2 2 3 3 2 1
1 3 5 7 9 11 13 15 16 17 18 17 16 16 16 17 17 18 18 17 17 17 17 15 14 13 11 10 8 6 6 5 4 4 3 2 2 3 3 3 3 3 3 3 2 3 3 2 2
3 1 3 4 6 8 9 12 13 14 15 16 15 14 15 16 17 17 17 17 16 17 17 15 14 13 11 10 8 7 5 5 4 3 3 2 0 2 3 4 4 4 4 4 3 3 3 3 3
7 4 2 0 3 5 7 9 10 11 12 13 14 14 14 14 15 16 16 16 16 15 15 15 14 13 12 11 9 7 6 4 4 3 3 2 1 2 3 4 4 4 4 4 4 4 5 5 5
10 8 6 3 1 3 4 6 7 8 9 10 12 13 13 13 14 14 15 15 15 14 14 15 14 13 12 11 10 7 6 5 3 3 3 2 1 1 2 3 3 4 5 5 6 6 6 7 7
13 11 9 7 5 4 3 4 5 6 7 8 10 11 12 12 13 13 13 13 13 14 14 14 14 13 12 10 9 8 7 5 3 3 3 2 2 1 2 3 4 4 5 5 6 6 6 7 7
15 13 11 10 8 7 5 5 4 6 7 8 9 10 11 11 11 11 12 12 13 13 13 13 13 12 12 10 9 8 7 5 3 3 2 2 2 2 3 3 4 4 5 6 6 6 7 7 8
17 16 14 13 12 10 8 7 7 6 7 7 9 10 10 10 10 10 11 11 11 12 12 12 12 12 11 10 9 8 7 5 4 3 2 2 2 3 4 4 4 5 6 6 6 7 7 8 9
19 19 18 16 15 13 11 10 8 7 7 8 9 10 10 10 9 9 10 10 10 11 11 11 12 12 11 11 10 8 7 5 4 4 3 2 2 3 4 5 5 6 6 6 7 7 8 9 9
21 21 20 19 17 15 13 12 9 9 8 9 9 9 10 11 9 9 9 10 10 10 11 11 12 12 12 11 10 9 8 7 6 5 4 3 4 4 4 5 5 6 7 7 8 9 10 10 10
24 24 22 21 19 17 16 15 12 11 10 10 11 11 10 10 9 9 9 10 10 10 11 11 11 12 12 11 10 9 9 8 7 6 6 5 5 5 4 4 5 6 7 8 9 9 10 10 11
27 25 24 23 21 20 18 18 15 12 12 12 13 12 11 10 9 9 10 10 10 10 11 11 11 12 11 11 10 10 9 8 8 7 6 6 6 6 5 5 6 6 7 8 8 8 9 11 12
27 26 26 25 24 22 21 20 17 15 14 15 15 14 12 11 10 10 10 9 10 11 12 12 12 12 11 11 11 11 10 9 8 7 7 7 6 6 6 6 7 8 9 9 9 9 10 11 12
29 29 27 26 25 24 23 21 19 17 16 15 15 14 12 11 11 10 9 9 10 11 12 13 13 13 12 12 11 11 11 9 8 8 8 8 7 6 7 7 8 9 9 10 10 11 12 12 13
31 30 29 28 27 26 24 22 19 17 17 16 14 13 11 11 11 10 10 10 11 12 12 13 14 13 12 12 12 11 10 9 8 8 8 8 8 8 8 9 10 11 11 11 11 12 13 14 15
30 30 30 29 28 28 26 23 19 17 16 16 15 14 12 12 12 13 13 12 12 12 13 13 14 13 12 12 12 11 10 9 8 8 8 9 10 10 11 11 12 12 12 13 13 14 15 15 15
31 31 30 30 29 28 27 23 19 18 17 16 15 15 15 15 14 14 13 13 13 13 13 13 14 13 12 12 12 11 10 9 9 9 9 10 10 11 12 13 14 14 14 14 15 15 16 16 16

GEFSSGP_500_meanwind_198.txt.gz
Wind_Speed
23 23 22 21 24 21 21 22 21 19 18 17 16 16 14 12 11 9 9 8 7 7 6 6 5 5 6 7 8 8 8 9 9 9 9 9 9 8 8 8 9 10 10 10 9 9 10 10 10
23 23 22 24 22 21 22 23 22 20 19 19 18 17 16 14 12 11 9 8 8 7 6 5 5 5 6 7 8 8 9 9 9 9 10 9 9 9 9 10 10 10 11 10 11 10 11 10 10
23 23 24 24 22 22 23 24 23 22 21 20 20 19 17 16 14 12 10 9 8 7 6 5 5 5 6 7 8 8 8 9 9 9 10 9 10 10 10 10 10 10 11 11 11 12 11 10 10
22 23 25 23 22 23 24 24 24 24 23 22 21 20 18 17 15 13 11 10 9 7 6 5 5 6 6 7 8 8 9 9 9 9 9 9 9 9 9 9 10 10 10 10 11 11 11 10 10
21 24 23 22 23 23 24 24 25 25 24 23 22 21 19 18 16 14 13 11 9 8 7 5 4 5 6 7 7 8 8 8 7 8 8 9 9 9 9 9 9 10 9 9 11 11 10 10 9
22 22 20 21 22 24 24 24 26 26 25 24 23 21 20 18 17 15 14 12 10 9 7 6 5 5 6 6 6 7 7 7 7 7 7 8 9 9 9 9 9 10 10 10 11 10 10 9 9
19 19 18 19 21 23 23 24 25 26 26 25 23 22 21 19 17 16 14 13 12 10 8 8 6 5 6 6 6 6 7 7 7 8 8 8 9 9 9 9 10 10 10 10 11 10 9 9 9
16 17 16 18 20 21 22 23 24 25 25 25 24 23 22 20 18 17 15 14 12 11 10 8 7 6 6 6 6 6 6 6 7 8 9 8 9 9 9 9 9 9 10 10 10 9 9 9 8
15 15 14 16 19 20 21 23 23 24 24 24 24 23 22 21 19 18 16 15 13 12 11 9 7 6 6 5 5 5 6 6 7 7 8 7 8 8 8 8 8 9 9 9 9 9 8 8 7
13 12 12 14 17 19 21 22 22 23 24 24 23 23 22 22 20 19 17 15 14 13 12 10 8 7 6 6 5 5 5 6 6 6 7 7 7 7 8 8 8 8 9 8 8 8 7 7 7
10 11 12 13 15 17 19 20 21 22 22 22 22 22 22 22 21 20 18 16 15 13 12 11 10 8 7 6 5 5 5 5 5 5 6 6 6 6 7 7 7 7 8 8 8 7 6 6 5
8 9 10 12 13 15 17 18 19 20 20 20 21 21 21 21 20 19 18 17 15 14 13 12 10 9 8 6 6 5 5 5 5 5 5 5 6 6 6 7 6 7 7 6 6 6 6 6 5
6 6 8 9 11 13 14 16 17 18 18 19 19 20 21 20 20 19 18 17 16 14 14 13 12 10 9 7 6 5 5 5 5 4 4 4 5 6 6 6 5 5 5 5 6 6 6 5 4
4 5 5 7 9 11 12 14 14 15 16 16 17 18 19 19 19 19 18 17 16 14 13 13 12 11 9 8 6 6 5 4 4 4 4 4 4 5 5 5 4 4 5 5 5 5 5 5 4
2 2 3 4 6 8 10 12 12 12 13 14 15 17 18 18 18 18 17 17 16 15 14 13 12 11 10 8 7 6 5 4 4 3 4 3 3 4 4 4 3 4 4 4 4 5 4 4 3
3 0 1 2 3 5 7 9 9 10 11 12 13 14 16 17 17 16 17 17 17 16 14 13 13 12 11 10 9 7 6 4 3 3 3 3 2 2 3 3 4 4 4 4 4 4 5 5 4
4 3 3 2 1 3 5 6 7 8 9 10 11 12 14 15 15 15 15 16 16 16 15 14 13 12 11 10 9 8 7 5 3 3 2 2 1 1 1 2 4 4 4 5 5 5 5 5 5
8 7 6 5 3 2 2 4 5 5 7 8 10 11 12 13 13 13 14 15 15 15 14 13 13 12 11 9 9 8 7 6 4 3 3 2 1 0 1 2 3 4 4 5 5 5 6 6 6
12 9 8 7 5 3 2 2 3 4 5 7 9 10 11 11 11 12 12 13 14 13 14 13 12 12 12 10 9 8 7 7 5 4 3 3 2 1 2 2 3 4 4 5 6 6 6 6 7
13 11 10 9 8 6 4 4 4 4 4 6 7 9 10 10 11 11 11 12 12 12 13 13 12 12 11 10 9 8 8 7 6 5 4 3 3 2 2 2 3 3 4 5 6 6 7 7 7
15 13 12 11 10 8 7 6 6 5 5 6 7 9 10 10 11 10 11 12 12 11 12 12 12 12 11 10 10 9 8 7 6 5 4 4 4 3 3 3 3 3 5 6 7 7 8 8 8
17 16 14 13 10 10 9 7 8 7 7 8 8 9 10 10 10 9 10 11 11 10 11 11 12 11 11 10 10 9 8 7 6 5 5 5 4 4 4 4 3 3 4 6 7 8 9 9 9
20 18 16 15 13 12 12 9 9 9 8 9 9 10 11 11 11 9 9 9 9 10 10 11 11 11 11 11 10 9 8 7 7 6 6 6 5 4 4 4 4 4 5 6 8 9 9 10 10
22 20 19 17 16 15 14 12 11 11 10 10 11 11 12 12 11 10 9 9 10 10 10 11 11 10 10 10 9 9 8 7 7 7 7 7 6 6 5 5 5 5 6 6 7 8 9 9 10
23 21 19 17 17 17 17 15 13 13 12 12 12 12 13 12 11 10 10 10 11 10 11 11 11 11 11 10 10 9 9 8 8 8 7 7 7 6 6 6 6 6 7 8 8 9 9 10 10
24 22 21 18 16 16 18 16 14 14 14 14 14 13 12 11 11 11 11 11 11 11 11 11 11 13 12 11 11 10 9 9 8 8 8 8 7 7 7 7 8 8 8 8 9 9 10 10 11
27 25 23 21 20 18 17 17 15 15 15 15 15 14 12 12 12 12 12 11 12 12 12 11 12 12 12 12 11 11 10 9 9 9 8 8 8 8 7 8 8 9 9 9 9 9 10 10 12
28 26 25 23 22 20 19 18 16 15 15 14 14 14 13 13 13 13 12 12 13 13 13 12 12 12 12 12 12 12 11 10 10 10 9 9 9 9 9 9 9 10 10 10 11 11 12 13 13
28 28 27 25 24 21 20 19 19 17 16 15 15 14 14 14 14 14 14 15 15 15 15 14 13 12 13 13 13 12 11 10 10 10 10 10 10 10 10 11 11 11 12 13 14 14 14 15 15
29 28 27 26 26 25 22 20 21 19 17 16 16 15 15 15 15 15 16 17 17 16 16 16 15 15 15 14 13 12 11 11 10 11 11 11 11 11 12 12 13 12 13 14 15 16 16 17 17

GEFSSGP_500_meanwind_204.txt.gz
Wind_Speed
24 25 25 26 24 17 15 15 13 13 12 11 10 9 9 9 8 8 8 8 7 7 7 6 6 5 5 4 4 4 4 5 6 6 6 6 7 7 7 7 8 8 8 9 8 9 10 10 10
23 24 28 26 18 15 16 16 15 14 13 13 12 12 11 10 9 9 9 8 8 8 8 7 7 5 5 4 4 4 5 5 5 5 6 6 6 6 7 7 8 9 9 10 10 10 11 10 10
25 28 28 20 14 15 16 16 16 15 15 15 14 14 13 12 11 10 10 9 9 9 8 8 7 6 5 4 4 4 4 4 4 5 5 5 5 5 6 8 9 9 10 10 10 11 11 10 9
27 30 24 16 15 16 17 17 17 16 16 15 15 14 14 14 12 11 11 11 10 9 9 8 7 6 5 4 4 4 4 4 4 4 5 5 6 6 6 8 10 10 10 10 11 10 10 10 9
29 25 18 15 16 17 17 18 18 18 17 17 16 15 15 15 14 13 12 11 11 10 9 9 8 7 6 5 4 4 4 4 4 4 4 5 6 6 7 9 10 10 10 11 10 10 9 9 9
25 17 13 13 15 16 18 19 19 19 18 18 18 18 17 16 15 15 14 13 12 11 10 9 8 7 6 5 4 4 4 4 4 3 4 5 5 6 7 8 8 9 9 9 10 10 9 9 8
19 15 12 11 13 15 17 17 19 20 19 20 20 19 18 17 16 16 15 14 14 13 11 9 8 6 5 5 4 4 3 3 3 3 4 5 5 6 7 8 7 8 8 8 8 8 8 8 8
14 13 11 11 12 13 16 17 18 20 20 21 21 20 19 18 17 17 16 16 15 14 12 10 8 7 6 5 4 4 4 3 3 3 4 5 6 6 6 8 8 8 8 8 8 8 7 7 7
11 11 11 10 11 12 14 15 17 20 21 21 20 20 20 19 18 18 17 16 16 14 13 12 10 8 7 6 5 4 3 3 3 3 4 5 6 6 6 7 7 7 7 7 7 7 7 7 6
8 8 9 8 9 10 12 15 18 19 20 20 20 20 20 20 19 19 18 17 16 15 14 12 11 9 7 6 5 4 3 3 3 3 3 4 5 6 6 7 7 7 6 6 7 6 6 6 5
6 7 7 8 8 10 12 14 16 16 18 20 20 21 21 21 21 20 19 18 17 16 15 13 12 10 8 7 6 5 4 3 3 3 3 3 3 4 5 6 6 6 6 6 6 6 6 4 5
4 5 6 6 8 9 10 11 13 14 16 18 20 21 21 21 21 21 20 19 18 16 15 14 13 11 10 8 7 6 5 4 3 3 3 3 2 3 4 4 5 6 5 5 5 5 4 4 4
2 3 5 6 8 8 9 9 12 13 14 16 18 20 20 21 21 21 20 19 18 17 16 14 13 13 11 9 8 7 6 4 3 3 3 3 2 2 2 3 3 4 4 4 4 4 4 4 3
2 1 2 5 6 6 6 7 10 12 13 14 16 18 20 20 20 20 19 19 18 17 16 15 14 14 12 11 9 7 6 5 4 3 2 2 2 1 1 1 2 2 2 3 4 4 4 4 4
3 2 1 4 5 6 7 7 8 10 11 12 14 16 18 19 20 19 19 19 18 17 16 16 15 14 13 12 11 9 8 6 5 4 3 2 1 1 0 1 2 2 3 3 4 4 4 4 4
3 4 4 3 5 7 8 8 10 10 10 11 12 14 15 17 18 18 18 18 18 17 16 15 15 14 13 12 11 10 10 8 6 5 4 3 2 1 1 1 2 3 4 4 4 5 5 5 5
8 9 5 4 5 6 8 8 11 9 9 10 10 11 13 13 15 16 17 17 17 17 16 15 15 14 13 13 12 11 10 9 8 7 6 5 4 2 2 1 2 2 3 4 5 6 6 5 6
8 7 6 5 5 5 7 8 9 9 8 9 10 10 11 12 13 14 15 16 16 16 16 15 14 14 13 12 12 11 10 9 8 7 6 6 4 4 3 2 2 2 3 4 5 6 6 7 7
8 8 7 5 6 6 8 9 9 8 9 9 9 10 10 11 12 13 13 14 15 15 15 15 14 14 13 12 12 11 10 10 8 8 6 5 5 4 3 3 3 3 3 4 5 6 6 7 7
12 10 8 8 8 7 8 10 10 8 10 10 10 10 9 10 11 12 12 13 13 13 13 14 14 14 14 13 12 11 11 10 8 7 7 6 6 5 4 3 3 3 4 4 5 6 7 7 7
13 12 12 11 8 8 10 12 12 10 8 11 12 10 9 9 10 11 11 11 12 12 13 13 13 14 14 13 13 12 11 10 9 8 7 6 6 6 6 5 4 4 4 5 5 6 7 7 8
14 13 13 11 10 11 11 14 15 15 11 10 12 11 9 10 9 10 10 10 11 12 12 12 13 13 14 13 12 12 11 11 9 8 8 7 7 6 6 5 5 4 5 5 6 6 7 7 8
16 15 14 14 13 14 13 16 15 15 12 10 11 11 11 10 10 10 10 10 11 12 12 12 13 13 13 13 12 12 12 11 10 9 8 8 7 7 7 6 5 5 6 6 6 6 7 8 8
18 17 16 15 15 17 15 15 17 17 14 13 11 9 10 11 11 11 11 11 11 12 12 12 12 13 13 13 13 13 12 11 10 9 8 8 8 7 7 7 6 6 6 6 6 6 7 8 8
20 18 15 16 17 17 16 15 18 19 17 16 14 13 12 13 12 12 12 12 12 12 12 12 12 13 14 14 13 13 12 12 11 10 10 9 8 8 8 7 8 7 7 7 7 8 8 8 9
20 19 19 19 19 19 17 16 17 17 17 17 16 15 16 14 14 14 13 13 12 12 12 11 12 13 14 14 13 13 13 13 12 12 11 10 9 9 8 8 8 8 8 8 8 9 9 10 10
21 21 19 20 20 21 20 17 17 16 16 16 17 17 19 18 16 15 14 13 13 13 13 13 13 13 14 15 14 13 13 13 13 12 11 11 11 10 9 9 9 9 9 9 10 10 10 10 11
23 21 20 21 22 21 19 18 16 18 17 17 17 19 20 19 18 17 15 15 14 14 14 14 14 14 14 14 14 13 13 13 13 12 12 12 11 11 11 11 11 11 10 10 11 11 11 12 13
23 23 23 23 22 21 20 22 19 18 20 19 18 19 20 21 19 17 16 15 15 16 16 15 15 15 15 15 15 14 14 14 13 13 12 13 13 13 12 12 12 12 12 12 13 13 13 13 14
23 24 23 24 24 23 21 22 20 19 20 20 20 20 19 19 20 18 18 16 16 17 18 18 17 17 16 16 16 16 15 15 14 14 14 14 14 14 14 13 13 13 13 14 14 15 15 15 15

GEFSSGP_500_meanwind_210.txt.gz
Wind_Speed
25 24 24 24 23 22 22 22 20 17 15 15 15 14 14 13 11 10 10 10 9 9 9 9 9 8 7 7 6 5 5 5 5 4 4 4 5 6 7 7 7 7 8 8 9 9 9 9 10
25 25 25 25 25 24 24 23 21 19 18 17 15 14 13 13 12 11 11 11 10 10 10 10 10 9 9 7 6 5 5 5 4 4 4 4 5 6 7 7 7 7 8 8 9 9 9 10 10
23 25 25 26 25 25 24 24 22 21 19 18 16 15 13 13 12 12 12 12 11 11 10 10 10 9 9 8 7 6 5 5 5 4 4 5 5 5 6 6 6 7 8 8 9 10 10 10 11
21 23 25 26 26 26 25 25 23 22 20 19 18 16 14 14 13 12 13 13 12 11 11 10 10 9 9 8 8 7 6 6 5 5 5 5 4 5 7 7 7 8 9 9 10 10 10 11 11
19 22 24 25 25 26 26 26 24 22 20 20 19 17 16 15 14 13 13 14 13 12 11 10 10 10 9 9 8 7 6 6 6 5 5 5 5 6 7 7 8 9 10 10 10 10 10 11 11
19 22 22 23 23 25 25 25 23 22 21 21 20 18 17 16 15 14 14 14 14 13 12 11 10 9 9 9 8 8 7 6 6 5 5 5 6 7 8 8 8 9 9 9 9 9 10 10 10
17 19 20 21 21 22 23 23 22 23 22 21 21 20 18 17 16 16 15 15 14 13 12 11 11 10 9 9 8 8 7 6 6 5 5 5 6 7 7 8 8 8 8 9 9 8 9 10 9
16 18 18 20 20 21 21 21 22 23 23 23 22 21 19 18 17 17 17 16 15 14 13 12 11 10 9 9 8 8 7 6 6 6 5 6 7 9 9 8 8 8 8 8 8 9 9 9 8
14 15 15 18 19 20 20 20 22 23 22 23 23 21 20 20 19 18 18 17 17 15 14 13 12 11 10 9 8 7 7 6 6 6 6 6 7 8 8 7 7 7 7 7 8 8 8 8 7
11 11 14 16 17 19 19 19 20 21 21 22 23 22 21 21 20 20 19 18 18 17 16 14 12 11 11 10 9 7 7 6 6 6 6 6 6 7 7 6 6 7 7 7 7 7 7 7 6
10 11 13 15 16 18 18 19 19 19 19 20 21 21 21 21 20 20 19 19 18 18 16 15 13 12 11 10 9 8 8 7 7 6 6 6 6 5 6 6 6 6 6 6 5 5 6 6 5
7 9 11 13 15 17 16 17 17 17 17 18 19 19 20 20 20 20 20 19 18 18 17 16 14 13 12 11 10 10 9 8 7 6 6 6 5 5 5 5 5 5 6 5 5 5 5 5 5
4 6 8 11 13 15 15 15 16 16 16 17 17 17 18 19 19 19 19 19 19 18 17 16 15 14 13 12 11 10 9 8 7 6 6 5 4 4 4 4 4 5 5 5 5 5 5 5 5
2 3 5 7 8 10 12 13 14 15 15 15 15 15 16 17 18 18 19 19 19 18 17 16 16 15 14 13 12 10 9 8 7 6 6 5 4 3 3 3 3 4 4 4 5 5 5 5 5
4 1 2 3 4 7 9 11 13 14 14 14 14 14 15 16 17 18 18 18 18 18 17 17 16 16 15 14 12 11 10 9 7 6 5 4 4 4 3 3 2 3 4 5 5 5 5 5 5
7 4 3 3 3 5 6 9 11 13 13 14 13 13 14 15 15 16 17 17 18 17 17 17 16 15 14 14 12 11 10 9 8 7 5 4 3 3 3 2 2 3 3 4 4 5 5 6 6
7 4 3 3 5 5 6 7 8 10 11 12 12 12 13 14 15 15 15 16 16 16 16 16 15 14 14 13 13 11 10 9 8 7 6 4 3 2 1 1 1 2 3 3 4 4 5 6 7
7 6 6 6 6 7 7 7 6 7 9 11 11 11 12 13 13 13 13 14 14 15 15 14 14 13 13 12 12 11 10 9 8 7 7 5 3 2 2 1 0 2 3 4 4 4 5 6 7
10 9 8 7 7 8 8 7 6 7 8 9 11 10 10 10 11 12 12 12 13 13 14 14 13 12 12 12 11 10 10 9 8 7 6 5 3 2 2 1 2 1 1 3 4 5 5 6 6
12 11 8 6 7 8 8 9 7 7 8 8 8 8 8 8 9 10 10 10 11 12 13 13 12 12 11 11 11 10 10 9 8 7 6 5 4 2 2 1 1 1 2 3 4 4 5 6 6
14 12 9 9 10 11 11 10 9 9 8 8 8 8 8 8 8 9 9 9 10 11 12 12 12 11 10 10 10 10 10 9 9 8 7 5 4 4 3 3 3 3 3 4 5 5 5 6 7
16 13 13 13 14 15 14 12 11 10 11 10 9 8 7 8 8 8 8 8 9 9 10 11 11 11 10 10 9 9 9 9 8 8 7 6 5 5 4 4 3 3 4 4 5 5 5 6 6
18 16 17 17 16 18 17 16 14 14 14 12 9 8 7 7 7 7 6 7 7 9 10 10 11 11 10 10 9 9 9 9 8 8 8 7 5 5 5 5 4 4 4 5 5 5 5 5 6
19 19 20 20 19 19 18 18 16 17 16 13 11 9 7 7 8 7 7 7 7 9 9 10 10 10 11 10 10 9 8 8 8 8 8 7 6 5 5 5 5 5 5 5 6 6 7 6 7
21 21 22 23 22 20 18 20 19 17 15 13 11 9 9 9 8 8 8 8 8 8 9 10 10 10 10 10 10 9 8 8 8 8 7 7 6 6 7 6 5 5 5 5 6 6 7 8 8
20 22 23 23 22 21 20 21 19 18 16 14 12 10 9 9 9 8 9 8 8 9 9 9 10 10 10 10 10 9 9 8 8 7 8 8 8 7 7 6 6 6 6 6 6 7 7 8 8
22 23 23 23 23 22 22 21 20 18 17 15 14 11 9 10 10 10 11 11 10 9 9 10 11 11 11 11 11 10 10 9 9 8 9 9 8 8 7 7 7 7 7 7 7 8 8 8 9
24 23 24 25 23 23 24 23 21 19 18 17 15 12 12 12 14 14 14 12 12 11 10 10 11 12 11 12 11 10 10 10 10 9 9 9 9 8 8 8 8 8 9 9 9 9 10 9 9
25 25 26 27 26 25 25 24 21 19 17 15 14 14 14 14 14 15 14 13 14 14 14 13 13 13 12 12 12 11 11 11 11 11 10 10 10 10 9 9 9 9 10 10 10 10 10 10 11
26 25 25 27 27 26 26 25 22 21 18 17 16 16 15 15 16 16 16 16 15 16 16 16 15 14 14 13 13 13 14 13 13 13 13 13 12 12 11 12 12 11 11 11 11 11 12 12 12

GEFSSGP_500_meanwind_216.txt.gz
Wind_Speed
26 26 24 23 23 22 22 22 22 20 18 17 16 16 15 13 12 11 11 9 8 8 8 8 7 7 7 8 8 8 7 7 6 6 6 6 7 6 7 7 7 7 7 7 8 8 9 9 10
24 24 24 23 23 23 24 23 23 21 19 18 17 17 15 14 13 12 11 10 9 8 9 9 8 8 7 8 8 8 8 7 7 6 6 6 6 7 7 6 6 7 7 8 8 9 9 10 11
23 23 23 23 23 24 25 24 23 21 20 19 19 18 16 15 14 12 12 10 9 9 9 9 9 9 8 8 8 8 7 7 7 7 6 6 6 7 7 6 7 7 8 9 9 10 10 10 10
23 22 22 22 23 25 25 25 24 22 21 20 19 18 17 15 14 13 12 11 10 9 9 9 9 10 10 10 9 8 8 8 7 7 7 5 6 7 7 7 7 8 8 9 9 10 10 10 10
22 22 22 22 23 24 25 26 25 24 22 20 19 19 18 16 15 14 12 11 10 10 10 10 10 10 10 10 10 9 8 8 7 7 7 6 6 7 7 7 7 8 8 9 9 9 9 9 9
21 21 22 23 24 24 25 26 26 24 23 21 20 20 18 16 15 14 13 12 11 11 10 10 10 10 10 10 10 9 8 8 7 7 6 6 6 6 7 7 7 8 8 8 8 9 9 9 9
21 21 21 23 24 24 25 25 25 24 23 22 21 21 19 17 16 15 14 13 12 12 11 10 10 10 10 9 9 9 8 8 7 6 6 5 5 6 7 7 8 8 8 7 8 9 8 9 8
19 20 20 21 23 24 23 24 24 23 23 22 21 21 20 18 16 16 15 14 13 13 12 11 10 10 10 10 9 9 9 8 7 7 6 6 6 7 7 6 7 8 8 8 9 8 8 8 8
16 18 18 19 22 22 22 23 23 23 22 22 22 22 21 19 17 16 16 15 14 14 13 13 12 11 10 10 9 8 8 7 7 7 6 6 6 7 7 6 6 7 7 9 9 9 9 9 8
14 16 16 17 19 20 21 22 22 22 22 21 21 21 21 20 19 17 16 15 15 14 14 13 12 12 11 10 9 9 8 7 8 7 7 7 7 7 7 6 6 6 7 8 7 8 8 7 6
12 13 14 16 17 18 19 20 21 21 21 20 20 20 20 20 20 18 17 16 15 15 14 14 13 13 12 11 10 9 8 7 7 7 7 6 6 6 6 6 6 6 6 6 6 6 7 6 5
8 10 12 13 14 16 17 18 19 19 20 20 19 19 19 19 19 18 18 17 16 15 14 14 13 12 12 11 10 9 8 7 6 6 6 6 6 6 6 6 6 6 6 6 6 5 5 5 5
4 7 9 11 12 13 14 15 17 18 18 18 18 18 18 18 18 18 17 17 16 15 15 14 13 12 12 11 10 10 9 7 7 6 6 5 5 5 5 5 5 5 5 5 5 5 4 4 4
1 3 6 8 10 11 13 13 14 16 16 16 16 16 16 17 17 17 17 16 15 15 14 14 14 13 12 11 10 9 9 8 7 7 6 5 5 5 4 4 4 4 4 4 4 5 5 5 5
3 1 2 4 6 8 9 11 12 13 14 15 15 15 15 16 16 16 16 16 15 14 14 14 14 13 12 11 10 9 9 9 8 7 6 5 4 4 3 3 3 3 3 3 4 5 5 5 5
6 4 2 2 3 5 6 8 9 10 11 13 12 13 13 14 14 15 15 15 14 14 14 14 13 13 12 11 10 9 9 8 8 7 6 4 3 2 2 1 1 2 3 3 3 4 5 5 5
9 6 4 3 3 3 4 5 7 8 9 10 11 11 11 12 12 13 14 14 14 14 13 13 13 12 12 11 9 9 8 8 7 7 5 4 3 2 1 1 0 1 2 3 4 4 5 5 6
12 10 7 5 5 4 4 4 5 6 6 7 8 9 9 9 9 10 11 12 13 13 13 12 12 12 11 11 10 9 8 7 6 6 5 4 3 2 1 1 1 1 3 3 4 5 6 6 6
15 12 10 8 8 6 5 4 4 5 5 5 6 7 6 7 7 7 8 9 11 11 11 11 11 11 11 10 10 9 8 7 6 6 5 4 3 3 2 3 3 3 3 5 5 5 7 7 7
18 15 14 12 10 9 7 5 3 5 5 4 4 5 5 6 6 6 6 7 8 9 9 10 11 11 10 10 10 9 8 7 7 6 5 5 4 3 3 3 3 4 4 4 5 5 6 7 8
21 19 17 15 13 12 10 8 6 5 5 4 5 5 5 5 5 6 6 6 6 7 8 8 9 10 10 10 10 9 9 7 6 6 5 5 5 4 3 3 4 4 5 6 6 6 6 8 8
23 21 20 18 17 15 14 13 8 8 7 6 5 6 6 5 5 5 5 5 5 6 6 8 8 9 9 10 9 9 8 8 7 6 5 5 5 4 4 4 5 5 6 6 6 7 7 7 7
25 24 23 21 20 19 17 17 12 11 9 8 7 7 7 6 6 6 6 6 6 6 6 7 7 8 8 9 8 9 8 8 8 7 6 5 5 5 5 5 5 5 6 6 6 7 7 7 8
28 27 26 24 24 23 20 19 16 13 11 9 9 8 9 8 8 7 7 7 7 7 7 7 7 8 8 8 8 8 8 8 8 7 6 6 6 6 6 6 5 6 6 7 7 7 7 8 9
30 29 28 27 27 26 23 22 19 16 14 13 12 11 11 10 9 9 9 9 9 8 8 9 8 8 9 9 8 8 8 9 8 8 7 7 7 7 7 7 6 6 7 7 7 7 7 8 9
31 30 30 29 28 26 26 24 20 18 16 15 15 14 13 12 12 11 10 10 10 10 10 10 9 9 9 10 10 9 9 9 9 9 8 8 8 8 8 8 8 8 8 8 8 8 8 9 9
31 30 29 29 28 27 26 25 21 20 20 18 16 15 14 12 13 13 11 10 11 11 11 10 10 11 11 11 11 11 10 10 10 9 9 9 9 9 9 10 10 9 9 10 9 9 9 9 10
31 30 30 30 29 28 28 26 24 21 21 20 18 17 15 14 14 14 13 12 12 13 13 11 10 11 12 13 13 13 13 13 12 11 11 11 11 11 11 11 11 11 11 11 11 11 11 11 10
32 31 31 31 31 30 28 26 24 22 21 20 18 17 16 15 15 15 14 14 15 15 14 13 13 13 13 14 14 15 15 14 13 13 13 14 14 14 14 13 13 13 13 12 12 13 13 13 13
32 31 31 32 31 31 30 28 25 22 21 20 18 17 16 17 17 17 16 16 16 17 16 16 16 15 15 15 16 16 16 16 15 15 16 16 16 17 17 16 16 15 15 15 15 14 14 15 15

GEFSSGP_500_meanwind_222.txt.gz
Wind_Speed
24 23 21 20 22 19 17 17 17 17 16 16 15 14 14 12 11 10 9 9 8 8 7 7 6 7 8 8 8 8 8 8 9 10 10 10 10 10 10 10 10 10 11 11 11 11 10 10 9
24 23 21 24 22 20 19 18 18 17 17 16 16 16 15 13 12 11 10 9 8 8 8 7 7 8 8 8 8 8 7 7 8 9 9 9 10 9 10 9 9 10 10 10 10 10 10 10 10
23 23 23 24 21 20 20 20 19 18 18 17 17 16 16 15 14 12 11 10 9 8 8 8 8 8 9 9 9 8 9 9 8 8 8 9 9 9 10 9 9 10 10 9 10 11 11 10 10
22 22 24 22 20 20 21 21 21 20 20 19 19 18 17 16 15 13 12 11 10 9 9 8 8 9 9 9 9 10 9 9 9 9 8 8 9 9 9 9 9 10 10 10 11 11 11 10 9
20 23 22 19 20 20 21 21 22 22 21 20 19 19 18 16 15 13 12 12 11 10 9 9 9 9 9 9 9 10 9 9 9 9 9 9 9 9 9 9 10 10 10 11 11 11 11 10 9
21 23 19 19 19 20 21 21 22 23 22 21 20 19 18 17 15 14 13 12 11 10 9 9 9 9 9 8 9 9 9 9 9 9 8 9 9 9 9 9 10 10 10 10 10 10 10 10 9
20 19 18 19 19 20 20 21 22 22 22 21 20 19 18 17 16 14 13 12 12 11 10 9 9 9 9 8 8 8 8 8 8 9 8 8 9 9 8 9 10 10 10 10 11 10 10 10 9
17 18 17 18 18 19 19 20 21 22 22 21 20 20 19 17 16 15 14 13 12 11 10 9 8 8 8 8 7 7 7 6 7 7 7 8 9 9 9 9 9 9 9 10 10 10 10 9 9
15 17 15 16 17 17 18 19 20 21 21 21 20 20 19 17 16 15 14 13 12 11 10 10 9 8 8 8 7 7 6 5 6 6 7 7 8 9 9 9 9 9 9 10 10 10 10 9 9
14 14 13 14 15 16 17 18 19 20 20 20 20 19 18 17 17 16 14 13 12 11 11 10 10 9 9 8 8 7 6 6 6 6 7 7 8 8 9 9 9 8 8 9 9 10 10 9 9
11 11 12 13 14 15 16 17 17 18 19 20 19 19 18 17 16 15 14 13 12 11 11 10 10 9 9 9 9 8 7 7 7 6 7 7 7 8 8 8 9 9 9 9 10 10 10 9 9
7 8 9 11 12 13 14 14 16 17 17 18 18 18 17 17 16 15 14 13 12 12 11 10 10 9 9 9 9 8 7 7 7 6 6 6 7 7 7 7 7 7 7 8 9 8 9 9 8
5 6 7 8 9 11 12 12 14 15 15 15 16 17 16 16 16 14 13 13 12 11 11 11 10 10 9 9 9 8 7 6 6 6 6 6 6 7 7 7 7 7 7 8 8 8 9 9 8
2 4 5 6 7 8 10 10 11 12 13 13 14 15 15 15 14 14 13 12 11 11 11 11 10 10 10 9 9 8 7 7 6 6 5 5 5 5 5 6 6 6 7 7 6 7 8 8 8
0 1 3 4 4 5 6 8 9 10 11 12 12 12 13 13 13 12 12 11 11 10 10 10 10 10 9 9 9 8 8 7 6 5 4 4 3 3 4 4 5 6 6 6 6 6 6 7 7
4 3 2 2 2 3 4 5 6 8 8 9 10 11 11 12 11 11 11 11 10 10 10 10 10 9 9 8 8 9 8 7 5 4 3 3 3 2 3 3 4 5 5 5 6 6 6 6 7
7 5 5 4 2 2 2 3 4 6 7 7 8 9 9 10 10 10 11 10 10 9 9 9 10 9 9 8 8 8 8 7 5 4 4 3 2 2 3 3 3 3 4 5 6 6 6 6 7
10 9 8 7 5 3 2 2 3 5 6 6 7 7 8 8 8 9 9 9 9 9 9 9 9 9 9 8 8 8 7 7 6 5 4 3 2 1 0 1 2 3 4 4 6 6 7 7 8
14 12 11 10 8 6 5 4 4 5 5 5 6 7 7 7 7 7 8 8 8 8 8 8 8 8 8 8 8 7 7 6 5 4 4 3 3 3 2 2 2 3 4 5 6 7 8 8 8
16 14 13 12 11 9 7 6 6 5 5 5 6 6 6 6 5 6 6 7 7 7 7 7 7 7 8 8 7 7 7 6 5 5 4 4 4 4 3 3 3 4 5 6 7 7 8 9 9
17 16 14 14 13 11 10 9 8 7 6 6 6 6 6 6 5 5 6 6 6 6 6 6 6 7 8 7 7 6 7 6 6 6 5 5 5 5 4 4 4 5 5 6 7 8 8 9 9
19 18 17 17 15 13 12 11 11 9 8 7 7 7 7 7 6 7 6 6 6 6 7 6 6 6 7 8 7 6 7 7 7 6 6 6 6 5 5 5 5 5 5 6 6 8 8 9 9
22 22 20 20 18 17 15 13 12 12 9 9 9 9 8 8 8 8 8 7 7 7 7 8 7 7 7 7 7 7 7 7 7 7 7 7 6 6 6 6 6 6 6 7 7 7 7 7 8
26 24 23 22 20 20 18 16 15 13 12 11 10 10 10 11 10 10 9 9 8 8 9 9 9 9 9 9 8 8 8 8 8 7 7 7 7 7 7 7 8 8 8 8 8 8 8 8 8
28 25 23 22 22 22 20 20 17 15 14 12 12 12 12 12 13 13 12 11 10 10 10 10 10 10 10 10 10 9 9 9 9 9 8 8 8 9 9 9 9 9 9 9 9 9 9 9 9
28 26 25 23 21 20 23 22 18 17 16 14 14 13 13 13 13 14 14 13 12 12 12 12 12 12 11 11 11 10 10 10 10 10 10 10 10 10 11 11 11 11 11 11 10 10 10 10 10
29 27 24 24 23 21 22 22 20 19 18 17 15 14 14 15 15 15 15 15 15 15 14 14 14 13 13 13 12 13 12 11 12 11 12 11 11 11 11 12 12 12 12 12 12 12 12 12 12
30 28 27 26 24 23 23 22 20 19 18 18 17 16 16 16 17 17 17 17 17 17 16 16 16 15 14 14 14 14 14 14 14 13 13 13 13 13 13 13 13 13 13 14 15 15 15 15 14
31 31 30 28 26 24 22 21 21 21 19 18 18 18 18 18 19 19 18 18 18 18 18 18 18 17 17 16 16 16 17 17 16 15 15 14 14 15 14 14 15 14 15 16 17 17 17 17 17
31 31 31 29 29 27 25 22 22 21 19 19 19 20 20 20 20 20 20 20 20 20 20 20 20 19 19 18 18 19 19 19 19 17 16 16 17 17 16 16 16 17 17 18 18 18 18 18 18

GEFSSGP_500_meanwind_228.txt.gz
Wind_Speed
24 24 24 23 23 17 13 12 12 11 10 9 8 8 7 7 6 6 6 6 5 5 5 4 4 4 5 5 4 4 4 5 6 8 9 9 10 10 10 9 9 9 9 10 10 9 10 9 9
25 23 25 26 19 14 13 12 12 11 11 10 10 9 9 8 7 7 6 6 7 6 5 5 5 5 5 5 4 4 3 4 5 7 8 9 9 9 9 9 10 10 9 10 10 10 10 10 9
26 25 28 22 14 14 14 13 13 13 12 11 11 10 9 9 8 8 7 7 8 8 7 7 7 6 5 5 4 4 4 4 5 5 7 8 8 8 8 9 9 9 10 10 10 10 9 9 9
25 28 26 15 12 14 14 14 14 14 13 12 11 11 10 10 10 9 8 8 9 8 8 8 7 6 6 5 4 4 4 4 4 5 6 7 7 8 7 8 8 9 9 9 10 10 9 9 8
26 27 19 12 12 14 15 15 15 14 14 13 12 12 11 11 10 10 9 8 9 9 9 8 7 7 6 5 5 5 4 4 4 5 6 6 7 7 7 8 8 8 9 10 10 10 9 8 7
27 22 13 12 13 13 14 15 14 14 14 14 13 13 12 11 11 10 10 9 9 9 9 8 8 7 6 5 5 5 5 5 4 4 7 7 7 7 7 7 7 8 9 10 9 9 8 7 7
23 15 10 10 11 12 13 14 14 14 14 14 14 14 13 13 12 11 10 10 9 9 9 9 8 7 6 6 5 5 4 4 4 4 6 6 7 6 6 7 7 8 9 9 9 8 7 7 6
16 12 8 8 10 11 12 13 14 14 15 15 14 14 13 12 12 12 11 11 10 10 10 9 9 8 7 6 6 4 3 3 3 3 4 5 5 6 6 6 7 8 9 9 8 8 7 7 6
14 10 7 7 9 10 11 12 13 14 15 15 15 14 13 13 12 12 12 11 11 10 10 10 9 8 8 7 6 5 4 3 3 3 4 5 5 5 6 6 6 7 8 8 7 6 7 6 6
10 7 7 8 7 8 9 10 12 14 15 15 14 14 14 13 12 12 12 12 12 11 11 11 9 9 9 8 7 6 5 4 3 3 4 4 5 5 6 5 6 6 7 6 6 6 6 6 5
8 6 6 7 7 8 9 10 12 13 14 14 14 14 14 13 13 12 12 13 12 12 12 11 10 10 9 9 8 7 6 5 4 3 3 4 5 5 5 5 5 6 6 6 6 5 6 6 5
5 6 7 6 6 8 9 10 10 10 12 13 14 14 13 13 13 12 12 12 12 12 11 11 10 10 10 9 8 7 7 5 5 4 3 3 4 4 4 4 5 6 6 6 5 5 6 6 6
3 4 4 5 6 7 8 9 10 11 12 12 13 13 13 13 13 13 13 12 12 12 12 12 11 11 10 9 9 8 8 6 5 4 3 3 2 2 3 4 5 5 5 5 6 6 6 6 6
1 2 3 4 4 6 7 7 9 11 11 11 12 12 13 13 13 13 13 12 12 12 12 12 11 11 10 10 9 8 8 7 6 4 3 2 1 2 3 4 4 5 5 5 5 6 6 7 7
1 1 2 3 4 5 5 6 8 9 10 11 11 12 13 13 13 12 12 12 13 12 12 12 11 11 11 11 10 9 8 8 7 5 4 3 2 1 1 2 3 3 4 4 5 6 6 6 7
3 4 4 2 2 4 5 6 8 9 9 11 11 11 11 11 12 12 11 11 12 12 12 11 12 12 11 10 10 9 8 7 7 6 5 3 2 2 1 1 2 2 3 3 4 5 6 7 7
4 7 8 6 4 4 5 7 8 10 11 10 10 11 10 10 11 11 11 11 11 11 11 11 11 12 11 10 10 10 9 7 6 6 5 4 3 2 2 2 2 3 3 4 4 5 6 7 8
9 10 10 8 7 5 5 8 8 8 11 11 10 10 10 10 9 10 10 10 10 11 11 11 11 11 11 10 10 10 9 8 7 7 5 4 4 3 3 3 2 4 5 5 5 5 5 6 7
12 11 10 10 9 7 6 9 10 8 8 9 10 10 9 9 9 9 9 9 9 9 10 10 10 10 11 11 10 10 9 8 8 7 6 5 5 4 4 4 3 4 4 5 5 6 6 6 7
14 12 11 12 12 8 8 11 12 10 9 9 10 10 10 9 9 10 10 9 9 9 10 10 10 10 11 11 11 10 9 9 9 8 7 6 5 4 4 4 3 4 5 5 5 6 7 7 7
15 13 13 13 12 11 10 11 13 12 10 10 9 10 10 11 10 9 9 8 9 9 10 10 11 10 10 11 11 11 10 10 9 9 8 7 6 6 5 5 6 6 6 6 6 7 7 7 8
16 15 16 16 14 15 14 14 14 15 14 11 10 10 11 11 12 11 9 8 9 9 10 10 10 10 10 10 10 11 10 10 10 9 8 8 7 7 7 7 7 7 7 6 7 7 7 7 7
18 17 18 18 17 18 18 16 14 16 15 13 11 11 11 12 12 11 11 10 9 9 9 10 10 10 10 10 11 11 11 11 11 10 9 9 9 8 9 8 8 8 7 7 8 8 8 8 8
20 19 19 18 18 20 18 18 18 18 16 15 13 11 12 12 13 12 12 11 11 10 10 11 11 11 11 11 11 12 12 11 11 11 10 10 10 10 10 10 10 9 9 8 8 8 8 9 8
22 20 20 20 21 21 17 19 20 20 17 17 16 13 12 13 14 13 13 13 13 12 12 12 12 12 12 12 12 12 12 11 11 11 11 11 10 11 11 11 11 11 11 10 10 10 9 9 9
23 22 23 21 20 19 19 21 20 20 19 18 18 17 17 16 15 14 13 14 14 14 13 13 13 13 14 13 13 13 13 12 12 12 13 13 12 12 12 12 12 12 13 12 12 11 11 10 10
24 24 23 23 23 22 22 22 19 20 19 18 18 19 20 18 17 17 16 16 16 16 15 15 15 15 15 15 14 14 13 13 13 14 14 15 14 14 13 13 13 14 13 13 13 13 12 12 12
25 23 23 24 25 25 24 22 19 19 19 20 20 20 22 21 19 19 18 18 17 17 17 17 17 16 16 16 16 15 14 14 14 15 16 16 16 16 15 14 15 15 14 14 14 14 14 14 14
24 26 25 25 26 26 25 24 20 23 23 22 22 23 22 21 21 21 20 21 19 19 19 19 19 18 18 18 17 16 16 15 16 17 17 17 17 17 17 16 16 16 16 16 16 16 16 16 16
24 26 26 27 28 26 26 24 22 23 22 22 22 24 23 22 22 22 22 22 21 21 21 21 21 20 20 20 19 19 17 17 18 19 19 19 19 18 18 19 19 18 18 18 18 18 18 18 18

GEFSSGP_500_meanwind_234.txt.gz
Wind_Speed
21 20 20 20 20 19 18 18 17 15 15 14 13 13 12 12 11 10 9 8 8 9 8 7 6 6 6 6 6 5 5 5 5 6 6 7 7 7 9 9 9 9 10 9 9 9 9 10 10
21 20 20 20 21 21 20 19 17 15 15 15 14 13 12 12 12 10 10 9 9 10 9 8 7 6 7 7 6 6 5 5 5 6 7 7 7 8 9 9 9 9 10 10 10 9 10 11 11
20 20 20 20 22 22 21 21 19 17 17 16 15 14 13 13 12 12 11 10 10 10 10 10 9 8 8 7 6 6 5 5 5 5 5 6 7 8 8 9 9 9 10 9 10 10 10 11 11
18 19 20 21 21 21 21 21 20 18 17 16 15 14 14 13 13 13 12 11 11 10 10 9 9 8 8 7 7 6 5 5 4 4 5 6 7 8 9 9 9 9 9 9 9 9 9 10 10
18 19 20 21 20 20 21 21 21 19 18 17 16 15 14 14 14 13 13 12 11 11 10 9 8 8 8 8 7 6 6 4 5 5 5 7 7 8 8 8 8 9 9 9 9 9 9 9 9
16 18 18 18 18 19 19 20 20 19 18 17 17 16 15 15 15 14 14 13 12 11 10 9 9 8 8 8 8 7 6 5 5 5 6 7 7 7 7 7 8 9 9 9 9 8 8 8 8
15 17 17 16 16 17 18 18 18 18 18 17 17 17 16 16 15 14 14 13 12 11 10 10 9 9 9 8 8 7 7 6 5 6 6 6 7 6 7 7 8 8 9 9 8 8 7 8 8
14 16 16 16 15 16 17 17 17 18 18 17 17 17 16 16 15 14 13 13 12 11 11 11 10 10 9 9 8 7 7 6 6 5 5 6 6 6 6 7 8 8 8 8 8 7 7 7 7
14 14 14 14 15 15 16 16 17 18 18 18 17 16 16 16 16 15 13 13 12 12 11 11 11 10 9 8 8 7 6 6 5 5 5 6 7 7 7 7 7 7 8 8 7 7 7 6 6
11 12 12 12 13 14 15 15 16 17 18 17 17 16 16 16 16 15 14 13 13 12 12 12 12 11 10 10 9 8 7 6 5 5 4 5 6 7 7 7 7 7 7 7 6 6 6 6 6
9 10 11 11 12 13 14 16 17 17 17 16 16 15 16 16 16 15 14 14 13 13 13 13 12 12 11 11 9 8 7 6 5 5 4 4 5 6 7 7 7 7 6 7 6 6 6 6 5
8 8 9 10 10 11 14 16 17 17 17 16 16 16 15 14 15 15 14 14 14 13 13 13 12 12 12 11 10 9 7 6 5 5 5 4 4 5 6 7 7 6 6 6 5 5 6 6 6
6 4 5 6 7 10 12 14 15 16 16 16 16 15 15 14 14 14 14 13 13 13 13 12 12 12 11 11 10 9 8 7 6 5 5 4 4 5 5 5 5 5 6 6 5 5 5 6 6
5 3 2 3 4 8 10 12 13 14 16 16 15 15 15 14 13 13 13 13 12 12 12 12 13 12 11 10 10 9 9 8 6 5 4 4 3 4 4 5 6 6 6 6 6 6 5 6 6
5 3 1 2 2 5 7 9 10 13 15 15 15 14 14 13 13 12 12 12 12 12 12 12 13 12 11 11 10 10 9 8 7 5 4 3 2 2 3 3 5 5 5 6 6 6 6 6 7
7 4 1 1 3 4 5 6 8 10 12 13 13 12 12 12 12 11 11 11 11 11 11 12 12 12 11 11 10 10 9 8 8 6 4 3 2 2 1 2 3 4 4 5 6 6 6 6 7
9 5 3 3 4 5 5 5 6 8 9 10 11 11 11 11 11 12 11 11 10 10 11 11 11 11 11 10 10 9 9 8 7 6 5 3 2 2 1 2 2 3 3 4 5 6 7 7 7
10 7 5 5 5 7 7 6 5 7 8 8 9 9 10 10 10 10 10 10 10 10 10 10 10 10 10 10 10 9 8 8 7 6 5 4 2 1 1 1 1 2 3 4 4 5 6 7 8
14 11 8 7 7 8 8 7 6 6 7 7 8 8 8 9 10 10 10 9 9 9 9 9 9 10 10 9 9 9 8 8 7 6 6 5 3 2 1 1 1 2 2 3 3 4 6 7 7
16 13 11 9 9 10 9 7 6 6 6 6 7 8 7 8 8 9 9 8 8 8 8 8 8 8 9 9 9 9 8 8 7 7 6 5 4 3 3 2 1 2 2 3 4 4 5 6 7
17 15 14 13 13 12 12 11 9 8 7 6 7 7 7 7 7 7 7 7 7 7 8 7 7 8 8 8 8 9 9 8 7 6 6 5 4 3 3 3 2 2 3 4 5 5 6 6 7
18 16 16 16 15 15 15 14 12 11 10 7 7 7 8 7 6 6 6 6 7 7 7 7 6 7 7 7 7 7 7 8 7 6 6 6 5 4 3 3 3 4 4 5 5 6 6 6 7
18 17 17 18 18 17 16 16 14 14 12 10 9 9 9 10 8 7 6 6 7 7 7 7 6 6 7 7 7 7 6 6 6 6 6 6 6 5 5 5 5 5 5 5 5 6 6 7 6
18 18 19 20 20 19 16 17 16 15 13 12 13 12 12 11 9 8 8 7 8 8 7 7 7 7 7 7 7 7 7 6 6 6 5 5 6 6 6 5 6 6 6 6 6 6 7 7 7
21 20 21 22 23 20 18 20 18 16 16 15 15 14 13 12 11 9 8 8 8 9 9 8 8 8 8 8 8 9 9 8 7 7 6 6 6 6 6 7 7 7 8 8 7 7 7 7 7
22 23 23 23 22 20 21 23 21 19 18 18 17 15 15 14 13 13 10 9 9 9 10 10 10 10 10 10 10 10 10 10 9 8 7 7 7 7 7 7 8 8 9 9 8 7 8 8 8
23 24 23 24 23 24 24 22 22 21 19 19 19 18 18 16 15 15 13 12 11 11 11 12 11 11 11 12 11 11 11 10 10 9 9 9 8 8 8 8 9 9 10 10 10 10 10 11 10
25 24 24 25 25 26 25 23 22 22 20 21 22 20 19 18 17 16 15 14 14 13 14 14 13 13 13 13 13 13 12 11 11 11 11 11 10 9 10 10 10 11 11 12 12 12 12 12 12
26 27 28 28 28 28 28 26 24 24 23 22 22 22 22 20 19 18 16 16 16 16 16 16 15 15 15 15 15 15 14 13 12 13 13 13 12 12 12 13 13 13 13 13 13 13 13 13 13
29 29 30 31 31 31 31 30 27 26 25 24 24 23 22 21 20 19 17 18 18 18 19 19 17 18 17 16 16 16 15 15 15 14 14 14 14 14 15 15 15 15 15 15 15 15 15 15 15